GEFSSE_prec_meanprecacc_012.txt.gz
Total_Precipitation_Accumulation
0.00 0.00 0.00 0.00 0.00 0.00 0.00 0.00 0.00 0.00 0.00 0.00 0.00 0.00 0.00 0.00 0.00 0.00 0.00 0.00 0.00 0.00 0.00 0.00 0.00 0.00 0.00 0.00 0.00 0.00 0.00 0.00 0.00 0.00 0.00 0.01 0.01 0.01 0.01 0.01 0.01 0.04 0.01
0.00 0.00 0.00 0.00 0.00 0.00 0.00 0.00 0.00 0.00 0.00 0.00 0.00 0.00 0.00 0.00 0.00 0.00 0.00 0.00 0.00 0.00 0.00 0.00 0.00 0.00 0.00 0.00 0.00 0.00 0.00 0.00 0.01 0.00 0.00 0.00 0.01 0.01 0.00 0.00 0.01 0.02 0.00
0.00 0.00 0.00 0.00 0.00 0.00 0.00 0.00 0.00 0.00 0.00 0.00 0.00 0.00 0.00 0.00 0.00 0.00 0.00 0.00 0.00 0.00 0.00 0.00 0.00 0.00 0.00 0.00 0.00 0.00 0.00 0.00 0.00 0.00 0.00 0.00 0.00 0.00 0.00 0.00 0.00 0.00 0.00
0.00 0.00 0.00 0.00 0.00 0.00 0.00 0.00 0.00 0.00 0.00 0.00 0.00 0.00 0.00 0.00 0.00 0.00 0.00 0.00 0.00 0.00 0.00 0.00 0.00 0.00 0.00 0.00 0.00 0.00 0.00 0.00 0.00 0.00 0.00 0.00 0.00 0.00 0.00 0.00 0.00 0.00 0.00
0.00 0.00 0.00 0.00 0.00 0.00 0.00 0.00 0.00 0.00 0.00 0.00 0.00 0.00 0.00 0.00 0.00 0.00 0.00 0.00 0.00 0.00 0.00 0.00 0.00 0.00 0.00 0.00 0.00 0.00 0.00 0.00 0.00 0.00 0.00 0.00 0.00 0.00 0.01 0.00 0.00 0.00 0.00
0.00 0.00 0.00 0.00 0.00 0.00 0.00 0.00 0.00 0.00 0.00 0.00 0.00 0.00 0.00 0.00 0.00 0.00 0.00 0.00 0.00 0.00 0.00 0.00 0.00 0.00 0.00 0.00 0.00 0.00 0.00 0.00 0.00 0.00 0.00 0.00 0.01 0.01 0.02 0.03 0.01 0.00 0.00
0.00 0.00 0.00 0.00 0.00 0.00 0.00 0.00 0.00 0.00 0.00 0.00 0.00 0.00 0.00 0.00 0.00 0.00 0.00 0.00 0.00 0.00 0.00 0.00 0.00 0.00 0.00 0.00 0.00 0.00 0.00 0.00 0.00 0.00 0.00 0.01 0.03 0.02 0.10 0.21 0.16 0.11 0.06
0.00 0.00 0.00 0.00 0.00 0.00 0.00 0.00 0.00 0.00 0.00 0.00 0.00 0.00 0.00 0.00 0.00 0.00 0.00 0.00 0.00 0.00 0.00 0.00 0.00 0.00 0.00 0.00 0.00 0.01 0.03 0.03 0.02 0.03 0.02 0.01 0.02 0.03 0.16 0.29 0.27 0.27 0.23
0.00 0.00 0.00 0.00 0.00 0.00 0.00 0.00 0.00 0.00 0.00 0.00 0.00 0.00 0.00 0.00 0.00 0.00 0.00 0.00 0.00 0.00 0.00 0.00 0.00 0.00 0.00 0.00 0.01 0.02 0.04 0.05 0.03 0.05 0.03 0.02 0.03 0.04 0.13 0.18 0.16 0.20 0.18
0.00 0.00 0.01 0.01 0.00 0.00 0.00 0.00 0.00 0.00 0.00 0.00 0.00 0.00 0.00 0.00 0.00 0.00 0.00 0.00 0.00 0.00 0.00 0.00 0.00 0.00 0.00 0.01 0.01 0.03 0.04 0.03 0.01 0.02 0.02 0.02 0.03 0.05 0.09 0.10 0.15 0.19 0.16
0.01 0.01 0.01 0.01 0.00 0.00 0.00 0.00 0.00 0.00 0.00 0.00 0.01 0.01 0.00 0.00 0.00 0.00 0.00 0.00 0.00 0.00 0.01 0.01 0.03 0.03 0.04 0.02 0.02 0.05 0.03 0.00 0.00 0.00 0.00 0.01 0.02 0.02 0.04 0.06 0.13 0.16 0.18
0.00 0.00 0.00 0.00 0.00 0.00 0.00 0.01 0.01 0.01 0.01 0.01 0.01 0.01 0.01 0.02 0.02 0.00 0.00 0.00 0.00 0.02 0.03 0.09 0.17 0.15 0.11 0.04 0.06 0.09 0.02 0.01 0.01 0.00 0.00 0.01 0.05 0.07 0.05 0.04 0.06 0.10 0.15
0.00 0.00 0.00 0.00 0.00 0.00 0.00 0.00 0.00 0.01 0.04 0.04 0.03 0.03 0.04 0.04 0.04 0.04 0.04 0.02 0.03 0.09 0.18 0.29 0.28 0.15 0.09 0.08 0.07 0.07 0.04 0.04 0.01 0.00 0.01 0.06 0.11 0.14 0.13 0.12 0.12 0.10 0.13
0.00 0.00 0.00 0.00 0.00 0.00 0.00 0.01 0.01 0.02 0.04 0.05 0.06 0.06 0.08 0.08 0.09 0.09 0.07 0.05 0.09 0.17 0.23 0.18 0.15 0.14 0.13 0.09 0.09 0.09 0.08 0.09 0.05 0.05 0.06 0.09 0.13 0.13 0.16 0.15 0.12 0.12 0.13
0.00 0.00 0.00 0.00 0.00 0.00 0.01 0.02 0.01 0.02 0.02 0.03 0.06 0.07 0.17 0.26 0.27 0.25 0.15 0.13 0.14 0.31 0.39 0.33 0.26 0.24 0.24 0.23 0.16 0.11 0.11 0.11 0.10 0.11 0.08 0.07 0.10 0.09 0.10 0.13 0.13 0.13 0.14
0.00 0.00 0.01 0.00 0.00 0.01 0.02 0.04 0.06 0.06 0.05 0.06 0.09 0.19 0.41 0.47 0.37 0.37 0.33 0.32 0.25 0.35 0.48 0.54 0.49 0.51 0.38 0.36 0.23 0.16 0.14 0.12 0.11 0.13 0.10 0.08 0.08 0.08 0.07 0.12 0.17 0.16 0.15
0.00 0.00 0.01 0.02 0.04 0.09 0.11 0.12 0.13 0.15 0.14 0.16 0.28 0.44 0.58 0.70 0.71 0.83 0.75 0.49 0.34 0.45 0.54 0.51 0.46 0.62 0.49 0.42 0.32 0.31 0.28 0.20 0.16 0.14 0.13 0.08 0.05 0.07 0.06 0.11 0.16 0.17 0.19
0.00 0.01 0.03 0.06 0.14 0.28 0.31 0.32 0.33 0.35 0.36 0.38 0.54 0.59 0.58 0.69 0.80 0.89 0.66 0.35 0.38 0.60 0.67 0.60 0.54 0.68 0.60 0.49 0.39 0.41 0.39 0.28 0.20 0.17 0.13 0.10 0.07 0.02 0.03 0.07 0.14 0.19 0.25
0.01 0.03 0.09 0.16 0.22 0.29 0.31 0.32 0.34 0.35 0.34 0.37 0.45 0.45 0.40 0.37 0.45 0.52 0.34 0.24 0.38 0.51 0.43 0.37 0.40 0.59 0.60 0.55 0.52 0.34 0.26 0.20 0.14 0.12 0.09 0.06 0.06 0.05 0.01 0.04 0.13 0.22 0.26
0.01 0.03 0.08 0.13 0.14 0.17 0.24 0.29 0.27 0.25 0.25 0.24 0.27 0.27 0.21 0.16 0.19 0.25 0.23 0.18 0.26 0.25 0.17 0.27 0.41 0.50 0.40 0.42 0.46 0.24 0.16 0.15 0.13 0.10 0.07 0.05 0.05 0.04 0.02 0.02 0.08 0.16 0.21
0.01 0.02 0.02 0.03 0.06 0.10 0.15 0.16 0.14 0.11 0.12 0.13 0.16 0.18 0.13 0.12 0.08 0.10 0.10 0.10 0.14 0.11 0.06 0.16 0.27 0.24 0.14 0.30 0.34 0.18 0.10 0.07 0.07 0.06 0.05 0.04 0.02 0.02 0.02 0.03 0.06 0.10 0.11
0.01 0.01 0.02 0.03 0.04 0.05 0.05 0.05 0.05 0.05 0.04 0.03 0.02 0.02 0.02 0.02 0.02 0.02 0.03 0.04 0.04 0.05 0.03 0.06 0.17 0.20 0.17 0.25 0.27 0.21 0.08 0.05 0.03 0.02 0.02 0.02 0.01 0.01 0.01 0.03 0.07 0.10 0.11
0.00 0.00 0.01 0.00 0.00 0.00 0.00 0.00 0.00 0.00 0.00 0.00 0.00 0.00 0.00 0.00 0.00 0.00 0.00 0.01 0.01 0.02 0.02 0.03 0.09 0.13 0.14 0.13 0.18 0.22 0.09 0.03 0.03 0.02 0.02 0.02 0.01 0.01 0.03 0.08 0.12 0.14 0.16
0.00 0.00 0.00 0.00 0.00 0.00 0.00 0.00 0.00 0.00 0.00 0.00 0.00 0.00 0.00 0.00 0.00 0.00 0.00 0.00 0.00 0.01 0.01 0.02 0.03 0.07 0.09 0.07 0.05 0.06 0.08 0.08 0.06 0.03 0.02 0.01 0.01 0.02 0.05 0.09 0.17 0.23 0.21
0.00 0.00 0.00 0.00 0.00 0.00 0.00 0.00 0.00 0.00 0.00 0.00 0.00 0.00 0.00 0.00 0.00 0.00 0.00 0.00 0.01 0.01 0.02 0.04 0.05 0.06 0.07 0.07 0.07 0.08 0.10 0.11 0.08 0.05 0.02 0.01 0.03 0.03 0.06 0.11 0.20 0.24 0.21
0.00 0.00 0.00 0.00 0.01 0.01 0.00 0.00 0.00 0.00 0.00 0.00 0.00 0.00 0.00 0.00 0.00 0.00 0.00 0.01 0.01 0.01 0.03 0.04 0.04 0.06 0.08 0.10 0.12 0.13 0.13 0.11 0.07 0.06 0.04 0.03 0.06 0.09 0.17 0.23 0.27 0.30 0.27

GEFSSE_prec_meanprecacc_018.txt.gz
Total_Precipitation_Accumulation
0.00 0.00 0.00 0.00 0.00 0.00 0.00 0.00 0.00 0.00 0.00 0.00 0.00 0.00 0.00 0.00 0.00 0.00 0.00 0.00 0.00 0.01 0.00 0.00 0.00 0.01 0.01 0.01 0.00 0.00 0.00 0.00 0.00 0.00 0.00 0.01 0.01 0.01 0.01 0.01 0.03 0.07 0.02
0.00 0.00 0.00 0.00 0.00 0.00 0.00 0.00 0.00 0.00 0.00 0.00 0.00 0.00 0.00 0.00 0.00 0.00 0.00 0.00 0.00 0.00 0.00 0.00 0.00 0.00 0.00 0.00 0.00 0.00 0.00 0.00 0.01 0.00 0.00 0.00 0.01 0.01 0.00 0.00 0.02 0.04 0.00
0.00 0.00 0.00 0.00 0.00 0.00 0.00 0.00 0.00 0.00 0.00 0.00 0.00 0.00 0.00 0.00 0.00 0.00 0.00 0.00 0.00 0.00 0.00 0.00 0.00 0.00 0.00 0.00 0.00 0.00 0.00 0.00 0.00 0.00 0.00 0.01 0.00 0.00 0.00 0.00 0.00 0.00 0.00
0.00 0.00 0.00 0.00 0.00 0.00 0.00 0.00 0.00 0.00 0.00 0.00 0.00 0.00 0.00 0.00 0.00 0.00 0.00 0.00 0.00 0.00 0.00 0.00 0.00 0.00 0.00 0.00 0.00 0.00 0.00 0.00 0.00 0.00 0.02 0.05 0.01 0.00 0.00 0.00 0.00 0.00 0.00
0.00 0.00 0.00 0.00 0.00 0.00 0.00 0.00 0.00 0.00 0.00 0.00 0.00 0.00 0.00 0.00 0.00 0.00 0.00 0.00 0.00 0.00 0.00 0.00 0.00 0.00 0.00 0.00 0.00 0.00 0.00 0.00 0.00 0.00 0.01 0.06 0.04 0.01 0.01 0.00 0.00 0.00 0.00
0.00 0.00 0.00 0.00 0.00 0.00 0.00 0.00 0.00 0.00 0.00 0.00 0.00 0.00 0.00 0.00 0.00 0.00 0.00 0.00 0.00 0.00 0.00 0.00 0.00 0.00 0.00 0.00 0.00 0.00 0.00 0.00 0.00 0.00 0.00 0.01 0.07 0.05 0.03 0.03 0.01 0.00 0.00
0.00 0.00 0.00 0.00 0.00 0.00 0.00 0.00 0.00 0.00 0.00 0.00 0.00 0.00 0.00 0.00 0.00 0.00 0.00 0.00 0.00 0.00 0.00 0.00 0.00 0.00 0.00 0.00 0.00 0.00 0.00 0.00 0.00 0.00 0.01 0.02 0.06 0.05 0.13 0.23 0.17 0.12 0.07
0.00 0.00 0.00 0.00 0.00 0.00 0.00 0.00 0.00 0.00 0.00 0.00 0.00 0.00 0.00 0.00 0.00 0.00 0.00 0.00 0.00 0.00 0.00 0.00 0.00 0.00 0.00 0.00 0.00 0.01 0.03 0.03 0.02 0.03 0.02 0.02 0.03 0.04 0.21 0.34 0.32 0.32 0.28
0.00 0.00 0.00 0.00 0.00 0.00 0.00 0.00 0.00 0.00 0.00 0.00 0.00 0.00 0.00 0.00 0.00 0.00 0.00 0.00 0.00 0.00 0.00 0.00 0.00 0.00 0.00 0.01 0.01 0.02 0.05 0.05 0.03 0.06 0.03 0.02 0.04 0.06 0.17 0.21 0.19 0.27 0.28
0.00 0.00 0.01 0.01 0.00 0.00 0.00 0.00 0.00 0.00 0.00 0.00 0.00 0.00 0.00 0.00 0.00 0.00 0.00 0.00 0.00 0.00 0.00 0.00 0.00 0.00 0.01 0.01 0.02 0.03 0.05 0.03 0.01 0.02 0.02 0.02 0.05 0.10 0.14 0.12 0.17 0.22 0.21
0.01 0.01 0.01 0.01 0.00 0.00 0.00 0.00 0.00 0.00 0.00 0.00 0.01 0.01 0.00 0.00 0.00 0.01 0.02 0.02 0.01 0.02 0.02 0.02 0.03 0.03 0.04 0.02 0.03 0.10 0.07 0.00 0.00 0.00 0.00 0.02 0.03 0.05 0.07 0.09 0.15 0.19 0.21
0.00 0.00 0.00 0.00 0.00 0.00 0.00 0.01 0.01 0.01 0.02 0.01 0.02 0.05 0.05 0.05 0.04 0.02 0.06 0.08 0.06 0.07 0.07 0.11 0.19 0.17 0.12 0.04 0.12 0.32 0.09 0.02 0.01 0.01 0.01 0.02 0.07 0.11 0.09 0.07 0.09 0.12 0.18
0.00 0.00 0.00 0.00 0.00 0.00 0.00 0.00 0.00 0.01 0.08 0.09 0.09 0.16 0.21 0.20 0.16 0.10 0.14 0.16 0.17 0.19 0.25 0.37 0.39 0.21 0.14 0.16 0.16 0.22 0.13 0.10 0.08 0.09 0.07 0.14 0.19 0.22 0.19 0.16 0.15 0.15 0.16
0.00 0.00 0.00 0.00 0.00 0.00 0.00 0.01 0.02 0.03 0.07 0.11 0.14 0.15 0.24 0.21 0.21 0.21 0.18 0.13 0.19 0.29 0.43 0.36 0.33 0.28 0.26 0.22 0.23 0.26 0.22 0.18 0.14 0.19 0.27 0.29 0.28 0.25 0.25 0.22 0.18 0.19 0.22
0.00 0.00 0.00 0.00 0.00 0.00 0.01 0.03 0.03 0.04 0.05 0.06 0.13 0.15 0.30 0.42 0.40 0.41 0.28 0.25 0.20 0.39 0.56 0.55 0.46 0.46 0.42 0.38 0.30 0.25 0.25 0.22 0.18 0.18 0.20 0.22 0.21 0.19 0.20 0.22 0.21 0.22 0.23
0.00 0.00 0.01 0.00 0.01 0.02 0.04 0.07 0.11 0.11 0.10 0.10 0.18 0.30 0.61 0.71 0.59 0.55 0.49 0.47 0.38 0.49 0.66 0.75 0.67 0.72 0.56 0.53 0.36 0.28 0.26 0.24 0.25 0.25 0.20 0.21 0.21 0.18 0.15 0.21 0.25 0.23 0.22
0.00 0.00 0.01 0.02 0.05 0.13 0.18 0.20 0.23 0.22 0.21 0.26 0.42 0.57 0.75 0.93 0.99 1.09 0.99 0.72 0.59 0.70 0.78 0.72 0.69 0.90 0.70 0.62 0.50 0.51 0.46 0.37 0.33 0.31 0.27 0.23 0.17 0.19 0.17 0.18 0.23 0.23 0.23
0.00 0.01 0.03 0.06 0.17 0.38 0.40 0.39 0.38 0.39 0.41 0.46 0.61 0.67 0.66 0.81 1.00 1.10 0.86 0.57 0.61 0.83 0.92 0.83 0.80 0.96 0.87 0.74 0.63 0.60 0.52 0.40 0.30 0.26 0.21 0.16 0.11 0.06 0.07 0.12 0.20 0.24 0.29
0.01 0.03 0.10 0.18 0.28 0.35 0.37 0.37 0.37 0.37 0.36 0.39 0.48 0.49 0.44 0.40 0.51 0.62 0.44 0.36 0.50 0.64 0.58 0.48 0.60 0.78 0.76 0.74 0.70 0.47 0.35 0.26 0.18 0.15 0.11 0.07 0.07 0.06 0.03 0.06 0.16 0.25 0.29
0.04 0.04 0.11 0.16 0.17 0.19 0.26 0.31 0.27 0.26 0.25 0.24 0.28 0.28 0.21 0.17 0.20 0.26 0.25 0.20 0.28 0.28 0.21 0.31 0.46 0.56 0.45 0.48 0.50 0.30 0.22 0.18 0.16 0.14 0.10 0.06 0.05 0.04 0.02 0.03 0.10 0.18 0.24
0.08 0.05 0.05 0.07 0.09 0.11 0.15 0.16 0.14 0.12 0.12 0.13 0.16 0.18 0.13 0.12 0.08 0.10 0.10 0.10 0.14 0.11 0.06 0.16 0.28 0.25 0.15 0.31 0.35 0.19 0.11 0.08 0.09 0.09 0.08 0.04 0.03 0.03 0.02 0.04 0.07 0.12 0.16
0.21 0.09 0.05 0.05 0.06 0.05 0.05 0.05 0.05 0.05 0.04 0.03 0.02 0.02 0.02 0.02 0.02 0.02 0.03 0.04 0.04 0.05 0.03 0.06 0.17 0.21 0.17 0.25 0.28 0.21 0.09 0.05 0.04 0.02 0.03 0.03 0.01 0.01 0.01 0.04 0.10 0.14 0.17
0.48 0.17 0.03 0.02 0.02 0.01 0.01 0.00 0.00 0.00 0.00 0.00 0.00 0.00 0.00 0.00 0.00 0.00 0.00 0.01 0.01 0.02 0.02 0.04 0.10 0.14 0.15 0.14 0.19 0.23 0.10 0.03 0.03 0.03 0.03 0.03 0.03 0.02 0.04 0.09 0.15 0.23 0.30
0.56 0.20 0.05 0.02 0.02 0.01 0.01 0.01 0.01 0.00 0.00 0.00 0.00 0.00 0.01 0.00 0.00 0.00 0.00 0.00 0.01 0.01 0.03 0.03 0.05 0.09 0.12 0.09 0.08 0.10 0.12 0.12 0.09 0.04 0.03 0.02 0.03 0.03 0.06 0.10 0.19 0.29 0.32
0.28 0.15 0.08 0.07 0.09 0.08 0.06 0.06 0.04 0.01 0.00 0.00 0.00 0.00 0.00 0.00 0.00 0.00 0.00 0.00 0.01 0.02 0.04 0.06 0.07 0.09 0.11 0.11 0.12 0.13 0.16 0.20 0.17 0.12 0.05 0.03 0.07 0.07 0.09 0.13 0.23 0.30 0.31
0.13 0.08 0.05 0.06 0.10 0.11 0.08 0.07 0.07 0.05 0.04 0.02 0.01 0.01 0.00 0.00 0.00 0.00 0.00 0.01 0.01 0.02 0.03 0.05 0.06 0.08 0.12 0.15 0.18 0.18 0.19 0.18 0.16 0.18 0.13 0.10 0.12 0.13 0.23 0.31 0.36 0.40 0.39

GEFSSE_prec_meanprecacc_024.txt.gz
Total_Precipitation_Accumulation
0.00 0.00 0.00 0.00 0.00 0.00 0.00 0.00 0.00 0.00 0.00 0.00 0.00 0.00 0.00 0.00 0.00 0.00 0.00 0.00 0.01 0.01 0.01 0.00 0.01 0.01 0.01 0.01 0.00 0.00 0.00 0.00 0.00 0.00 0.00 0.01 0.01 0.01 0.01 0.01 0.03 0.07 0.02
0.00 0.00 0.00 0.00 0.00 0.00 0.00 0.00 0.00 0.00 0.00 0.00 0.00 0.00 0.00 0.00 0.00 0.00 0.00 0.01 0.01 0.01 0.00 0.00 0.00 0.00 0.00 0.00 0.00 0.00 0.00 0.00 0.01 0.00 0.00 0.01 0.01 0.01 0.01 0.00 0.03 0.04 0.01
0.00 0.00 0.00 0.00 0.00 0.00 0.00 0.00 0.00 0.00 0.00 0.00 0.00 0.00 0.00 0.00 0.00 0.00 0.00 0.00 0.00 0.00 0.00 0.00 0.00 0.00 0.00 0.00 0.00 0.00 0.00 0.00 0.00 0.00 0.00 0.01 0.00 0.01 0.01 0.00 0.00 0.00 0.00
0.00 0.00 0.00 0.00 0.00 0.00 0.00 0.00 0.00 0.00 0.00 0.00 0.00 0.00 0.00 0.00 0.00 0.00 0.00 0.00 0.00 0.00 0.00 0.00 0.00 0.00 0.00 0.00 0.00 0.00 0.00 0.00 0.00 0.00 0.04 0.10 0.02 0.01 0.01 0.00 0.00 0.00 0.00
0.00 0.00 0.00 0.00 0.00 0.00 0.00 0.00 0.00 0.00 0.00 0.00 0.00 0.00 0.00 0.00 0.00 0.00 0.00 0.00 0.00 0.00 0.00 0.00 0.00 0.00 0.00 0.00 0.00 0.00 0.00 0.00 0.00 0.00 0.03 0.16 0.09 0.02 0.02 0.01 0.00 0.00 0.00
0.00 0.00 0.00 0.00 0.00 0.00 0.00 0.00 0.00 0.00 0.00 0.00 0.00 0.00 0.00 0.00 0.00 0.00 0.00 0.00 0.00 0.00 0.00 0.00 0.00 0.00 0.00 0.00 0.00 0.00 0.00 0.00 0.00 0.00 0.01 0.04 0.10 0.08 0.05 0.05 0.01 0.00 0.00
0.00 0.00 0.00 0.00 0.00 0.00 0.00 0.00 0.00 0.00 0.00 0.00 0.00 0.00 0.00 0.00 0.00 0.00 0.00 0.00 0.00 0.00 0.00 0.00 0.00 0.00 0.00 0.00 0.00 0.00 0.00 0.00 0.00 0.00 0.01 0.03 0.08 0.09 0.17 0.26 0.18 0.12 0.07
0.00 0.00 0.00 0.00 0.00 0.00 0.00 0.00 0.00 0.00 0.00 0.00 0.00 0.00 0.00 0.00 0.00 0.00 0.00 0.00 0.00 0.00 0.00 0.00 0.00 0.00 0.00 0.00 0.00 0.01 0.03 0.03 0.02 0.03 0.02 0.03 0.06 0.09 0.27 0.38 0.34 0.33 0.28
0.00 0.00 0.00 0.00 0.00 0.00 0.00 0.00 0.00 0.00 0.00 0.00 0.00 0.00 0.00 0.00 0.00 0.00 0.00 0.00 0.00 0.00 0.00 0.00 0.00 0.00 0.00 0.01 0.01 0.02 0.05 0.05 0.03 0.06 0.03 0.03 0.06 0.11 0.25 0.26 0.23 0.29 0.30
0.00 0.00 0.01 0.01 0.00 0.00 0.00 0.00 0.00 0.00 0.00 0.00 0.00 0.00 0.00 0.00 0.00 0.00 0.00 0.00 0.00 0.00 0.00 0.00 0.00 0.00 0.01 0.01 0.02 0.03 0.05 0.03 0.01 0.02 0.02 0.03 0.07 0.19 0.26 0.22 0.25 0.29 0.26
0.01 0.01 0.01 0.01 0.00 0.00 0.00 0.00 0.00 0.00 0.00 0.00 0.01 0.01 0.00 0.00 0.00 0.01 0.02 0.05 0.05 0.07 0.07 0.05 0.05 0.04 0.05 0.03 0.03 0.11 0.08 0.01 0.01 0.02 0.02 0.02 0.07 0.17 0.23 0.23 0.26 0.27 0.27
0.01 0.01 0.00 0.00 0.00 0.00 0.00 0.01 0.01 0.01 0.02 0.01 0.02 0.05 0.05 0.05 0.04 0.02 0.08 0.15 0.17 0.21 0.19 0.21 0.30 0.26 0.17 0.08 0.16 0.40 0.16 0.06 0.07 0.08 0.08 0.07 0.14 0.27 0.28 0.22 0.19 0.19 0.22
0.01 0.01 0.01 0.00 0.00 0.00 0.00 0.00 0.00 0.01 0.08 0.09 0.09 0.16 0.22 0.20 0.17 0.12 0.19 0.26 0.30 0.34 0.35 0.53 0.61 0.39 0.30 0.30 0.31 0.40 0.30 0.25 0.25 0.33 0.32 0.37 0.39 0.46 0.44 0.33 0.26 0.23 0.22
0.03 0.03 0.03 0.02 0.01 0.00 0.00 0.01 0.02 0.03 0.08 0.12 0.16 0.20 0.30 0.26 0.26 0.28 0.26 0.21 0.28 0.37 0.53 0.48 0.50 0.57 0.61 0.50 0.48 0.53 0.50 0.41 0.39 0.56 0.76 0.76 0.69 0.61 0.63 0.52 0.36 0.29 0.27
0.07 0.06 0.07 0.07 0.04 0.02 0.02 0.03 0.04 0.05 0.06 0.09 0.17 0.21 0.41 0.55 0.51 0.53 0.42 0.36 0.29 0.50 0.70 0.72 0.67 0.79 0.86 0.76 0.59 0.55 0.58 0.51 0.44 0.44 0.47 0.57 0.60 0.55 0.59 0.57 0.41 0.35 0.31
0.14 0.18 0.23 0.22 0.17 0.11 0.08 0.09 0.13 0.14 0.13 0.16 0.25 0.38 0.76 0.87 0.70 0.68 0.62 0.59 0.48 0.61 0.81 0.93 0.87 0.97 0.88 0.82 0.58 0.49 0.49 0.47 0.43 0.42 0.38 0.40 0.44 0.44 0.40 0.45 0.45 0.40 0.34
0.37 0.50 0.64 0.65 0.46 0.36 0.30 0.26 0.29 0.29 0.28 0.33 0.48 0.65 0.89 1.06 1.09 1.18 1.06 0.78 0.65 0.78 0.88 0.84 0.80 1.02 0.82 0.74 0.61 0.61 0.55 0.46 0.44 0.40 0.39 0.36 0.32 0.37 0.31 0.31 0.39 0.39 0.37
0.83 1.13 1.37 1.35 1.10 0.93 0.72 0.55 0.49 0.50 0.53 0.56 0.68 0.72 0.70 0.86 1.03 1.14 0.88 0.60 0.65 0.87 0.97 0.88 0.85 1.01 0.92 0.78 0.67 0.64 0.55 0.43 0.34 0.32 0.29 0.26 0.22 0.14 0.14 0.22 0.32 0.37 0.43
1.31 1.80 2.27 2.32 1.83 1.26 0.86 0.63 0.55 0.54 0.50 0.50 0.54 0.52 0.45 0.41 0.52 0.63 0.45 0.37 0.51 0.65 0.59 0.49 0.62 0.80 0.79 0.77 0.72 0.48 0.36 0.28 0.19 0.17 0.15 0.11 0.12 0.13 0.09 0.12 0.24 0.33 0.42
1.62 2.22 2.64 2.76 2.14 1.38 0.96 0.72 0.55 0.46 0.38 0.31 0.32 0.29 0.21 0.17 0.20 0.27 0.25 0.20 0.28 0.28 0.21 0.31 0.46 0.56 0.46 0.49 0.51 0.30 0.22 0.18 0.17 0.15 0.11 0.07 0.07 0.07 0.06 0.07 0.14 0.23 0.32
2.08 2.72 2.94 2.67 1.94 1.39 1.00 0.71 0.42 0.26 0.19 0.16 0.18 0.18 0.14 0.12 0.08 0.10 0.10 0.10 0.14 0.11 0.06 0.16 0.28 0.25 0.15 0.31 0.35 0.19 0.11 0.08 0.09 0.09 0.08 0.05 0.04 0.04 0.04 0.07 0.10 0.16 0.20
2.20 2.39 2.29 1.91 1.31 0.92 0.62 0.36 0.20 0.14 0.08 0.05 0.03 0.02 0.02 0.02 0.02 0.02 0.03 0.04 0.04 0.05 0.03 0.06 0.17 0.21 0.17 0.25 0.28 0.21 0.09 0.05 0.04 0.03 0.04 0.04 0.02 0.04 0.04 0.07 0.14 0.20 0.24
1.94 1.67 1.27 0.92 0.64 0.51 0.31 0.16 0.09 0.05 0.02 0.01 0.01 0.01 0.01 0.00 0.00 0.00 0.00 0.01 0.01 0.02 0.02 0.04 0.10 0.14 0.15 0.14 0.19 0.24 0.11 0.03 0.04 0.03 0.03 0.05 0.06 0.06 0.09 0.15 0.23 0.32 0.41
1.27 0.87 0.56 0.43 0.33 0.27 0.19 0.15 0.12 0.07 0.04 0.04 0.03 0.02 0.01 0.00 0.00 0.00 0.00 0.00 0.01 0.01 0.03 0.03 0.05 0.10 0.12 0.09 0.08 0.11 0.13 0.13 0.10 0.04 0.03 0.03 0.05 0.08 0.14 0.20 0.30 0.39 0.45
0.52 0.46 0.43 0.34 0.34 0.32 0.25 0.21 0.16 0.11 0.08 0.07 0.06 0.04 0.04 0.02 0.01 0.01 0.00 0.01 0.01 0.02 0.04 0.06 0.07 0.09 0.11 0.11 0.12 0.13 0.17 0.21 0.19 0.13 0.05 0.03 0.07 0.10 0.18 0.29 0.38 0.42 0.45
0.22 0.23 0.24 0.23 0.30 0.35 0.33 0.27 0.23 0.18 0.13 0.10 0.08 0.07 0.06 0.05 0.03 0.02 0.01 0.02 0.02 0.02 0.03 0.05 0.06 0.08 0.12 0.15 0.18 0.18 0.20 0.18 0.16 0.19 0.14 0.10 0.12 0.14 0.28 0.44 0.49 0.54 0.54

GEFSSE_prec_meanprecacc_030.txt.gz
Total_Precipitation_Accumulation
0.00 0.00 0.00 0.00 0.00 0.00 0.00 0.00 0.00 0.00 0.00 0.00 0.00 0.00 0.00 0.00 0.00 0.00 0.00 0.00 0.01 0.01 0.01 0.01 0.01 0.01 0.01 0.01 0.00 0.00 0.00 0.00 0.00 0.01 0.01 0.02 0.03 0.04 0.03 0.02 0.04 0.08 0.04
0.00 0.00 0.00 0.00 0.00 0.00 0.00 0.00 0.00 0.00 0.00 0.00 0.00 0.00 0.00 0.00 0.00 0.00 0.00 0.01 0.01 0.01 0.01 0.01 0.01 0.01 0.01 0.00 0.00 0.00 0.00 0.00 0.01 0.01 0.01 0.02 0.04 0.04 0.02 0.01 0.03 0.05 0.02
0.00 0.00 0.00 0.00 0.00 0.00 0.00 0.00 0.00 0.00 0.00 0.00 0.00 0.00 0.00 0.00 0.00 0.00 0.00 0.00 0.00 0.00 0.00 0.01 0.01 0.01 0.00 0.00 0.00 0.00 0.00 0.00 0.00 0.00 0.01 0.01 0.02 0.03 0.03 0.01 0.00 0.00 0.01
0.00 0.00 0.00 0.00 0.00 0.00 0.00 0.00 0.00 0.00 0.00 0.00 0.00 0.00 0.00 0.00 0.00 0.00 0.00 0.00 0.00 0.00 0.00 0.00 0.00 0.00 0.00 0.00 0.00 0.00 0.00 0.00 0.00 0.00 0.04 0.10 0.02 0.02 0.02 0.00 0.00 0.00 0.00
0.00 0.00 0.00 0.00 0.00 0.00 0.00 0.00 0.00 0.00 0.00 0.00 0.00 0.00 0.00 0.00 0.00 0.00 0.00 0.00 0.00 0.00 0.00 0.00 0.00 0.00 0.00 0.00 0.00 0.00 0.00 0.00 0.00 0.00 0.03 0.16 0.09 0.03 0.03 0.01 0.00 0.00 0.00
0.00 0.00 0.00 0.00 0.00 0.00 0.00 0.00 0.00 0.00 0.00 0.00 0.00 0.00 0.00 0.00 0.00 0.01 0.01 0.00 0.00 0.00 0.00 0.00 0.00 0.00 0.00 0.00 0.00 0.00 0.00 0.00 0.00 0.00 0.01 0.05 0.11 0.09 0.07 0.06 0.02 0.00 0.00
0.00 0.00 0.00 0.00 0.00 0.00 0.00 0.00 0.00 0.00 0.00 0.00 0.00 0.00 0.00 0.00 0.00 0.00 0.00 0.00 0.00 0.00 0.00 0.00 0.00 0.00 0.00 0.00 0.00 0.00 0.00 0.00 0.00 0.01 0.01 0.03 0.09 0.10 0.21 0.32 0.22 0.14 0.07
0.00 0.00 0.00 0.00 0.00 0.00 0.00 0.00 0.00 0.00 0.00 0.00 0.00 0.00 0.00 0.00 0.00 0.00 0.00 0.00 0.00 0.00 0.00 0.00 0.00 0.00 0.00 0.00 0.00 0.01 0.03 0.03 0.02 0.04 0.03 0.04 0.06 0.09 0.32 0.47 0.42 0.39 0.31
0.00 0.00 0.01 0.00 0.00 0.00 0.00 0.00 0.00 0.00 0.00 0.00 0.00 0.00 0.00 0.00 0.00 0.00 0.00 0.00 0.00 0.00 0.00 0.00 0.00 0.00 0.00 0.01 0.01 0.02 0.05 0.05 0.03 0.07 0.03 0.04 0.06 0.12 0.30 0.35 0.33 0.41 0.39
0.00 0.01 0.01 0.01 0.01 0.00 0.00 0.00 0.00 0.00 0.00 0.00 0.00 0.00 0.00 0.00 0.00 0.00 0.00 0.00 0.00 0.01 0.01 0.01 0.01 0.01 0.01 0.01 0.02 0.03 0.05 0.03 0.01 0.03 0.02 0.03 0.08 0.22 0.34 0.33 0.36 0.41 0.39
0.01 0.01 0.01 0.01 0.01 0.01 0.01 0.02 0.02 0.02 0.02 0.01 0.01 0.01 0.01 0.00 0.00 0.01 0.02 0.05 0.06 0.08 0.08 0.07 0.07 0.06 0.07 0.04 0.04 0.11 0.09 0.01 0.01 0.03 0.02 0.03 0.08 0.20 0.34 0.40 0.41 0.38 0.39
0.01 0.01 0.01 0.01 0.01 0.02 0.02 0.03 0.03 0.04 0.05 0.03 0.03 0.05 0.05 0.06 0.04 0.02 0.08 0.16 0.19 0.27 0.29 0.34 0.45 0.37 0.24 0.11 0.19 0.44 0.18 0.07 0.08 0.11 0.11 0.08 0.16 0.30 0.36 0.37 0.35 0.32 0.34
0.03 0.03 0.03 0.02 0.01 0.02 0.02 0.02 0.02 0.04 0.11 0.12 0.11 0.17 0.22 0.21 0.17 0.12 0.20 0.29 0.37 0.49 0.51 0.71 0.83 0.50 0.39 0.39 0.38 0.46 0.34 0.28 0.28 0.39 0.37 0.41 0.44 0.51 0.51 0.44 0.40 0.37 0.35
0.09 0.10 0.12 0.10 0.06 0.04 0.03 0.03 0.03 0.06 0.10 0.15 0.20 0.24 0.33 0.30 0.29 0.32 0.32 0.28 0.38 0.52 0.72 0.70 0.70 0.73 0.78 0.65 0.61 0.65 0.57 0.47 0.46 0.65 0.85 0.84 0.79 0.71 0.73 0.64 0.50 0.45 0.44
0.20 0.24 0.28 0.30 0.23 0.19 0.14 0.10 0.08 0.09 0.11 0.15 0.25 0.31 0.51 0.66 0.63 0.68 0.54 0.50 0.44 0.68 0.94 1.00 0.91 1.00 1.10 1.00 0.77 0.68 0.69 0.62 0.55 0.56 0.59 0.66 0.75 0.68 0.72 0.72 0.57 0.54 0.52
0.33 0.46 0.55 0.62 0.58 0.52 0.43 0.32 0.29 0.28 0.28 0.32 0.44 0.59 0.96 1.06 0.91 0.90 0.82 0.78 0.64 0.78 0.98 1.11 1.03 1.13 1.05 1.01 0.71 0.59 0.62 0.61 0.54 0.50 0.45 0.46 0.53 0.54 0.51 0.58 0.62 0.60 0.55
0.65 0.84 1.02 1.15 1.10 1.04 0.95 0.80 0.68 0.59 0.56 0.63 0.81 0.97 1.17 1.29 1.31 1.42 1.28 0.95 0.77 0.89 0.97 0.93 0.90 1.10 0.89 0.82 0.69 0.70 0.65 0.54 0.52 0.48 0.44 0.40 0.35 0.42 0.38 0.40 0.52 0.56 0.56
1.12 1.48 1.80 1.95 1.98 1.94 1.66 1.38 1.19 1.10 1.04 1.09 1.14 1.08 1.01 1.12 1.25 1.35 1.04 0.70 0.72 0.93 1.02 0.93 0.89 1.05 0.96 0.83 0.71 0.68 0.59 0.46 0.37 0.35 0.31 0.28 0.23 0.16 0.16 0.28 0.41 0.49 0.61
1.56 2.12 2.63 2.83 2.67 2.45 1.96 1.56 1.29 1.33 1.31 1.26 1.11 0.88 0.72 0.63 0.67 0.74 0.53 0.42 0.54 0.67 0.61 0.51 0.63 0.81 0.80 0.79 0.74 0.51 0.39 0.30 0.21 0.19 0.16 0.12 0.13 0.14 0.11 0.14 0.28 0.40 0.54
1.76 2.36 2.80 3.06 2.76 2.29 1.96 1.74 1.42 1.29 1.19 1.10 0.87 0.62 0.43 0.35 0.31 0.34 0.29 0.22 0.29 0.29 0.22 0.31 0.47 0.57 0.46 0.50 0.52 0.31 0.24 0.20 0.18 0.15 0.11 0.08 0.07 0.08 0.07 0.09 0.16 0.25 0.38
2.13 2.79 3.05 2.84 2.23 1.81 1.56 1.39 1.18 1.00 0.85 0.70 0.59 0.45 0.33 0.28 0.20 0.16 0.12 0.11 0.15 0.11 0.06 0.16 0.28 0.25 0.15 0.32 0.36 0.19 0.11 0.08 0.09 0.09 0.08 0.05 0.04 0.04 0.05 0.07 0.11 0.18 0.21
2.22 2.42 2.36 2.00 1.44 1.10 0.88 0.74 0.58 0.48 0.44 0.38 0.29 0.22 0.19 0.15 0.11 0.08 0.06 0.04 0.04 0.05 0.03 0.06 0.17 0.21 0.17 0.25 0.28 0.21 0.09 0.05 0.04 0.03 0.04 0.04 0.02 0.04 0.04 0.08 0.14 0.20 0.25
1.94 1.68 1.28 0.93 0.66 0.57 0.44 0.36 0.25 0.19 0.18 0.17 0.16 0.14 0.11 0.09 0.07 0.05 0.04 0.02 0.01 0.02 0.02 0.04 0.10 0.14 0.15 0.14 0.19 0.24 0.11 0.03 0.04 0.03 0.03 0.05 0.06 0.06 0.09 0.15 0.23 0.32 0.41
1.27 0.87 0.57 0.43 0.35 0.30 0.25 0.23 0.21 0.16 0.15 0.14 0.14 0.14 0.13 0.09 0.08 0.06 0.04 0.02 0.02 0.02 0.03 0.03 0.05 0.10 0.12 0.09 0.08 0.11 0.13 0.13 0.10 0.04 0.03 0.03 0.05 0.08 0.14 0.20 0.30 0.39 0.45
0.52 0.46 0.43 0.35 0.35 0.34 0.29 0.25 0.23 0.19 0.17 0.17 0.18 0.18 0.20 0.20 0.16 0.13 0.10 0.07 0.05 0.04 0.05 0.06 0.07 0.09 0.11 0.11 0.12 0.13 0.17 0.21 0.19 0.13 0.05 0.03 0.07 0.10 0.18 0.29 0.38 0.42 0.45
0.22 0.23 0.24 0.24 0.31 0.37 0.35 0.31 0.27 0.23 0.20 0.18 0.17 0.17 0.19 0.21 0.22 0.21 0.18 0.16 0.13 0.11 0.09 0.07 0.07 0.08 0.12 0.16 0.18 0.18 0.20 0.18 0.16 0.19 0.14 0.10 0.12 0.14 0.28 0.44 0.49 0.54 0.54

GEFSSE_prec_meanprecacc_036.txt.gz
Total_Precipitation_Accumulation
0.00 0.00 0.00 0.00 0.00 0.00 0.00 0.00 0.00 0.00 0.00 0.00 0.00 0.00 0.00 0.00 0.00 0.00 0.00 0.00 0.01 0.01 0.01 0.01 0.01 0.01 0.01 0.01 0.01 0.01 0.00 0.00 0.00 0.01 0.01 0.03 0.04 0.05 0.06 0.05 0.08 0.12 0.06
0.00 0.00 0.00 0.00 0.00 0.00 0.00 0.00 0.00 0.00 0.00 0.00 0.00 0.00 0.00 0.00 0.00 0.00 0.00 0.01 0.01 0.01 0.01 0.01 0.01 0.01 0.01 0.00 0.00 0.00 0.00 0.01 0.01 0.01 0.02 0.03 0.05 0.05 0.03 0.01 0.06 0.10 0.04
0.00 0.00 0.00 0.00 0.00 0.00 0.00 0.00 0.00 0.00 0.00 0.00 0.00 0.00 0.00 0.00 0.00 0.00 0.00 0.01 0.01 0.01 0.01 0.01 0.01 0.01 0.00 0.00 0.00 0.00 0.00 0.01 0.01 0.02 0.03 0.04 0.03 0.04 0.03 0.01 0.01 0.02 0.02
0.00 0.00 0.00 0.00 0.00 0.00 0.00 0.00 0.00 0.00 0.00 0.00 0.00 0.00 0.00 0.00 0.00 0.00 0.00 0.00 0.00 0.01 0.01 0.01 0.01 0.00 0.00 0.00 0.00 0.00 0.01 0.01 0.01 0.02 0.07 0.12 0.04 0.02 0.02 0.01 0.01 0.01 0.01
0.00 0.00 0.00 0.00 0.00 0.00 0.00 0.00 0.00 0.00 0.00 0.00 0.00 0.00 0.00 0.00 0.01 0.01 0.01 0.01 0.01 0.01 0.01 0.01 0.01 0.01 0.00 0.00 0.00 0.00 0.00 0.01 0.01 0.01 0.04 0.17 0.14 0.05 0.03 0.01 0.00 0.00 0.01
0.00 0.00 0.00 0.00 0.00 0.00 0.00 0.00 0.00 0.00 0.00 0.00 0.00 0.00 0.00 0.01 0.01 0.01 0.01 0.01 0.01 0.01 0.01 0.01 0.01 0.01 0.00 0.00 0.00 0.00 0.00 0.00 0.01 0.01 0.01 0.06 0.14 0.11 0.08 0.07 0.02 0.01 0.00
0.00 0.00 0.00 0.00 0.00 0.00 0.00 0.00 0.00 0.00 0.00 0.00 0.00 0.00 0.00 0.01 0.01 0.01 0.01 0.01 0.01 0.01 0.01 0.01 0.01 0.01 0.00 0.00 0.00 0.00 0.00 0.00 0.01 0.03 0.03 0.05 0.10 0.11 0.23 0.34 0.22 0.14 0.07
0.00 0.00 0.01 0.01 0.01 0.00 0.00 0.00 0.00 0.00 0.00 0.00 0.00 0.00 0.00 0.00 0.01 0.01 0.01 0.01 0.01 0.01 0.01 0.01 0.00 0.00 0.00 0.00 0.01 0.01 0.03 0.03 0.03 0.06 0.04 0.06 0.08 0.10 0.36 0.53 0.47 0.41 0.32
0.00 0.00 0.01 0.01 0.01 0.01 0.01 0.00 0.00 0.00 0.00 0.00 0.00 0.00 0.00 0.00 0.00 0.01 0.00 0.00 0.00 0.01 0.01 0.01 0.01 0.01 0.00 0.01 0.02 0.02 0.05 0.06 0.04 0.09 0.04 0.05 0.07 0.13 0.36 0.48 0.47 0.49 0.44
0.01 0.01 0.02 0.02 0.02 0.02 0.02 0.02 0.01 0.01 0.01 0.01 0.01 0.01 0.00 0.00 0.00 0.00 0.00 0.01 0.01 0.01 0.01 0.01 0.01 0.01 0.01 0.02 0.02 0.03 0.05 0.03 0.01 0.03 0.02 0.03 0.08 0.24 0.44 0.48 0.53 0.58 0.52
0.01 0.01 0.02 0.02 0.03 0.03 0.03 0.03 0.04 0.04 0.04 0.03 0.03 0.02 0.02 0.01 0.00 0.01 0.02 0.05 0.06 0.08 0.09 0.09 0.09 0.08 0.09 0.06 0.06 0.14 0.12 0.03 0.02 0.03 0.03 0.03 0.08 0.23 0.42 0.53 0.58 0.55 0.55
0.01 0.02 0.02 0.02 0.03 0.04 0.04 0.05 0.07 0.08 0.09 0.08 0.07 0.10 0.09 0.09 0.06 0.03 0.08 0.17 0.20 0.28 0.30 0.37 0.50 0.44 0.32 0.20 0.28 0.52 0.24 0.12 0.12 0.12 0.13 0.10 0.18 0.33 0.41 0.47 0.50 0.48 0.48
0.04 0.04 0.04 0.03 0.02 0.04 0.05 0.04 0.06 0.09 0.17 0.18 0.17 0.24 0.31 0.30 0.24 0.17 0.24 0.31 0.38 0.51 0.56 0.79 0.96 0.61 0.51 0.54 0.56 0.60 0.44 0.36 0.33 0.43 0.40 0.45 0.49 0.57 0.57 0.53 0.53 0.52 0.51
0.10 0.11 0.13 0.11 0.07 0.05 0.05 0.05 0.06 0.09 0.14 0.20 0.25 0.31 0.44 0.40 0.38 0.40 0.40 0.34 0.44 0.56 0.78 0.81 0.88 0.93 1.00 0.87 0.81 0.84 0.76 0.61 0.54 0.73 0.92 0.90 0.89 0.80 0.82 0.73 0.60 0.58 0.60
0.22 0.28 0.31 0.32 0.25 0.20 0.16 0.12 0.10 0.11 0.14 0.18 0.31 0.38 0.61 0.77 0.73 0.80 0.65 0.60 0.53 0.77 1.01 1.11 1.08 1.19 1.33 1.28 1.01 0.87 0.87 0.78 0.66 0.65 0.66 0.73 0.85 0.79 0.82 0.81 0.67 0.66 0.68
0.36 0.50 0.58 0.65 0.61 0.54 0.45 0.34 0.30 0.30 0.30 0.35 0.48 0.67 1.07 1.19 1.06 1.06 0.98 0.92 0.76 0.90 1.14 1.29 1.23 1.35 1.29 1.28 0.92 0.76 0.77 0.80 0.70 0.62 0.54 0.55 0.63 0.65 0.60 0.67 0.73 0.74 0.72
0.69 0.87 1.05 1.19 1.14 1.06 0.97 0.83 0.70 0.61 0.59 0.68 0.88 1.09 1.33 1.46 1.50 1.63 1.47 1.12 0.95 1.09 1.20 1.15 1.11 1.34 1.11 1.05 0.89 0.90 0.84 0.72 0.66 0.60 0.56 0.50 0.44 0.48 0.43 0.46 0.59 0.67 0.70
1.15 1.51 1.83 1.98 2.00 1.96 1.68 1.40 1.21 1.13 1.09 1.17 1.26 1.23 1.19 1.31 1.47 1.58 1.28 0.93 0.96 1.18 1.25 1.14 1.09 1.27 1.20 1.09 0.98 0.92 0.82 0.66 0.54 0.49 0.45 0.37 0.30 0.20 0.20 0.32 0.47 0.57 0.72
1.60 2.15 2.65 2.85 2.68 2.47 1.98 1.59 1.32 1.38 1.41 1.41 1.31 1.12 0.99 0.91 0.93 0.99 0.78 0.66 0.78 0.89 0.78 0.64 0.76 0.95 0.97 0.97 0.91 0.68 0.56 0.45 0.34 0.30 0.24 0.19 0.21 0.19 0.16 0.19 0.30 0.44 0.60
1.79 2.37 2.81 3.06 2.76 2.30 1.97 1.79 1.52 1.41 1.35 1.33 1.17 0.95 0.77 0.69 0.63 0.64 0.53 0.43 0.47 0.43 0.34 0.42 0.56 0.65 0.55 0.59 0.58 0.39 0.32 0.27 0.24 0.21 0.15 0.11 0.11 0.11 0.09 0.12 0.19 0.27 0.39
2.14 2.79 3.05 2.84 2.23 1.82 1.57 1.43 1.25 1.09 0.99 0.92 0.84 0.75 0.65 0.62 0.53 0.47 0.37 0.31 0.30 0.24 0.17 0.24 0.33 0.29 0.18 0.35 0.39 0.23 0.15 0.11 0.12 0.12 0.10 0.07 0.05 0.05 0.05 0.08 0.12 0.20 0.23
2.22 2.42 2.36 2.01 1.44 1.10 0.89 0.75 0.62 0.54 0.53 0.52 0.50 0.49 0.50 0.50 0.48 0.44 0.35 0.27 0.21 0.17 0.13 0.12 0.22 0.24 0.19 0.27 0.29 0.22 0.10 0.06 0.05 0.03 0.04 0.04 0.03 0.04 0.04 0.08 0.14 0.21 0.26
1.94 1.68 1.28 0.93 0.67 0.57 0.44 0.36 0.27 0.23 0.22 0.23 0.25 0.28 0.31 0.31 0.30 0.29 0.26 0.20 0.17 0.15 0.12 0.13 0.16 0.18 0.17 0.15 0.20 0.24 0.11 0.04 0.04 0.03 0.03 0.06 0.07 0.07 0.09 0.16 0.23 0.32 0.42
1.27 0.87 0.57 0.43 0.35 0.30 0.25 0.24 0.22 0.18 0.18 0.19 0.20 0.22 0.23 0.22 0.22 0.22 0.20 0.17 0.15 0.14 0.13 0.11 0.12 0.17 0.16 0.10 0.09 0.12 0.14 0.13 0.10 0.04 0.03 0.03 0.05 0.08 0.14 0.20 0.30 0.39 0.45
0.52 0.46 0.43 0.35 0.35 0.34 0.29 0.25 0.23 0.19 0.18 0.19 0.20 0.21 0.24 0.25 0.23 0.22 0.21 0.18 0.17 0.15 0.14 0.14 0.14 0.16 0.18 0.15 0.13 0.14 0.17 0.21 0.19 0.13 0.05 0.03 0.07 0.10 0.18 0.29 0.38 0.43 0.46
0.22 0.23 0.24 0.24 0.32 0.37 0.36 0.31 0.27 0.23 0.20 0.18 0.17 0.18 0.20 0.22 0.25 0.25 0.25 0.25 0.24 0.22 0.20 0.17 0.15 0.15 0.18 0.22 0.22 0.20 0.21 0.19 0.16 0.19 0.14 0.10 0.12 0.14 0.28 0.44 0.49 0.54 0.54

GEFSSE_prec_meanprecacc_042.txt.gz
Total_Precipitation_Accumulation
0.00 0.00 0.00 0.00 0.00 0.00 0.00 0.00 0.00 0.00 0.00 0.00 0.00 0.00 0.00 0.00 0.00 0.00 0.00 0.00 0.01 0.01 0.01 0.01 0.02 0.01 0.01 0.01 0.01 0.01 0.00 0.00 0.01 0.01 0.02 0.03 0.04 0.05 0.06 0.07 0.16 0.19 0.09
0.00 0.00 0.00 0.00 0.00 0.00 0.00 0.00 0.00 0.00 0.00 0.00 0.00 0.00 0.00 0.00 0.00 0.00 0.00 0.01 0.01 0.01 0.01 0.02 0.01 0.01 0.01 0.01 0.01 0.00 0.00 0.01 0.01 0.01 0.02 0.03 0.05 0.05 0.04 0.05 0.16 0.16 0.07
0.00 0.00 0.00 0.00 0.00 0.00 0.00 0.00 0.00 0.00 0.00 0.00 0.00 0.00 0.00 0.00 0.00 0.00 0.00 0.01 0.01 0.01 0.02 0.02 0.02 0.01 0.01 0.00 0.00 0.00 0.00 0.01 0.01 0.02 0.07 0.08 0.03 0.04 0.05 0.06 0.09 0.05 0.03
0.00 0.00 0.00 0.00 0.00 0.00 0.00 0.00 0.00 0.00 0.00 0.00 0.00 0.00 0.00 0.00 0.00 0.01 0.01 0.01 0.01 0.02 0.02 0.02 0.02 0.01 0.01 0.00 0.00 0.00 0.01 0.01 0.01 0.03 0.19 0.19 0.04 0.03 0.02 0.02 0.02 0.02 0.02
0.00 0.00 0.00 0.00 0.00 0.00 0.00 0.00 0.00 0.00 0.00 0.01 0.01 0.01 0.01 0.01 0.01 0.01 0.01 0.01 0.01 0.02 0.02 0.02 0.02 0.01 0.00 0.00 0.00 0.00 0.00 0.01 0.01 0.04 0.14 0.22 0.19 0.06 0.03 0.01 0.01 0.01 0.02
0.00 0.00 0.00 0.00 0.00 0.00 0.00 0.00 0.00 0.00 0.00 0.00 0.01 0.01 0.01 0.01 0.01 0.01 0.01 0.01 0.02 0.02 0.02 0.02 0.01 0.01 0.00 0.00 0.00 0.00 0.00 0.00 0.01 0.03 0.06 0.10 0.20 0.13 0.08 0.07 0.02 0.01 0.01
0.00 0.00 0.00 0.00 0.00 0.00 0.00 0.00 0.00 0.00 0.00 0.00 0.00 0.01 0.01 0.01 0.01 0.02 0.02 0.02 0.02 0.02 0.02 0.02 0.01 0.01 0.01 0.00 0.00 0.00 0.00 0.00 0.02 0.06 0.05 0.07 0.18 0.12 0.23 0.34 0.22 0.14 0.08
0.00 0.00 0.01 0.01 0.01 0.00 0.00 0.00 0.00 0.00 0.00 0.00 0.00 0.00 0.01 0.01 0.01 0.01 0.01 0.02 0.02 0.02 0.02 0.01 0.01 0.01 0.00 0.00 0.01 0.01 0.03 0.03 0.04 0.08 0.06 0.10 0.11 0.10 0.36 0.54 0.47 0.42 0.32
0.00 0.00 0.01 0.01 0.01 0.01 0.01 0.00 0.00 0.00 0.01 0.00 0.00 0.00 0.00 0.00 0.01 0.01 0.01 0.01 0.01 0.02 0.02 0.01 0.01 0.01 0.01 0.01 0.02 0.02 0.05 0.06 0.05 0.09 0.05 0.07 0.09 0.14 0.37 0.51 0.50 0.51 0.45
0.01 0.01 0.02 0.02 0.02 0.02 0.02 0.02 0.01 0.01 0.01 0.01 0.01 0.01 0.01 0.00 0.00 0.01 0.01 0.01 0.01 0.02 0.02 0.02 0.01 0.01 0.01 0.02 0.02 0.03 0.05 0.04 0.01 0.03 0.02 0.04 0.09 0.25 0.45 0.51 0.58 0.62 0.55
0.01 0.02 0.02 0.03 0.03 0.03 0.03 0.04 0.06 0.06 0.05 0.04 0.03 0.03 0.02 0.01 0.01 0.02 0.03 0.05 0.07 0.09 0.10 0.09 0.09 0.09 0.10 0.07 0.06 0.14 0.13 0.03 0.02 0.03 0.03 0.04 0.10 0.25 0.43 0.56 0.63 0.62 0.64
0.01 0.02 0.02 0.02 0.03 0.04 0.05 0.08 0.14 0.15 0.19 0.16 0.15 0.18 0.16 0.13 0.08 0.04 0.10 0.20 0.23 0.31 0.32 0.38 0.52 0.45 0.34 0.22 0.32 0.57 0.25 0.12 0.12 0.13 0.13 0.10 0.19 0.35 0.43 0.49 0.54 0.52 0.55
0.04 0.04 0.04 0.03 0.03 0.05 0.07 0.07 0.11 0.15 0.27 0.30 0.29 0.41 0.50 0.47 0.32 0.20 0.29 0.42 0.48 0.58 0.60 0.84 1.01 0.63 0.55 0.59 0.67 0.71 0.47 0.38 0.34 0.43 0.42 0.49 0.53 0.59 0.58 0.55 0.55 0.54 0.55
0.11 0.12 0.14 0.12 0.07 0.07 0.08 0.09 0.09 0.13 0.19 0.27 0.37 0.51 0.68 0.63 0.53 0.51 0.52 0.49 0.62 0.70 0.90 0.92 1.01 1.04 1.11 1.00 0.95 0.96 0.85 0.66 0.56 0.75 0.97 0.98 0.95 0.84 0.84 0.74 0.61 0.60 0.62
0.24 0.30 0.32 0.33 0.27 0.24 0.21 0.18 0.12 0.14 0.17 0.22 0.40 0.53 0.82 1.00 0.95 1.04 0.88 0.81 0.69 0.92 1.21 1.30 1.24 1.39 1.52 1.47 1.19 1.02 1.00 0.87 0.72 0.71 0.82 0.91 0.98 0.87 0.86 0.83 0.68 0.68 0.70
0.41 0.54 0.61 0.67 0.63 0.58 0.50 0.40 0.35 0.33 0.35 0.39 0.56 0.77 1.25 1.41 1.31 1.36 1.30 1.20 0.97 1.07 1.33 1.57 1.51 1.63 1.55 1.54 1.11 0.92 0.91 0.96 0.83 0.72 0.71 0.83 0.84 0.76 0.66 0.71 0.76 0.76 0.74
0.73 0.91 1.07 1.21 1.15 1.09 1.01 0.88 0.75 0.64 0.62 0.73 0.95 1.17 1.46 1.64 1.73 1.91 1.78 1.42 1.23 1.36 1.50 1.48 1.47 1.73 1.47 1.37 1.19 1.19 1.11 0.99 0.87 0.76 0.73 0.75 0.67 0.63 0.52 0.52 0.64 0.71 0.75
1.17 1.53 1.85 2.00 2.02 1.97 1.71 1.44 1.25 1.17 1.14 1.24 1.34 1.32 1.30 1.46 1.64 1.82 1.55 1.22 1.35 1.60 1.67 1.54 1.49 1.71 1.60 1.49 1.38 1.25 1.14 0.96 0.79 0.76 0.71 0.61 0.54 0.39 0.36 0.41 0.54 0.64 0.78
1.63 2.17 2.66 2.86 2.70 2.48 2.00 1.63 1.37 1.43 1.47 1.47 1.40 1.21 1.08 1.01 1.06 1.17 1.00 0.94 1.16 1.40 1.36 1.15 1.21 1.41 1.41 1.37 1.24 0.95 0.78 0.64 0.54 0.54 0.51 0.44 0.47 0.42 0.40 0.37 0.41 0.51 0.67
1.80 2.38 2.82 3.07 2.77 2.30 1.98 1.80 1.53 1.43 1.39 1.37 1.23 1.01 0.83 0.77 0.75 0.83 0.81 0.78 0.86 0.89 0.89 1.01 1.10 1.16 0.98 0.98 0.87 0.63 0.54 0.42 0.38 0.36 0.28 0.25 0.27 0.26 0.24 0.28 0.35 0.34 0.44
2.14 2.79 3.05 2.84 2.23 1.82 1.57 1.44 1.26 1.11 1.01 0.94 0.87 0.77 0.69 0.69 0.64 0.64 0.61 0.62 0.68 0.66 0.64 0.75 0.81 0.73 0.52 0.64 0.65 0.43 0.29 0.22 0.21 0.19 0.17 0.14 0.13 0.12 0.11 0.19 0.24 0.26 0.28
2.22 2.42 2.36 2.01 1.44 1.10 0.89 0.75 0.62 0.54 0.54 0.54 0.51 0.51 0.53 0.54 0.54 0.53 0.50 0.48 0.48 0.50 0.51 0.51 0.58 0.56 0.46 0.52 0.52 0.40 0.23 0.17 0.12 0.06 0.07 0.08 0.07 0.09 0.09 0.13 0.18 0.27 0.31
1.94 1.68 1.28 0.93 0.67 0.57 0.44 0.36 0.27 0.23 0.23 0.24 0.26 0.29 0.32 0.33 0.33 0.33 0.32 0.32 0.33 0.37 0.40 0.44 0.48 0.48 0.41 0.36 0.39 0.40 0.21 0.11 0.10 0.07 0.06 0.07 0.08 0.09 0.12 0.18 0.25 0.34 0.44
1.27 0.87 0.57 0.43 0.35 0.30 0.25 0.24 0.22 0.18 0.18 0.19 0.20 0.22 0.23 0.22 0.23 0.23 0.21 0.21 0.21 0.24 0.31 0.33 0.40 0.48 0.45 0.32 0.28 0.27 0.23 0.20 0.18 0.12 0.09 0.05 0.07 0.09 0.15 0.21 0.30 0.41 0.47
0.52 0.46 0.43 0.35 0.35 0.35 0.29 0.26 0.23 0.19 0.18 0.19 0.20 0.21 0.24 0.25 0.23 0.23 0.22 0.20 0.20 0.20 0.22 0.27 0.33 0.42 0.47 0.40 0.33 0.32 0.33 0.30 0.23 0.19 0.12 0.08 0.11 0.11 0.19 0.30 0.39 0.44 0.47
0.22 0.23 0.24 0.24 0.32 0.38 0.36 0.31 0.28 0.24 0.21 0.19 0.17 0.18 0.20 0.22 0.25 0.25 0.25 0.26 0.26 0.25 0.25 0.24 0.25 0.30 0.41 0.48 0.47 0.43 0.42 0.35 0.24 0.23 0.17 0.13 0.16 0.15 0.29 0.45 0.50 0.55 0.56

GEFSSE_prec_meanprecacc_048.txt.gz
Total_Precipitation_Accumulation
0.00 0.00 0.00 0.00 0.00 0.00 0.00 0.00 0.00 0.00 0.00 0.00 0.00 0.00 0.00 0.00 0.00 0.00 0.00 0.00 0.01 0.01 0.01 0.01 0.02 0.02 0.01 0.01 0.01 0.01 0.01 0.00 0.01 0.02 0.03 0.04 0.05 0.06 0.07 0.09 0.20 0.22 0.15
0.00 0.00 0.00 0.00 0.00 0.00 0.00 0.00 0.00 0.00 0.00 0.00 0.00 0.00 0.00 0.00 0.00 0.00 0.00 0.01 0.01 0.01 0.02 0.02 0.01 0.01 0.01 0.01 0.01 0.00 0.00 0.01 0.02 0.03 0.05 0.05 0.06 0.07 0.06 0.08 0.18 0.20 0.13
0.00 0.00 0.00 0.00 0.00 0.00 0.00 0.00 0.00 0.00 0.00 0.00 0.00 0.00 0.00 0.00 0.00 0.00 0.00 0.01 0.01 0.01 0.02 0.02 0.02 0.01 0.01 0.00 0.00 0.00 0.00 0.01 0.02 0.04 0.08 0.08 0.04 0.07 0.08 0.09 0.11 0.09 0.07
0.00 0.00 0.00 0.00 0.00 0.00 0.00 0.00 0.00 0.00 0.00 0.01 0.01 0.00 0.00 0.00 0.00 0.01 0.01 0.01 0.01 0.02 0.02 0.02 0.02 0.01 0.01 0.00 0.00 0.00 0.01 0.01 0.02 0.05 0.21 0.20 0.05 0.04 0.03 0.02 0.03 0.04 0.05
0.00 0.00 0.00 0.00 0.00 0.00 0.00 0.00 0.00 0.00 0.00 0.01 0.01 0.01 0.01 0.01 0.01 0.01 0.01 0.01 0.01 0.02 0.03 0.02 0.02 0.01 0.01 0.00 0.00 0.00 0.00 0.01 0.02 0.06 0.18 0.25 0.20 0.07 0.04 0.01 0.01 0.02 0.04
0.00 0.00 0.00 0.00 0.00 0.00 0.00 0.00 0.00 0.00 0.00 0.01 0.01 0.01 0.01 0.02 0.02 0.02 0.02 0.02 0.02 0.03 0.03 0.02 0.02 0.01 0.01 0.00 0.00 0.00 0.00 0.01 0.01 0.06 0.12 0.13 0.22 0.14 0.09 0.07 0.02 0.01 0.01
0.00 0.00 0.00 0.00 0.00 0.00 0.00 0.00 0.00 0.00 0.01 0.01 0.01 0.01 0.01 0.01 0.02 0.02 0.02 0.02 0.02 0.02 0.03 0.02 0.02 0.01 0.01 0.00 0.00 0.00 0.00 0.01 0.03 0.09 0.12 0.12 0.21 0.15 0.24 0.34 0.22 0.14 0.08
0.00 0.00 0.01 0.01 0.01 0.00 0.00 0.00 0.00 0.01 0.01 0.01 0.01 0.01 0.01 0.01 0.01 0.02 0.02 0.02 0.02 0.02 0.03 0.02 0.01 0.01 0.01 0.00 0.01 0.01 0.03 0.03 0.04 0.11 0.15 0.15 0.14 0.14 0.37 0.54 0.47 0.42 0.32
0.00 0.00 0.01 0.01 0.01 0.01 0.01 0.00 0.00 0.01 0.01 0.01 0.00 0.00 0.00 0.01 0.01 0.01 0.02 0.02 0.02 0.02 0.02 0.02 0.02 0.01 0.01 0.01 0.02 0.02 0.05 0.06 0.05 0.10 0.09 0.12 0.12 0.18 0.39 0.52 0.50 0.51 0.45
0.01 0.01 0.02 0.02 0.02 0.02 0.02 0.02 0.02 0.01 0.01 0.01 0.01 0.01 0.01 0.01 0.01 0.01 0.01 0.02 0.02 0.03 0.03 0.03 0.03 0.02 0.02 0.02 0.02 0.04 0.05 0.04 0.01 0.03 0.04 0.08 0.15 0.32 0.50 0.53 0.58 0.63 0.55
0.03 0.03 0.03 0.03 0.03 0.04 0.04 0.05 0.07 0.07 0.07 0.05 0.04 0.04 0.03 0.01 0.01 0.02 0.03 0.07 0.09 0.13 0.14 0.13 0.12 0.12 0.12 0.08 0.07 0.15 0.13 0.03 0.02 0.04 0.03 0.06 0.15 0.33 0.52 0.61 0.65 0.63 0.65
0.05 0.06 0.05 0.05 0.05 0.07 0.07 0.10 0.17 0.18 0.22 0.19 0.18 0.22 0.19 0.16 0.11 0.06 0.12 0.27 0.32 0.42 0.46 0.50 0.62 0.54 0.39 0.25 0.35 0.59 0.26 0.12 0.12 0.13 0.13 0.12 0.23 0.43 0.51 0.55 0.57 0.54 0.56
0.12 0.11 0.10 0.09 0.09 0.10 0.12 0.11 0.16 0.19 0.33 0.38 0.36 0.48 0.58 0.53 0.39 0.29 0.36 0.51 0.60 0.75 0.79 1.04 1.21 0.77 0.66 0.67 0.74 0.75 0.50 0.40 0.36 0.45 0.43 0.50 0.57 0.68 0.69 0.63 0.60 0.58 0.57
0.25 0.21 0.22 0.20 0.15 0.13 0.16 0.18 0.17 0.19 0.25 0.35 0.45 0.59 0.80 0.75 0.62 0.61 0.61 0.59 0.77 0.89 1.15 1.21 1.27 1.27 1.31 1.17 1.10 1.06 0.91 0.71 0.60 0.79 1.01 1.03 1.02 0.96 0.98 0.85 0.68 0.65 0.65
0.39 0.42 0.42 0.43 0.38 0.34 0.32 0.30 0.21 0.21 0.23 0.30 0.49 0.62 0.92 1.08 1.01 1.10 0.93 0.87 0.79 1.09 1.43 1.59 1.56 1.70 1.79 1.73 1.42 1.21 1.13 0.97 0.81 0.81 0.92 1.06 1.17 1.08 1.06 1.00 0.81 0.77 0.75
0.56 0.70 0.75 0.81 0.77 0.71 0.61 0.50 0.42 0.38 0.40 0.44 0.61 0.84 1.31 1.46 1.34 1.39 1.33 1.24 1.04 1.18 1.49 1.82 1.86 2.01 1.91 1.89 1.43 1.19 1.13 1.12 0.97 0.86 0.85 0.99 1.05 0.99 0.89 0.92 0.93 0.88 0.82
0.86 1.04 1.20 1.34 1.27 1.18 1.09 0.94 0.79 0.68 0.65 0.77 0.98 1.19 1.49 1.67 1.76 1.93 1.80 1.45 1.27 1.44 1.61 1.66 1.77 2.19 1.98 1.87 1.63 1.57 1.46 1.27 1.10 0.96 0.92 0.93 0.87 0.86 0.74 0.72 0.81 0.85 0.85
1.26 1.63 1.94 2.10 2.10 2.03 1.75 1.47 1.28 1.20 1.17 1.26 1.36 1.34 1.31 1.47 1.66 1.83 1.56 1.24 1.38 1.64 1.76 1.66 1.68 2.02 2.03 1.99 1.91 1.75 1.57 1.33 1.11 1.03 0.97 0.85 0.75 0.57 0.54 0.61 0.71 0.77 0.88
1.67 2.21 2.70 2.90 2.74 2.51 2.02 1.64 1.37 1.44 1.48 1.48 1.41 1.23 1.09 1.02 1.06 1.18 1.01 0.94 1.17 1.42 1.41 1.24 1.35 1.61 1.69 1.73 1.67 1.42 1.20 0.98 0.82 0.80 0.76 0.66 0.67 0.59 0.55 0.52 0.60 0.67 0.80
1.81 2.39 2.83 3.08 2.78 2.31 1.98 1.80 1.54 1.44 1.39 1.38 1.23 1.02 0.83 0.77 0.75 0.83 0.82 0.78 0.86 0.90 0.91 1.06 1.19 1.33 1.22 1.28 1.20 0.98 0.91 0.76 0.67 0.62 0.49 0.44 0.46 0.42 0.39 0.46 0.49 0.46 0.57
2.14 2.80 3.05 2.85 2.23 1.82 1.57 1.44 1.26 1.11 1.01 0.94 0.87 0.78 0.69 0.69 0.64 0.64 0.61 0.62 0.68 0.67 0.66 0.80 0.92 0.92 0.75 0.90 0.96 0.75 0.59 0.50 0.46 0.42 0.34 0.29 0.26 0.25 0.26 0.34 0.37 0.35 0.34
2.22 2.42 2.36 2.01 1.44 1.10 0.89 0.75 0.62 0.54 0.54 0.54 0.51 0.51 0.53 0.54 0.54 0.53 0.50 0.48 0.48 0.51 0.52 0.57 0.68 0.68 0.60 0.71 0.79 0.71 0.50 0.41 0.34 0.23 0.21 0.17 0.14 0.18 0.21 0.27 0.35 0.40 0.39
1.94 1.68 1.28 0.93 0.67 0.57 0.44 0.36 0.27 0.23 0.23 0.24 0.26 0.29 0.32 0.33 0.33 0.33 0.32 0.32 0.34 0.38 0.41 0.47 0.54 0.56 0.50 0.49 0.58 0.65 0.46 0.31 0.27 0.23 0.20 0.18 0.17 0.17 0.19 0.29 0.37 0.45 0.53
1.27 0.87 0.57 0.43 0.35 0.30 0.25 0.24 0.22 0.18 0.18 0.19 0.20 0.22 0.23 0.22 0.23 0.23 0.21 0.21 0.21 0.25 0.31 0.34 0.42 0.52 0.50 0.41 0.43 0.50 0.47 0.39 0.31 0.25 0.24 0.20 0.21 0.19 0.22 0.28 0.38 0.48 0.54
0.52 0.46 0.43 0.35 0.35 0.35 0.29 0.26 0.23 0.19 0.18 0.19 0.20 0.21 0.24 0.25 0.23 0.23 0.22 0.20 0.20 0.20 0.23 0.27 0.34 0.43 0.50 0.45 0.41 0.47 0.53 0.48 0.36 0.29 0.23 0.23 0.27 0.21 0.25 0.35 0.44 0.51 0.54
0.22 0.23 0.24 0.24 0.32 0.38 0.36 0.31 0.28 0.24 0.21 0.19 0.17 0.18 0.20 0.22 0.25 0.25 0.25 0.26 0.26 0.25 0.25 0.25 0.26 0.31 0.42 0.50 0.50 0.50 0.53 0.51 0.38 0.32 0.25 0.22 0.27 0.23 0.35 0.50 0.54 0.58 0.60

GEFSSE_prec_meanprecacc_054.txt.gz
Total_Precipitation_Accumulation
0.00 0.00 0.01 0.01 0.01 0.01 0.01 0.00 0.01 0.00 0.00 0.00 0.01 0.01 0.00 0.00 0.00 0.00 0.00 0.00 0.01 0.01 0.01 0.01 0.02 0.02 0.02 0.02 0.01 0.01 0.01 0.01 0.01 0.02 0.04 0.05 0.07 0.09 0.13 0.18 0.26 0.28 0.24
0.00 0.00 0.01 0.00 0.01 0.01 0.01 0.00 0.00 0.00 0.00 0.00 0.00 0.00 0.00 0.00 0.00 0.00 0.01 0.01 0.01 0.01 0.02 0.02 0.01 0.01 0.01 0.01 0.01 0.00 0.00 0.01 0.02 0.04 0.07 0.08 0.11 0.13 0.12 0.12 0.20 0.24 0.19
0.00 0.00 0.01 0.00 0.00 0.01 0.00 0.00 0.00 0.00 0.00 0.00 0.00 0.00 0.00 0.00 0.00 0.00 0.00 0.01 0.01 0.01 0.02 0.02 0.02 0.01 0.01 0.00 0.01 0.00 0.01 0.01 0.02 0.05 0.10 0.10 0.11 0.16 0.13 0.11 0.14 0.12 0.11
0.00 0.00 0.00 0.00 0.01 0.00 0.01 0.00 0.00 0.00 0.01 0.01 0.01 0.00 0.00 0.00 0.01 0.01 0.01 0.01 0.01 0.02 0.02 0.02 0.02 0.01 0.01 0.00 0.01 0.01 0.01 0.01 0.03 0.05 0.21 0.21 0.07 0.10 0.07 0.04 0.06 0.07 0.07
0.00 0.00 0.00 0.00 0.00 0.01 0.00 0.00 0.00 0.00 0.01 0.01 0.01 0.01 0.01 0.01 0.01 0.01 0.01 0.01 0.02 0.03 0.03 0.03 0.02 0.02 0.01 0.00 0.00 0.00 0.01 0.01 0.03 0.07 0.18 0.25 0.21 0.11 0.05 0.02 0.02 0.04 0.05
0.00 0.00 0.00 0.00 0.00 0.00 0.00 0.00 0.00 0.00 0.01 0.01 0.01 0.01 0.01 0.02 0.02 0.02 0.02 0.02 0.02 0.03 0.04 0.03 0.03 0.02 0.01 0.00 0.00 0.00 0.01 0.01 0.02 0.06 0.12 0.13 0.23 0.16 0.09 0.07 0.03 0.02 0.03
0.00 0.00 0.01 0.01 0.00 0.00 0.00 0.00 0.00 0.01 0.01 0.01 0.01 0.01 0.02 0.02 0.02 0.03 0.03 0.02 0.03 0.04 0.04 0.04 0.03 0.02 0.01 0.01 0.00 0.00 0.01 0.02 0.04 0.09 0.12 0.12 0.21 0.16 0.24 0.34 0.23 0.15 0.09
0.00 0.00 0.01 0.01 0.01 0.01 0.00 0.00 0.01 0.01 0.01 0.01 0.01 0.01 0.01 0.02 0.02 0.03 0.03 0.03 0.03 0.04 0.04 0.04 0.03 0.03 0.02 0.01 0.01 0.01 0.04 0.05 0.05 0.12 0.16 0.15 0.14 0.15 0.39 0.55 0.47 0.42 0.32
0.00 0.00 0.01 0.01 0.01 0.01 0.01 0.01 0.01 0.01 0.01 0.01 0.01 0.01 0.01 0.01 0.02 0.02 0.03 0.03 0.03 0.03 0.04 0.04 0.05 0.04 0.04 0.03 0.03 0.03 0.06 0.07 0.07 0.12 0.09 0.13 0.13 0.20 0.42 0.53 0.51 0.51 0.45
0.02 0.01 0.02 0.02 0.02 0.02 0.02 0.02 0.02 0.02 0.02 0.02 0.01 0.01 0.01 0.01 0.02 0.02 0.02 0.03 0.04 0.05 0.06 0.08 0.08 0.07 0.07 0.06 0.04 0.05 0.06 0.05 0.02 0.04 0.05 0.09 0.16 0.34 0.54 0.56 0.60 0.64 0.55
0.05 0.04 0.04 0.04 0.04 0.04 0.04 0.06 0.08 0.08 0.08 0.07 0.05 0.05 0.04 0.03 0.03 0.04 0.06 0.11 0.14 0.21 0.23 0.24 0.24 0.23 0.22 0.15 0.13 0.19 0.16 0.05 0.03 0.05 0.05 0.08 0.16 0.36 0.57 0.67 0.69 0.66 0.66
0.14 0.12 0.10 0.09 0.09 0.11 0.11 0.13 0.21 0.22 0.27 0.25 0.23 0.25 0.22 0.20 0.14 0.09 0.17 0.34 0.41 0.56 0.65 0.74 0.87 0.75 0.57 0.39 0.48 0.71 0.33 0.17 0.15 0.14 0.15 0.13 0.25 0.48 0.61 0.67 0.65 0.60 0.60
0.29 0.22 0.19 0.18 0.19 0.21 0.22 0.22 0.28 0.33 0.44 0.49 0.45 0.55 0.64 0.60 0.46 0.35 0.41 0.57 0.69 0.87 0.93 1.22 1.43 0.97 0.85 0.86 0.91 0.89 0.59 0.48 0.40 0.47 0.45 0.52 0.59 0.73 0.79 0.76 0.72 0.67 0.64
0.40 0.34 0.37 0.40 0.35 0.32 0.37 0.38 0.37 0.36 0.41 0.51 0.57 0.68 0.90 0.84 0.72 0.71 0.68 0.66 0.83 0.97 1.24 1.32 1.41 1.42 1.47 1.37 1.31 1.24 1.04 0.78 0.64 0.81 1.02 1.04 1.05 1.00 1.06 0.96 0.80 0.76 0.75
0.54 0.58 0.62 0.65 0.62 0.62 0.61 0.55 0.42 0.39 0.41 0.47 0.63 0.74 1.02 1.19 1.13 1.22 1.03 0.97 0.87 1.14 1.48 1.67 1.68 1.83 1.93 1.89 1.61 1.39 1.28 1.05 0.86 0.84 0.93 1.08 1.21 1.12 1.13 1.10 0.94 0.90 0.88
0.74 0.88 0.95 1.03 1.01 0.95 0.85 0.73 0.65 0.58 0.55 0.57 0.72 0.95 1.41 1.55 1.44 1.49 1.41 1.31 1.10 1.23 1.53 1.87 1.93 2.11 2.04 2.04 1.58 1.34 1.25 1.22 1.05 0.92 0.89 1.02 1.09 1.05 0.98 1.03 1.06 1.04 0.99
1.02 1.23 1.38 1.50 1.43 1.33 1.23 1.07 0.90 0.78 0.73 0.84 1.04 1.26 1.55 1.71 1.80 1.98 1.84 1.49 1.32 1.49 1.67 1.70 1.82 2.25 2.06 1.96 1.73 1.68 1.60 1.40 1.19 1.04 0.99 0.98 0.92 0.94 0.85 0.84 0.96 1.03 1.06
1.37 1.75 2.06 2.18 2.18 2.10 1.81 1.52 1.32 1.22 1.19 1.29 1.39 1.37 1.34 1.50 1.68 1.86 1.59 1.26 1.41 1.68 1.79 1.69 1.69 2.04 2.06 2.02 1.94 1.81 1.68 1.48 1.26 1.16 1.08 0.94 0.82 0.65 0.63 0.75 0.88 1.00 1.14
1.72 2.26 2.74 2.93 2.77 2.53 2.03 1.65 1.38 1.44 1.48 1.48 1.41 1.23 1.09 1.02 1.07 1.19 1.02 0.95 1.18 1.44 1.43 1.25 1.36 1.63 1.70 1.75 1.69 1.45 1.26 1.08 0.94 0.93 0.88 0.77 0.77 0.68 0.64 0.62 0.76 0.88 1.05
1.82 2.40 2.83 3.08 2.79 2.31 1.98 1.80 1.54 1.44 1.39 1.38 1.23 1.02 0.83 0.77 0.75 0.83 0.82 0.78 0.87 0.90 0.91 1.06 1.20 1.34 1.24 1.29 1.22 1.00 0.95 0.81 0.75 0.71 0.57 0.53 0.55 0.51 0.48 0.55 0.61 0.61 0.79
2.15 2.80 3.05 2.85 2.23 1.82 1.57 1.44 1.26 1.11 1.01 0.94 0.87 0.78 0.69 0.69 0.64 0.64 0.61 0.62 0.68 0.67 0.67 0.81 0.92 0.92 0.75 0.90 0.97 0.76 0.60 0.53 0.51 0.49 0.43 0.39 0.35 0.33 0.37 0.45 0.49 0.48 0.48
2.22 2.42 2.36 2.01 1.44 1.10 0.89 0.75 0.62 0.54 0.54 0.54 0.51 0.51 0.53 0.54 0.54 0.53 0.50 0.48 0.48 0.51 0.52 0.57 0.68 0.69 0.61 0.72 0.80 0.72 0.52 0.44 0.37 0.28 0.28 0.25 0.22 0.26 0.29 0.36 0.44 0.51 0.51
1.94 1.68 1.28 0.93 0.67 0.57 0.44 0.36 0.27 0.23 0.23 0.24 0.26 0.29 0.32 0.33 0.33 0.33 0.32 0.32 0.34 0.38 0.41 0.47 0.54 0.56 0.51 0.50 0.61 0.70 0.52 0.37 0.32 0.28 0.25 0.24 0.24 0.24 0.25 0.36 0.43 0.52 0.62
1.28 0.88 0.57 0.44 0.35 0.30 0.25 0.24 0.22 0.18 0.18 0.19 0.20 0.22 0.23 0.22 0.23 0.23 0.21 0.21 0.21 0.25 0.31 0.34 0.43 0.52 0.51 0.41 0.44 0.53 0.52 0.47 0.40 0.33 0.30 0.26 0.29 0.28 0.29 0.35 0.43 0.53 0.60
0.53 0.47 0.43 0.35 0.35 0.35 0.29 0.26 0.23 0.19 0.18 0.19 0.20 0.21 0.24 0.25 0.23 0.23 0.22 0.20 0.20 0.20 0.23 0.27 0.35 0.43 0.50 0.45 0.42 0.48 0.56 0.54 0.45 0.39 0.32 0.32 0.38 0.29 0.33 0.43 0.52 0.56 0.59
0.22 0.23 0.24 0.24 0.32 0.38 0.36 0.31 0.28 0.24 0.21 0.19 0.17 0.18 0.20 0.22 0.25 0.25 0.25 0.26 0.26 0.25 0.25 0.25 0.26 0.31 0.42 0.50 0.50 0.50 0.54 0.54 0.43 0.40 0.31 0.29 0.36 0.35 0.44 0.58 0.61 0.64 0.67

GEFSSE_prec_meanprecacc_060.txt.gz
Total_Precipitation_Accumulation
0.00 0.01 0.01 0.01 0.01 0.02 0.02 0.02 0.03 0.03 0.02 0.02 0.02 0.02 0.01 0.01 0.01 0.01 0.00 0.00 0.01 0.01 0.01 0.01 0.02 0.02 0.02 0.02 0.02 0.02 0.02 0.01 0.02 0.03 0.04 0.07 0.10 0.13 0.19 0.28 0.35 0.35 0.28
0.00 0.00 0.01 0.01 0.01 0.01 0.02 0.01 0.02 0.02 0.02 0.02 0.01 0.01 0.01 0.01 0.01 0.00 0.01 0.01 0.01 0.02 0.02 0.02 0.02 0.01 0.01 0.01 0.01 0.01 0.01 0.01 0.03 0.05 0.09 0.10 0.14 0.17 0.18 0.21 0.28 0.32 0.23
0.00 0.00 0.01 0.01 0.01 0.01 0.01 0.01 0.02 0.02 0.02 0.02 0.01 0.01 0.01 0.00 0.00 0.00 0.01 0.01 0.01 0.02 0.02 0.02 0.02 0.01 0.01 0.01 0.01 0.01 0.01 0.02 0.04 0.07 0.13 0.15 0.14 0.20 0.17 0.16 0.19 0.16 0.14
0.00 0.00 0.00 0.01 0.01 0.01 0.02 0.02 0.02 0.02 0.01 0.01 0.01 0.01 0.00 0.00 0.01 0.01 0.01 0.01 0.01 0.02 0.03 0.03 0.02 0.02 0.01 0.01 0.01 0.01 0.01 0.02 0.04 0.07 0.25 0.23 0.10 0.13 0.11 0.08 0.10 0.10 0.10
0.00 0.00 0.01 0.01 0.02 0.02 0.02 0.02 0.02 0.02 0.02 0.02 0.01 0.01 0.01 0.01 0.01 0.01 0.02 0.02 0.02 0.03 0.04 0.03 0.03 0.02 0.01 0.01 0.01 0.01 0.01 0.03 0.05 0.07 0.19 0.27 0.27 0.15 0.08 0.06 0.06 0.08 0.07
0.00 0.00 0.01 0.01 0.02 0.02 0.02 0.02 0.02 0.02 0.02 0.02 0.02 0.02 0.02 0.02 0.02 0.02 0.03 0.03 0.03 0.05 0.06 0.05 0.04 0.03 0.02 0.01 0.01 0.01 0.01 0.03 0.04 0.06 0.12 0.14 0.26 0.20 0.13 0.11 0.07 0.07 0.04
0.00 0.00 0.01 0.02 0.02 0.02 0.02 0.02 0.03 0.03 0.03 0.03 0.03 0.03 0.02 0.03 0.03 0.04 0.04 0.04 0.04 0.06 0.07 0.08 0.07 0.05 0.03 0.02 0.01 0.01 0.02 0.04 0.07 0.11 0.13 0.13 0.23 0.19 0.28 0.39 0.28 0.19 0.11
0.00 0.01 0.02 0.02 0.03 0.03 0.02 0.03 0.04 0.04 0.04 0.04 0.04 0.03 0.03 0.04 0.05 0.06 0.07 0.06 0.06 0.07 0.09 0.09 0.08 0.08 0.06 0.03 0.02 0.03 0.05 0.07 0.09 0.15 0.18 0.18 0.17 0.17 0.41 0.59 0.53 0.47 0.34
0.01 0.01 0.02 0.03 0.03 0.04 0.05 0.05 0.05 0.05 0.05 0.05 0.05 0.05 0.05 0.05 0.06 0.07 0.08 0.08 0.08 0.09 0.10 0.10 0.10 0.10 0.10 0.07 0.06 0.05 0.08 0.09 0.12 0.18 0.12 0.16 0.15 0.22 0.44 0.56 0.54 0.56 0.48
0.02 0.02 0.03 0.04 0.05 0.05 0.05 0.05 0.06 0.06 0.06 0.06 0.06 0.07 0.07 0.07 0.07 0.07 0.07 0.08 0.09 0.12 0.13 0.15 0.16 0.17 0.16 0.13 0.11 0.10 0.10 0.08 0.06 0.08 0.08 0.13 0.18 0.37 0.57 0.60 0.63 0.67 0.60
0.06 0.05 0.05 0.05 0.06 0.07 0.07 0.09 0.13 0.14 0.15 0.14 0.14 0.14 0.13 0.13 0.14 0.15 0.14 0.18 0.22 0.30 0.34 0.34 0.33 0.36 0.36 0.27 0.24 0.29 0.23 0.08 0.06 0.08 0.09 0.11 0.19 0.41 0.64 0.75 0.75 0.69 0.69
0.15 0.13 0.12 0.12 0.12 0.13 0.13 0.18 0.29 0.32 0.39 0.40 0.42 0.45 0.45 0.40 0.33 0.27 0.30 0.45 0.52 0.68 0.79 0.88 1.00 0.88 0.70 0.52 0.61 0.85 0.41 0.21 0.18 0.17 0.17 0.15 0.28 0.55 0.74 0.81 0.76 0.67 0.64
0.30 0.23 0.20 0.20 0.21 0.24 0.26 0.28 0.37 0.46 0.63 0.72 0.69 0.79 0.88 0.82 0.66 0.54 0.60 0.75 0.84 1.03 1.11 1.40 1.59 1.11 1.01 1.05 1.09 1.05 0.70 0.55 0.45 0.50 0.47 0.54 0.61 0.77 0.89 0.93 0.92 0.81 0.72
0.42 0.37 0.39 0.42 0.38 0.38 0.44 0.48 0.48 0.50 0.57 0.69 0.77 0.88 1.07 1.01 0.90 0.90 0.92 0.89 1.03 1.14 1.41 1.50 1.59 1.59 1.63 1.54 1.47 1.38 1.18 0.91 0.71 0.87 1.06 1.07 1.07 1.03 1.11 1.07 0.96 0.95 0.91
0.60 0.63 0.67 0.70 0.70 0.71 0.73 0.70 0.54 0.52 0.55 0.61 0.75 0.85 1.15 1.36 1.32 1.41 1.23 1.15 1.01 1.26 1.60 1.79 1.84 1.97 2.05 2.01 1.73 1.51 1.39 1.16 0.94 0.89 0.97 1.11 1.24 1.15 1.17 1.17 1.04 1.05 1.07
0.80 0.95 1.01 1.09 1.10 1.06 0.97 0.85 0.75 0.71 0.71 0.74 0.85 1.05 1.51 1.69 1.58 1.64 1.57 1.45 1.22 1.33 1.63 1.97 2.03 2.21 2.14 2.14 1.67 1.45 1.36 1.33 1.14 0.98 0.95 1.08 1.13 1.09 1.01 1.07 1.12 1.14 1.13
1.07 1.29 1.44 1.56 1.48 1.40 1.30 1.12 0.95 0.82 0.77 0.89 1.10 1.31 1.61 1.78 1.86 2.03 1.91 1.58 1.42 1.58 1.75 1.76 1.86 2.30 2.12 2.03 1.79 1.77 1.69 1.48 1.27 1.11 1.06 1.06 0.97 0.98 0.89 0.87 1.00 1.10 1.17
1.41 1.80 2.09 2.20 2.20 2.12 1.82 1.53 1.33 1.23 1.20 1.30 1.40 1.37 1.35 1.52 1.70 1.87 1.61 1.29 1.44 1.71 1.82 1.72 1.72 2.07 2.10 2.06 1.99 1.87 1.75 1.55 1.33 1.23 1.16 1.01 0.90 0.71 0.70 0.78 0.91 1.04 1.20
1.76 2.28 2.75 2.93 2.77 2.53 2.03 1.65 1.38 1.44 1.48 1.48 1.41 1.23 1.09 1.02 1.07 1.19 1.02 0.96 1.19 1.45 1.45 1.27 1.38 1.64 1.72 1.77 1.73 1.49 1.31 1.12 0.99 0.98 0.92 0.82 0.84 0.75 0.72 0.68 0.80 0.92 1.09
1.84 2.41 2.84 3.08 2.79 2.31 1.98 1.80 1.54 1.44 1.39 1.38 1.23 1.02 0.83 0.77 0.75 0.83 0.82 0.78 0.87 0.91 0.92 1.07 1.22 1.36 1.25 1.31 1.24 1.02 0.97 0.84 0.78 0.74 0.61 0.59 0.62 0.58 0.55 0.63 0.70 0.65 0.83
2.15 2.80 3.05 2.85 2.23 1.82 1.57 1.44 1.26 1.11 1.01 0.94 0.87 0.78 0.69 0.69 0.64 0.64 0.61 0.62 0.69 0.68 0.67 0.81 0.93 0.94 0.77 0.92 0.99 0.77 0.62 0.54 0.53 0.53 0.47 0.45 0.43 0.41 0.46 0.54 0.59 0.56 0.53
2.22 2.42 2.36 2.01 1.44 1.10 0.89 0.76 0.62 0.54 0.54 0.54 0.51 0.51 0.53 0.54 0.54 0.53 0.50 0.48 0.48 0.51 0.53 0.57 0.69 0.69 0.61 0.73 0.81 0.74 0.53 0.45 0.39 0.30 0.31 0.30 0.28 0.35 0.39 0.45 0.55 0.62 0.59
1.94 1.68 1.28 0.93 0.67 0.58 0.45 0.37 0.27 0.23 0.23 0.24 0.26 0.29 0.32 0.33 0.33 0.33 0.32 0.32 0.34 0.38 0.42 0.47 0.55 0.57 0.51 0.50 0.62 0.71 0.54 0.39 0.34 0.30 0.28 0.29 0.32 0.35 0.36 0.48 0.56 0.65 0.74
1.28 0.88 0.57 0.44 0.37 0.31 0.26 0.24 0.23 0.18 0.18 0.19 0.20 0.22 0.23 0.22 0.23 0.23 0.21 0.21 0.21 0.25 0.32 0.34 0.43 0.53 0.51 0.42 0.45 0.53 0.53 0.49 0.42 0.35 0.32 0.31 0.34 0.35 0.39 0.45 0.54 0.66 0.73
0.53 0.47 0.43 0.36 0.37 0.35 0.30 0.26 0.24 0.20 0.18 0.19 0.20 0.21 0.24 0.25 0.23 0.23 0.22 0.20 0.21 0.20 0.23 0.28 0.35 0.44 0.51 0.45 0.42 0.48 0.57 0.55 0.46 0.42 0.34 0.35 0.40 0.34 0.40 0.52 0.61 0.67 0.70
0.22 0.23 0.24 0.24 0.33 0.38 0.37 0.31 0.28 0.24 0.21 0.19 0.17 0.18 0.20 0.22 0.25 0.25 0.25 0.26 0.26 0.26 0.25 0.25 0.26 0.32 0.43 0.51 0.51 0.50 0.54 0.55 0.44 0.41 0.33 0.30 0.38 0.38 0.50 0.66 0.71 0.75 0.79

GEFSSE_prec_meanprecacc_066.txt.gz
Total_Precipitation_Accumulation
0.00 0.01 0.01 0.01 0.01 0.02 0.03 0.05 0.07 0.07 0.07 0.06 0.06 0.05 0.03 0.02 0.02 0.01 0.01 0.01 0.01 0.01 0.02 0.02 0.02 0.02 0.02 0.02 0.03 0.02 0.02 0.02 0.02 0.03 0.05 0.07 0.11 0.17 0.26 0.39 0.49 0.46 0.32
0.00 0.00 0.01 0.01 0.01 0.02 0.03 0.04 0.06 0.07 0.07 0.07 0.07 0.05 0.04 0.02 0.02 0.02 0.01 0.01 0.01 0.02 0.02 0.02 0.02 0.02 0.02 0.01 0.01 0.01 0.01 0.01 0.03 0.06 0.10 0.12 0.15 0.21 0.25 0.30 0.43 0.41 0.27
0.00 0.00 0.01 0.01 0.01 0.01 0.02 0.03 0.05 0.06 0.07 0.07 0.06 0.05 0.03 0.02 0.02 0.01 0.01 0.01 0.01 0.02 0.02 0.03 0.02 0.02 0.02 0.01 0.01 0.01 0.01 0.02 0.04 0.12 0.29 0.30 0.16 0.22 0.22 0.27 0.33 0.23 0.16
0.00 0.00 0.00 0.01 0.01 0.02 0.02 0.03 0.04 0.05 0.06 0.06 0.05 0.04 0.03 0.02 0.01 0.01 0.01 0.01 0.02 0.03 0.03 0.03 0.02 0.02 0.01 0.01 0.01 0.01 0.02 0.03 0.06 0.18 0.52 0.40 0.16 0.14 0.14 0.15 0.18 0.14 0.11
0.00 0.00 0.01 0.01 0.02 0.03 0.02 0.03 0.03 0.04 0.05 0.05 0.04 0.03 0.03 0.02 0.02 0.02 0.02 0.02 0.03 0.04 0.05 0.04 0.03 0.02 0.02 0.01 0.01 0.01 0.02 0.03 0.08 0.18 0.34 0.41 0.45 0.19 0.10 0.09 0.12 0.12 0.08
0.00 0.00 0.01 0.02 0.02 0.02 0.02 0.03 0.03 0.03 0.04 0.04 0.04 0.04 0.03 0.03 0.03 0.03 0.03 0.03 0.04 0.05 0.07 0.06 0.04 0.03 0.02 0.02 0.01 0.01 0.02 0.05 0.08 0.13 0.17 0.24 0.39 0.22 0.14 0.15 0.13 0.13 0.07
0.00 0.00 0.01 0.02 0.02 0.02 0.02 0.03 0.04 0.05 0.05 0.05 0.04 0.04 0.03 0.04 0.04 0.05 0.05 0.05 0.05 0.07 0.09 0.09 0.09 0.05 0.03 0.02 0.02 0.01 0.02 0.06 0.13 0.18 0.16 0.21 0.34 0.20 0.30 0.44 0.37 0.27 0.15
0.00 0.01 0.02 0.02 0.03 0.03 0.03 0.04 0.05 0.06 0.06 0.06 0.05 0.05 0.05 0.06 0.07 0.08 0.09 0.08 0.09 0.10 0.11 0.11 0.10 0.10 0.07 0.04 0.03 0.03 0.06 0.09 0.13 0.19 0.21 0.26 0.22 0.17 0.42 0.62 0.60 0.55 0.42
0.01 0.01 0.03 0.03 0.04 0.04 0.06 0.07 0.06 0.07 0.08 0.08 0.08 0.07 0.07 0.07 0.08 0.08 0.10 0.10 0.11 0.12 0.13 0.13 0.13 0.13 0.12 0.09 0.07 0.07 0.08 0.11 0.15 0.21 0.17 0.25 0.17 0.22 0.44 0.57 0.57 0.62 0.56
0.03 0.02 0.04 0.05 0.07 0.07 0.06 0.07 0.07 0.08 0.09 0.09 0.09 0.09 0.09 0.10 0.10 0.12 0.12 0.13 0.14 0.15 0.16 0.18 0.20 0.21 0.19 0.16 0.12 0.11 0.12 0.09 0.06 0.09 0.14 0.19 0.20 0.37 0.58 0.61 0.64 0.71 0.65
0.06 0.06 0.06 0.07 0.07 0.09 0.10 0.12 0.15 0.17 0.19 0.19 0.21 0.20 0.19 0.22 0.27 0.33 0.28 0.28 0.29 0.36 0.39 0.38 0.38 0.43 0.41 0.29 0.26 0.32 0.25 0.08 0.06 0.08 0.14 0.17 0.23 0.43 0.65 0.76 0.76 0.71 0.72
0.15 0.13 0.13 0.13 0.13 0.15 0.17 0.24 0.38 0.44 0.55 0.54 0.59 0.62 0.63 0.57 0.48 0.40 0.43 0.56 0.61 0.76 0.87 0.96 1.08 0.96 0.76 0.57 0.70 0.96 0.44 0.21 0.19 0.19 0.26 0.26 0.34 0.58 0.76 0.82 0.78 0.69 0.67
0.30 0.23 0.20 0.21 0.23 0.28 0.33 0.38 0.50 0.59 0.79 0.86 0.82 0.93 1.05 0.95 0.77 0.64 0.72 0.92 1.02 1.19 1.28 1.57 1.74 1.24 1.16 1.22 1.28 1.25 0.83 0.60 0.47 0.53 0.59 0.69 0.69 0.82 0.93 0.97 0.94 0.82 0.74
0.42 0.37 0.40 0.43 0.41 0.43 0.53 0.59 0.57 0.58 0.68 0.80 0.90 1.01 1.19 1.12 1.02 1.02 1.07 1.10 1.30 1.43 1.66 1.71 1.83 1.82 1.84 1.74 1.66 1.59 1.38 1.02 0.77 0.94 1.22 1.28 1.17 1.08 1.15 1.10 1.00 0.99 0.94
0.61 0.65 0.68 0.72 0.74 0.78 0.81 0.78 0.61 0.59 0.61 0.68 0.82 0.92 1.21 1.43 1.40 1.50 1.34 1.29 1.15 1.43 1.76 1.96 2.03 2.18 2.27 2.23 1.92 1.67 1.55 1.28 1.02 1.00 1.20 1.35 1.36 1.21 1.20 1.20 1.07 1.08 1.11
0.84 1.00 1.05 1.13 1.16 1.13 1.03 0.90 0.80 0.75 0.74 0.77 0.88 1.08 1.55 1.72 1.62 1.68 1.63 1.53 1.30 1.43 1.75 2.10 2.17 2.38 2.32 2.33 1.83 1.59 1.51 1.47 1.24 1.08 1.11 1.35 1.29 1.16 1.06 1.10 1.14 1.17 1.16
1.13 1.34 1.49 1.60 1.54 1.46 1.35 1.15 0.97 0.83 0.78 0.90 1.11 1.32 1.62 1.79 1.88 2.05 1.94 1.62 1.46 1.64 1.82 1.84 1.95 2.42 2.24 2.15 1.91 1.89 1.81 1.60 1.38 1.24 1.17 1.22 1.18 1.13 0.97 0.91 1.03 1.12 1.19
1.45 1.84 2.13 2.24 2.24 2.16 1.85 1.54 1.34 1.23 1.20 1.30 1.40 1.38 1.36 1.52 1.71 1.88 1.62 1.31 1.47 1.75 1.87 1.77 1.77 2.12 2.17 2.14 2.07 1.95 1.85 1.63 1.40 1.31 1.24 1.11 1.04 0.86 0.85 0.86 0.96 1.08 1.24
1.79 2.31 2.77 2.95 2.79 2.55 2.04 1.65 1.38 1.44 1.48 1.48 1.41 1.23 1.09 1.03 1.08 1.19 1.03 0.97 1.21 1.48 1.48 1.31 1.43 1.69 1.77 1.83 1.78 1.54 1.35 1.15 1.03 1.01 0.96 0.87 0.92 0.87 0.83 0.79 0.90 0.99 1.15
1.86 2.43 2.85 3.09 2.80 2.31 1.98 1.80 1.54 1.44 1.39 1.38 1.23 1.02 0.83 0.77 0.75 0.83 0.82 0.79 0.88 0.92 0.94 1.09 1.24 1.39 1.28 1.34 1.27 1.06 1.01 0.87 0.80 0.76 0.63 0.62 0.67 0.64 0.62 0.74 0.83 0.73 0.89
2.17 2.81 3.06 2.85 2.23 1.82 1.57 1.44 1.26 1.11 1.01 0.94 0.87 0.78 0.69 0.69 0.64 0.64 0.61 0.63 0.69 0.68 0.68 0.82 0.95 0.95 0.78 0.94 1.01 0.79 0.64 0.57 0.56 0.56 0.50 0.48 0.47 0.48 0.55 0.68 0.73 0.69 0.63
2.23 2.43 2.37 2.01 1.45 1.11 0.90 0.77 0.64 0.55 0.54 0.54 0.51 0.51 0.53 0.54 0.54 0.53 0.50 0.48 0.48 0.52 0.53 0.59 0.70 0.70 0.62 0.73 0.82 0.75 0.55 0.48 0.43 0.33 0.36 0.35 0.34 0.42 0.47 0.56 0.68 0.78 0.74
1.95 1.68 1.28 0.94 0.69 0.59 0.46 0.39 0.30 0.25 0.24 0.25 0.27 0.30 0.33 0.33 0.33 0.33 0.32 0.32 0.34 0.39 0.42 0.48 0.56 0.59 0.52 0.51 0.62 0.72 0.55 0.40 0.36 0.33 0.33 0.35 0.40 0.43 0.45 0.58 0.67 0.81 0.90
1.28 0.89 0.59 0.47 0.38 0.33 0.28 0.27 0.25 0.20 0.19 0.20 0.21 0.23 0.23 0.22 0.23 0.23 0.21 0.21 0.22 0.25 0.33 0.35 0.44 0.54 0.53 0.43 0.46 0.55 0.54 0.50 0.43 0.36 0.35 0.34 0.39 0.40 0.46 0.52 0.63 0.78 0.87
0.53 0.48 0.45 0.40 0.40 0.38 0.32 0.29 0.25 0.21 0.19 0.20 0.21 0.21 0.24 0.25 0.23 0.23 0.22 0.20 0.21 0.21 0.24 0.28 0.36 0.46 0.52 0.47 0.44 0.49 0.58 0.56 0.48 0.43 0.35 0.37 0.43 0.36 0.44 0.56 0.66 0.73 0.80
0.22 0.23 0.25 0.28 0.36 0.40 0.38 0.32 0.29 0.24 0.21 0.19 0.18 0.18 0.20 0.23 0.25 0.25 0.25 0.26 0.26 0.26 0.26 0.26 0.28 0.33 0.45 0.53 0.53 0.51 0.55 0.56 0.46 0.43 0.34 0.31 0.39 0.39 0.51 0.68 0.73 0.79 0.85

GEFSSE_prec_meanprecacc_072.txt.gz
Total_Precipitation_Accumulation
0.01 0.01 0.02 0.02 0.02 0.02 0.03 0.06 0.08 0.08 0.08 0.07 0.07 0.06 0.04 0.03 0.02 0.02 0.01 0.01 0.01 0.02 0.02 0.02 0.02 0.02 0.02 0.03 0.03 0.03 0.03 0.03 0.04 0.08 0.10 0.13 0.17 0.24 0.36 0.48 0.56 0.49 0.34
0.00 0.00 0.02 0.02 0.02 0.02 0.03 0.05 0.07 0.08 0.08 0.09 0.08 0.07 0.05 0.03 0.03 0.02 0.01 0.01 0.01 0.02 0.02 0.02 0.02 0.02 0.02 0.01 0.02 0.01 0.01 0.03 0.06 0.13 0.20 0.19 0.22 0.28 0.33 0.36 0.46 0.43 0.29
0.00 0.00 0.01 0.02 0.02 0.02 0.02 0.04 0.06 0.07 0.08 0.08 0.08 0.06 0.04 0.03 0.02 0.01 0.01 0.01 0.01 0.02 0.03 0.03 0.02 0.02 0.02 0.01 0.01 0.01 0.02 0.04 0.09 0.19 0.38 0.35 0.21 0.30 0.30 0.35 0.38 0.26 0.18
0.00 0.00 0.00 0.01 0.02 0.02 0.03 0.04 0.06 0.06 0.07 0.07 0.07 0.05 0.04 0.03 0.02 0.01 0.01 0.01 0.02 0.03 0.03 0.03 0.03 0.02 0.01 0.01 0.01 0.01 0.03 0.06 0.12 0.25 0.57 0.43 0.18 0.19 0.20 0.21 0.23 0.16 0.12
0.00 0.00 0.01 0.01 0.02 0.03 0.03 0.03 0.04 0.05 0.06 0.06 0.05 0.04 0.03 0.03 0.02 0.02 0.02 0.02 0.03 0.05 0.05 0.04 0.03 0.02 0.02 0.01 0.01 0.01 0.03 0.06 0.14 0.25 0.41 0.45 0.47 0.22 0.13 0.11 0.14 0.13 0.09
0.00 0.00 0.01 0.02 0.02 0.02 0.03 0.03 0.03 0.04 0.05 0.05 0.05 0.04 0.03 0.03 0.03 0.03 0.03 0.03 0.04 0.06 0.07 0.06 0.05 0.03 0.02 0.02 0.01 0.01 0.02 0.07 0.12 0.19 0.23 0.27 0.42 0.25 0.16 0.16 0.14 0.14 0.07
0.00 0.01 0.01 0.02 0.02 0.02 0.02 0.03 0.04 0.05 0.05 0.05 0.05 0.04 0.04 0.04 0.05 0.05 0.05 0.05 0.06 0.07 0.09 0.10 0.09 0.06 0.04 0.02 0.02 0.01 0.03 0.09 0.17 0.25 0.23 0.26 0.38 0.23 0.31 0.45 0.38 0.29 0.16
0.00 0.01 0.02 0.03 0.03 0.03 0.03 0.04 0.06 0.06 0.06 0.06 0.06 0.06 0.05 0.07 0.07 0.09 0.09 0.09 0.09 0.10 0.12 0.12 0.11 0.10 0.07 0.04 0.03 0.03 0.07 0.11 0.17 0.27 0.31 0.32 0.27 0.21 0.44 0.63 0.60 0.56 0.43
0.01 0.01 0.03 0.03 0.04 0.05 0.06 0.07 0.07 0.08 0.08 0.08 0.08 0.08 0.07 0.07 0.08 0.10 0.12 0.13 0.13 0.14 0.15 0.15 0.15 0.14 0.13 0.10 0.08 0.07 0.09 0.13 0.19 0.28 0.29 0.35 0.26 0.28 0.47 0.59 0.58 0.63 0.57
0.04 0.03 0.04 0.05 0.07 0.07 0.07 0.07 0.08 0.08 0.09 0.09 0.10 0.10 0.10 0.10 0.12 0.16 0.17 0.18 0.18 0.19 0.19 0.21 0.24 0.24 0.22 0.17 0.14 0.12 0.13 0.10 0.08 0.13 0.26 0.39 0.32 0.45 0.62 0.63 0.66 0.72 0.66
0.08 0.07 0.08 0.08 0.08 0.11 0.12 0.14 0.17 0.19 0.21 0.21 0.23 0.22 0.22 0.25 0.31 0.39 0.35 0.37 0.37 0.42 0.45 0.43 0.43 0.47 0.45 0.31 0.28 0.35 0.27 0.09 0.07 0.11 0.20 0.31 0.35 0.53 0.72 0.79 0.78 0.73 0.73
0.18 0.16 0.15 0.16 0.16 0.20 0.22 0.28 0.43 0.51 0.63 0.61 0.65 0.67 0.67 0.61 0.52 0.44 0.49 0.64 0.68 0.83 0.94 1.03 1.14 1.01 0.80 0.58 0.72 1.01 0.47 0.24 0.20 0.21 0.32 0.41 0.54 0.76 0.88 0.89 0.81 0.71 0.68
0.34 0.27 0.24 0.26 0.27 0.33 0.40 0.46 0.57 0.67 0.86 0.93 0.91 1.02 1.11 0.99 0.81 0.70 0.78 0.98 1.07 1.24 1.33 1.62 1.80 1.28 1.19 1.24 1.31 1.30 0.88 0.65 0.52 0.61 0.71 0.90 0.97 1.12 1.11 1.06 1.00 0.86 0.77
0.47 0.41 0.44 0.48 0.45 0.48 0.59 0.66 0.62 0.62 0.72 0.84 0.95 1.05 1.23 1.14 1.04 1.06 1.09 1.14 1.36 1.51 1.73 1.76 1.87 1.86 1.88 1.77 1.70 1.64 1.48 1.12 0.87 1.11 1.45 1.57 1.48 1.37 1.39 1.25 1.10 1.04 0.98
0.67 0.69 0.72 0.76 0.78 0.82 0.85 0.82 0.64 0.61 0.64 0.70 0.84 0.94 1.23 1.44 1.41 1.52 1.35 1.29 1.17 1.46 1.82 2.02 2.08 2.22 2.31 2.26 1.96 1.70 1.60 1.36 1.14 1.18 1.42 1.69 1.74 1.58 1.49 1.41 1.21 1.18 1.17
0.91 1.05 1.10 1.17 1.19 1.16 1.06 0.92 0.82 0.77 0.75 0.77 0.89 1.09 1.56 1.73 1.63 1.69 1.64 1.54 1.31 1.45 1.77 2.13 2.21 2.41 2.36 2.38 1.87 1.63 1.55 1.53 1.31 1.18 1.25 1.56 1.54 1.41 1.30 1.31 1.31 1.30 1.27
1.19 1.40 1.54 1.64 1.57 1.49 1.37 1.17 0.98 0.84 0.78 0.90 1.11 1.32 1.62 1.79 1.88 2.06 1.95 1.63 1.47 1.65 1.84 1.85 1.97 2.43 2.25 2.17 1.94 1.92 1.84 1.64 1.42 1.29 1.24 1.31 1.27 1.32 1.21 1.14 1.21 1.29 1.33
1.51 1.89 2.17 2.27 2.27 2.18 1.86 1.55 1.34 1.24 1.20 1.30 1.40 1.38 1.36 1.52 1.71 1.88 1.62 1.31 1.47 1.75 1.88 1.78 1.78 2.13 2.17 2.15 2.08 1.97 1.86 1.65 1.43 1.33 1.27 1.17 1.11 0.96 0.99 1.04 1.15 1.26 1.41
1.84 2.35 2.80 2.98 2.80 2.55 2.05 1.65 1.38 1.44 1.48 1.48 1.41 1.23 1.09 1.03 1.08 1.19 1.03 0.98 1.21 1.48 1.48 1.31 1.43 1.69 1.77 1.84 1.79 1.55 1.36 1.16 1.04 1.02 0.98 0.90 0.97 0.94 0.91 0.89 1.06 1.16 1.33
1.91 2.46 2.86 3.10 2.80 2.32 1.98 1.80 1.54 1.44 1.39 1.38 1.23 1.02 0.83 0.77 0.75 0.83 0.82 0.79 0.88 0.92 0.94 1.09 1.24 1.39 1.28 1.34 1.28 1.07 1.02 0.87 0.81 0.77 0.64 0.63 0.70 0.69 0.67 0.79 0.91 0.84 1.04
2.21 2.83 3.07 2.86 2.23 1.82 1.57 1.44 1.27 1.12 1.02 0.95 0.87 0.78 0.69 0.69 0.64 0.64 0.61 0.63 0.69 0.68 0.68 0.82 0.95 0.95 0.78 0.94 1.01 0.80 0.65 0.58 0.57 0.56 0.50 0.49 0.49 0.51 0.60 0.74 0.79 0.76 0.72
2.28 2.45 2.37 2.01 1.45 1.11 0.90 0.77 0.64 0.55 0.54 0.54 0.52 0.52 0.53 0.54 0.54 0.53 0.50 0.48 0.48 0.52 0.53 0.59 0.70 0.70 0.62 0.73 0.82 0.75 0.55 0.48 0.43 0.34 0.37 0.37 0.36 0.45 0.51 0.61 0.76 0.86 0.82
2.06 1.73 1.29 0.95 0.69 0.60 0.47 0.39 0.30 0.25 0.24 0.25 0.27 0.30 0.33 0.33 0.33 0.33 0.32 0.32 0.34 0.39 0.42 0.48 0.56 0.59 0.52 0.51 0.62 0.72 0.55 0.40 0.37 0.34 0.34 0.36 0.42 0.45 0.48 0.62 0.72 0.86 0.96
1.44 0.97 0.63 0.50 0.40 0.34 0.29 0.28 0.25 0.20 0.19 0.20 0.21 0.23 0.23 0.22 0.23 0.23 0.21 0.21 0.22 0.25 0.33 0.35 0.44 0.54 0.53 0.43 0.46 0.55 0.55 0.50 0.43 0.36 0.35 0.34 0.40 0.42 0.48 0.54 0.66 0.82 0.92
0.58 0.54 0.50 0.44 0.42 0.39 0.32 0.29 0.25 0.21 0.19 0.20 0.21 0.22 0.24 0.25 0.23 0.23 0.22 0.20 0.21 0.21 0.24 0.28 0.36 0.46 0.52 0.47 0.44 0.49 0.58 0.57 0.48 0.43 0.35 0.37 0.43 0.36 0.45 0.57 0.67 0.76 0.84
0.23 0.24 0.26 0.28 0.36 0.40 0.38 0.32 0.29 0.24 0.21 0.19 0.18 0.18 0.20 0.23 0.25 0.25 0.25 0.26 0.26 0.26 0.26 0.26 0.28 0.33 0.45 0.53 0.53 0.51 0.55 0.56 0.46 0.43 0.34 0.31 0.39 0.39 0.51 0.69 0.74 0.80 0.87

GEFSSE_prec_meanprecacc_078.txt.gz
Total_Precipitation_Accumulation
0.02 0.04 0.08 0.09 0.06 0.04 0.05 0.07 0.09 0.09 0.08 0.08 0.08 0.06 0.04 0.03 0.02 0.02 0.01 0.01 0.01 0.02 0.02 0.02 0.03 0.03 0.03 0.03 0.04 0.03 0.03 0.03 0.05 0.09 0.13 0.15 0.21 0.31 0.44 0.56 0.60 0.51 0.37
0.00 0.02 0.07 0.08 0.07 0.05 0.05 0.06 0.08 0.09 0.09 0.09 0.08 0.07 0.05 0.04 0.03 0.02 0.01 0.01 0.02 0.02 0.02 0.02 0.02 0.02 0.02 0.02 0.02 0.01 0.02 0.04 0.09 0.17 0.26 0.25 0.32 0.39 0.43 0.41 0.49 0.45 0.32
0.00 0.01 0.04 0.08 0.07 0.05 0.04 0.06 0.07 0.08 0.08 0.09 0.08 0.07 0.05 0.03 0.02 0.02 0.01 0.01 0.02 0.03 0.03 0.03 0.03 0.02 0.02 0.02 0.01 0.01 0.03 0.06 0.12 0.23 0.43 0.39 0.32 0.44 0.39 0.38 0.41 0.29 0.21
0.01 0.01 0.01 0.04 0.06 0.05 0.05 0.06 0.07 0.07 0.08 0.07 0.07 0.06 0.04 0.03 0.02 0.01 0.01 0.02 0.02 0.03 0.03 0.03 0.03 0.02 0.01 0.01 0.01 0.01 0.04 0.10 0.19 0.29 0.58 0.45 0.22 0.27 0.28 0.26 0.26 0.18 0.14
0.01 0.00 0.01 0.03 0.05 0.05 0.05 0.05 0.05 0.06 0.06 0.06 0.06 0.05 0.03 0.03 0.03 0.02 0.02 0.03 0.04 0.05 0.05 0.04 0.03 0.03 0.02 0.01 0.01 0.02 0.05 0.10 0.21 0.29 0.41 0.46 0.50 0.28 0.20 0.18 0.18 0.16 0.10
0.01 0.01 0.02 0.04 0.04 0.05 0.05 0.04 0.04 0.05 0.05 0.05 0.05 0.05 0.04 0.04 0.04 0.04 0.04 0.04 0.05 0.06 0.08 0.07 0.05 0.04 0.02 0.02 0.02 0.02 0.05 0.10 0.15 0.19 0.23 0.28 0.44 0.28 0.20 0.22 0.17 0.15 0.09
0.01 0.02 0.03 0.05 0.05 0.04 0.04 0.04 0.05 0.05 0.05 0.06 0.05 0.05 0.04 0.05 0.06 0.06 0.07 0.07 0.07 0.09 0.10 0.11 0.09 0.06 0.04 0.03 0.02 0.02 0.05 0.12 0.18 0.25 0.24 0.27 0.39 0.26 0.35 0.50 0.40 0.30 0.17
0.02 0.02 0.03 0.05 0.06 0.06 0.05 0.05 0.07 0.07 0.07 0.07 0.07 0.07 0.07 0.08 0.09 0.11 0.12 0.11 0.12 0.13 0.14 0.15 0.13 0.11 0.07 0.05 0.05 0.05 0.09 0.13 0.18 0.28 0.31 0.33 0.29 0.24 0.47 0.68 0.63 0.57 0.43
0.02 0.02 0.04 0.04 0.06 0.07 0.08 0.08 0.08 0.09 0.10 0.10 0.10 0.10 0.09 0.09 0.11 0.13 0.15 0.16 0.17 0.18 0.18 0.18 0.18 0.17 0.15 0.12 0.10 0.09 0.11 0.14 0.20 0.29 0.30 0.36 0.29 0.32 0.50 0.62 0.61 0.64 0.57
0.05 0.05 0.05 0.06 0.08 0.08 0.08 0.08 0.09 0.09 0.10 0.11 0.12 0.13 0.13 0.14 0.15 0.19 0.21 0.23 0.25 0.25 0.24 0.26 0.27 0.28 0.26 0.21 0.17 0.16 0.16 0.12 0.09 0.15 0.27 0.40 0.35 0.50 0.66 0.65 0.69 0.75 0.67
0.10 0.10 0.10 0.10 0.10 0.12 0.12 0.15 0.19 0.21 0.24 0.23 0.26 0.26 0.25 0.27 0.34 0.42 0.39 0.44 0.46 0.52 0.53 0.50 0.50 0.53 0.51 0.36 0.33 0.39 0.30 0.11 0.09 0.13 0.23 0.33 0.38 0.60 0.79 0.84 0.81 0.76 0.75
0.21 0.18 0.17 0.18 0.17 0.21 0.23 0.30 0.45 0.53 0.64 0.63 0.67 0.69 0.68 0.62 0.53 0.46 0.53 0.70 0.76 0.92 1.03 1.12 1.21 1.07 0.85 0.63 0.77 1.07 0.51 0.26 0.22 0.23 0.34 0.43 0.57 0.83 0.98 0.97 0.86 0.74 0.71
0.39 0.31 0.28 0.29 0.30 0.36 0.42 0.47 0.58 0.69 0.88 0.95 0.92 1.03 1.12 1.00 0.83 0.72 0.81 1.01 1.11 1.29 1.37 1.66 1.83 1.31 1.22 1.29 1.35 1.34 0.92 0.68 0.54 0.62 0.73 0.92 1.01 1.21 1.22 1.19 1.10 0.92 0.80
0.58 0.49 0.52 0.55 0.52 0.54 0.63 0.70 0.65 0.65 0.75 0.87 0.97 1.08 1.25 1.16 1.06 1.09 1.11 1.16 1.38 1.53 1.76 1.78 1.89 1.88 1.91 1.81 1.74 1.69 1.53 1.17 0.90 1.13 1.47 1.61 1.56 1.49 1.54 1.40 1.22 1.14 1.05
0.84 0.83 0.83 0.85 0.86 0.91 0.91 0.86 0.67 0.64 0.67 0.72 0.86 0.95 1.24 1.45 1.41 1.53 1.36 1.31 1.19 1.49 1.84 2.05 2.10 2.25 2.34 2.30 1.99 1.73 1.63 1.40 1.17 1.20 1.44 1.74 1.84 1.70 1.63 1.58 1.37 1.30 1.27
1.12 1.22 1.23 1.29 1.31 1.29 1.16 0.99 0.86 0.80 0.77 0.78 0.90 1.09 1.56 1.73 1.63 1.70 1.64 1.55 1.33 1.47 1.79 2.15 2.23 2.44 2.39 2.42 1.91 1.67 1.59 1.56 1.33 1.21 1.27 1.59 1.61 1.51 1.43 1.49 1.52 1.48 1.43
1.47 1.62 1.73 1.81 1.70 1.61 1.47 1.23 1.01 0.86 0.79 0.90 1.11 1.32 1.62 1.79 1.88 2.06 1.95 1.63 1.48 1.66 1.85 1.87 1.98 2.44 2.28 2.21 1.98 1.95 1.87 1.67 1.46 1.32 1.27 1.33 1.31 1.41 1.33 1.30 1.41 1.51 1.57
1.79 2.12 2.34 2.41 2.39 2.28 1.95 1.61 1.37 1.25 1.20 1.30 1.40 1.38 1.36 1.52 1.71 1.88 1.62 1.31 1.48 1.76 1.89 1.79 1.79 2.14 2.18 2.17 2.10 1.99 1.89 1.69 1.47 1.37 1.30 1.19 1.14 1.00 1.09 1.20 1.34 1.48 1.67
2.09 2.55 2.93 3.09 2.91 2.63 2.10 1.69 1.40 1.45 1.48 1.48 1.41 1.23 1.09 1.03 1.08 1.19 1.03 0.98 1.21 1.48 1.48 1.31 1.43 1.69 1.78 1.84 1.80 1.56 1.37 1.18 1.06 1.05 1.00 0.92 0.99 0.97 0.97 0.99 1.22 1.36 1.60
2.18 2.65 3.01 3.20 2.89 2.38 2.02 1.82 1.55 1.44 1.39 1.38 1.23 1.02 0.83 0.77 0.75 0.83 0.82 0.79 0.88 0.92 0.94 1.09 1.24 1.39 1.28 1.34 1.28 1.07 1.02 0.87 0.81 0.78 0.65 0.65 0.72 0.71 0.71 0.84 0.98 0.93 1.21
2.49 3.01 3.18 2.92 2.29 1.87 1.60 1.45 1.27 1.12 1.02 0.95 0.87 0.78 0.69 0.69 0.64 0.64 0.61 0.63 0.69 0.68 0.68 0.82 0.95 0.95 0.78 0.94 1.01 0.80 0.65 0.58 0.57 0.56 0.51 0.50 0.50 0.52 0.62 0.76 0.82 0.81 0.78
2.54 2.62 2.49 2.09 1.49 1.14 0.92 0.78 0.64 0.55 0.54 0.54 0.52 0.52 0.53 0.54 0.54 0.53 0.50 0.48 0.48 0.52 0.53 0.59 0.70 0.70 0.62 0.73 0.82 0.75 0.55 0.48 0.43 0.34 0.37 0.37 0.36 0.46 0.52 0.63 0.78 0.89 0.87
2.26 1.86 1.41 1.04 0.73 0.62 0.48 0.40 0.30 0.25 0.24 0.25 0.27 0.30 0.33 0.33 0.33 0.33 0.32 0.32 0.34 0.39 0.42 0.48 0.56 0.59 0.52 0.51 0.62 0.72 0.55 0.40 0.37 0.34 0.34 0.36 0.42 0.46 0.49 0.63 0.73 0.89 1.00
1.61 1.10 0.73 0.56 0.43 0.35 0.29 0.28 0.25 0.20 0.19 0.20 0.21 0.23 0.23 0.22 0.23 0.23 0.21 0.21 0.22 0.25 0.33 0.35 0.44 0.54 0.53 0.43 0.46 0.55 0.55 0.50 0.43 0.36 0.35 0.34 0.40 0.42 0.48 0.55 0.67 0.84 0.94
0.66 0.62 0.57 0.48 0.43 0.39 0.32 0.29 0.25 0.21 0.19 0.20 0.21 0.22 0.24 0.25 0.23 0.23 0.22 0.20 0.21 0.21 0.24 0.28 0.36 0.46 0.52 0.47 0.44 0.49 0.58 0.57 0.48 0.43 0.35 0.37 0.43 0.36 0.45 0.58 0.68 0.76 0.85
0.25 0.28 0.29 0.30 0.37 0.41 0.38 0.32 0.29 0.24 0.21 0.19 0.18 0.18 0.20 0.23 0.25 0.25 0.25 0.26 0.26 0.26 0.26 0.26 0.28 0.33 0.45 0.53 0.53 0.51 0.55 0.56 0.46 0.43 0.34 0.31 0.39 0.39 0.51 0.69 0.74 0.80 0.87

GEFSSE_prec_meanprecacc_084.txt.gz
Total_Precipitation_Accumulation
0.02 0.04 0.10 0.12 0.09 0.07 0.07 0.08 0.10 0.09 0.08 0.08 0.08 0.06 0.04 0.03 0.02 0.02 0.01 0.01 0.02 0.02 0.03 0.02 0.03 0.03 0.03 0.03 0.04 0.04 0.04 0.05 0.07 0.11 0.17 0.20 0.26 0.36 0.52 0.64 0.66 0.54 0.39
0.00 0.02 0.09 0.12 0.11 0.09 0.07 0.07 0.09 0.09 0.09 0.09 0.08 0.07 0.05 0.04 0.03 0.02 0.02 0.02 0.02 0.03 0.03 0.03 0.03 0.03 0.02 0.02 0.02 0.02 0.03 0.06 0.12 0.21 0.31 0.31 0.38 0.47 0.53 0.50 0.55 0.48 0.34
0.00 0.01 0.05 0.13 0.13 0.10 0.07 0.08 0.08 0.09 0.09 0.09 0.08 0.07 0.05 0.04 0.03 0.02 0.02 0.02 0.02 0.03 0.03 0.03 0.03 0.02 0.02 0.02 0.02 0.02 0.04 0.08 0.15 0.27 0.48 0.46 0.38 0.51 0.47 0.44 0.45 0.30 0.23
0.01 0.01 0.01 0.07 0.12 0.11 0.09 0.09 0.08 0.08 0.08 0.08 0.07 0.06 0.04 0.03 0.02 0.02 0.02 0.03 0.03 0.04 0.04 0.04 0.03 0.02 0.02 0.02 0.02 0.02 0.05 0.11 0.21 0.31 0.62 0.49 0.25 0.31 0.35 0.30 0.29 0.20 0.16
0.01 0.01 0.02 0.06 0.09 0.11 0.10 0.09 0.08 0.07 0.07 0.06 0.06 0.05 0.04 0.03 0.03 0.03 0.03 0.04 0.04 0.05 0.06 0.05 0.04 0.03 0.02 0.02 0.01 0.03 0.06 0.12 0.22 0.30 0.42 0.49 0.55 0.32 0.24 0.21 0.20 0.18 0.13
0.01 0.01 0.04 0.07 0.09 0.10 0.10 0.09 0.07 0.06 0.06 0.06 0.05 0.05 0.04 0.04 0.04 0.04 0.05 0.06 0.06 0.07 0.09 0.08 0.06 0.04 0.03 0.02 0.02 0.03 0.07 0.14 0.17 0.20 0.24 0.29 0.47 0.31 0.25 0.26 0.20 0.17 0.11
0.02 0.03 0.05 0.09 0.11 0.10 0.10 0.09 0.09 0.07 0.07 0.06 0.06 0.05 0.05 0.06 0.07 0.08 0.08 0.09 0.08 0.10 0.12 0.12 0.10 0.07 0.05 0.04 0.04 0.04 0.09 0.17 0.22 0.27 0.26 0.28 0.41 0.28 0.40 0.55 0.43 0.31 0.18
0.03 0.03 0.05 0.10 0.13 0.13 0.12 0.11 0.11 0.10 0.09 0.09 0.08 0.08 0.08 0.09 0.11 0.13 0.14 0.15 0.16 0.16 0.17 0.17 0.14 0.12 0.09 0.07 0.07 0.08 0.13 0.17 0.21 0.30 0.33 0.33 0.29 0.25 0.51 0.74 0.67 0.58 0.44
0.04 0.04 0.06 0.07 0.10 0.13 0.15 0.15 0.13 0.13 0.13 0.13 0.12 0.11 0.11 0.11 0.12 0.14 0.18 0.19 0.20 0.22 0.22 0.20 0.20 0.19 0.17 0.13 0.11 0.12 0.16 0.19 0.24 0.32 0.32 0.38 0.29 0.33 0.52 0.66 0.66 0.65 0.58
0.07 0.08 0.08 0.09 0.12 0.12 0.12 0.13 0.14 0.14 0.13 0.13 0.14 0.15 0.15 0.15 0.17 0.21 0.23 0.25 0.28 0.28 0.27 0.29 0.31 0.32 0.29 0.23 0.19 0.18 0.19 0.15 0.11 0.17 0.32 0.43 0.36 0.52 0.69 0.69 0.73 0.77 0.68
0.12 0.14 0.14 0.15 0.15 0.16 0.16 0.19 0.25 0.25 0.26 0.25 0.28 0.29 0.29 0.32 0.38 0.46 0.42 0.46 0.49 0.54 0.56 0.55 0.56 0.58 0.54 0.39 0.35 0.42 0.33 0.13 0.10 0.17 0.28 0.36 0.41 0.64 0.85 0.88 0.86 0.80 0.77
0.23 0.21 0.21 0.22 0.23 0.26 0.27 0.35 0.52 0.57 0.68 0.66 0.72 0.74 0.75 0.68 0.57 0.50 0.56 0.74 0.82 0.98 1.09 1.18 1.27 1.11 0.89 0.68 0.81 1.10 0.53 0.27 0.24 0.26 0.38 0.45 0.62 0.91 1.07 1.06 0.93 0.79 0.74
0.42 0.34 0.31 0.34 0.35 0.42 0.49 0.54 0.66 0.76 0.92 0.99 0.97 1.08 1.17 1.04 0.86 0.76 0.86 1.05 1.16 1.34 1.43 1.72 1.89 1.36 1.28 1.36 1.41 1.38 0.96 0.71 0.57 0.66 0.77 0.96 1.09 1.32 1.34 1.30 1.19 1.00 0.86
0.61 0.53 0.57 0.59 0.56 0.59 0.70 0.78 0.75 0.73 0.81 0.94 1.03 1.12 1.29 1.20 1.09 1.12 1.15 1.19 1.41 1.56 1.80 1.83 1.95 1.94 1.96 1.85 1.78 1.73 1.57 1.21 0.94 1.18 1.54 1.65 1.63 1.61 1.69 1.56 1.36 1.25 1.13
0.89 0.88 0.87 0.88 0.90 0.97 1.00 0.97 0.78 0.74 0.75 0.79 0.90 0.98 1.26 1.47 1.43 1.55 1.38 1.34 1.21 1.51 1.87 2.08 2.14 2.30 2.38 2.33 2.02 1.76 1.67 1.44 1.21 1.24 1.48 1.79 1.90 1.78 1.78 1.77 1.53 1.43 1.39
1.17 1.28 1.28 1.34 1.37 1.37 1.26 1.12 0.97 0.89 0.85 0.82 0.91 1.10 1.56 1.73 1.64 1.70 1.65 1.57 1.34 1.49 1.82 2.17 2.26 2.47 2.42 2.44 1.93 1.69 1.61 1.59 1.36 1.23 1.30 1.63 1.65 1.57 1.53 1.66 1.70 1.65 1.60
1.53 1.68 1.79 1.88 1.77 1.71 1.59 1.34 1.12 0.94 0.83 0.92 1.11 1.33 1.63 1.79 1.88 2.06 1.95 1.63 1.48 1.67 1.86 1.88 2.00 2.46 2.30 2.23 2.00 1.97 1.90 1.70 1.48 1.34 1.29 1.36 1.35 1.45 1.41 1.43 1.59 1.70 1.76
1.86 2.21 2.44 2.48 2.47 2.40 2.05 1.71 1.47 1.31 1.22 1.30 1.40 1.38 1.36 1.53 1.71 1.89 1.62 1.31 1.48 1.76 1.90 1.80 1.80 2.16 2.20 2.18 2.12 2.01 1.91 1.71 1.48 1.38 1.32 1.21 1.17 1.03 1.15 1.30 1.48 1.64 1.84
2.23 2.71 3.08 3.22 3.04 2.74 2.18 1.77 1.46 1.49 1.49 1.49 1.41 1.23 1.10 1.03 1.08 1.19 1.03 0.98 1.21 1.48 1.48 1.31 1.44 1.70 1.78 1.85 1.80 1.57 1.38 1.20 1.08 1.06 1.02 0.94 1.02 1.01 1.04 1.07 1.30 1.47 1.75
2.38 2.84 3.17 3.34 3.02 2.47 2.08 1.88 1.58 1.47 1.40 1.38 1.23 1.02 0.83 0.77 0.75 0.83 0.82 0.79 0.88 0.92 0.94 1.10 1.25 1.39 1.28 1.35 1.28 1.07 1.02 0.88 0.82 0.79 0.67 0.66 0.73 0.73 0.75 0.92 1.11 1.04 1.32
2.71 3.22 3.33 3.04 2.38 1.94 1.66 1.51 1.30 1.14 1.02 0.95 0.87 0.78 0.69 0.69 0.64 0.64 0.61 0.63 0.69 0.68 0.68 0.82 0.95 0.95 0.79 0.94 1.01 0.80 0.65 0.58 0.57 0.56 0.51 0.50 0.50 0.54 0.65 0.83 0.94 0.93 0.89
2.71 2.81 2.62 2.19 1.56 1.20 0.98 0.84 0.68 0.57 0.54 0.54 0.52 0.52 0.53 0.54 0.54 0.53 0.50 0.48 0.48 0.52 0.54 0.59 0.71 0.71 0.62 0.74 0.83 0.76 0.55 0.48 0.43 0.34 0.37 0.37 0.37 0.47 0.53 0.64 0.82 0.97 0.96
2.40 1.99 1.51 1.11 0.78 0.66 0.52 0.44 0.32 0.26 0.24 0.25 0.27 0.30 0.33 0.33 0.33 0.33 0.32 0.32 0.34 0.39 0.42 0.48 0.56 0.59 0.53 0.51 0.63 0.72 0.55 0.41 0.37 0.34 0.34 0.36 0.42 0.46 0.49 0.64 0.74 0.93 1.06
1.71 1.20 0.84 0.62 0.46 0.37 0.31 0.30 0.26 0.21 0.20 0.21 0.22 0.23 0.24 0.22 0.23 0.23 0.21 0.21 0.22 0.25 0.33 0.35 0.44 0.54 0.53 0.43 0.46 0.55 0.55 0.50 0.43 0.37 0.35 0.35 0.40 0.42 0.48 0.55 0.68 0.85 0.96
0.75 0.70 0.64 0.52 0.45 0.41 0.35 0.31 0.27 0.22 0.20 0.20 0.21 0.22 0.25 0.25 0.23 0.23 0.22 0.21 0.21 0.21 0.24 0.28 0.36 0.46 0.52 0.47 0.44 0.49 0.58 0.57 0.48 0.43 0.36 0.37 0.43 0.36 0.45 0.59 0.69 0.78 0.86
0.32 0.33 0.33 0.33 0.39 0.42 0.39 0.33 0.30 0.26 0.22 0.20 0.18 0.19 0.20 0.23 0.25 0.25 0.25 0.26 0.26 0.26 0.26 0.26 0.28 0.33 0.45 0.53 0.53 0.51 0.55 0.56 0.46 0.43 0.34 0.32 0.39 0.39 0.51 0.69 0.75 0.82 0.88

GEFSSE_prec_meanprecacc_090.txt.gz
Total_Precipitation_Accumulation
0.02 0.04 0.10 0.12 0.10 0.08 0.09 0.12 0.14 0.13 0.11 0.09 0.09 0.07 0.04 0.03 0.03 0.03 0.02 0.02 0.03 0.04 0.03 0.03 0.04 0.04 0.04 0.04 0.04 0.04 0.04 0.06 0.10 0.16 0.20 0.23 0.29 0.41 0.57 0.71 0.76 0.59 0.41
0.01 0.02 0.09 0.13 0.12 0.10 0.09 0.11 0.12 0.12 0.11 0.10 0.09 0.08 0.05 0.04 0.04 0.03 0.03 0.03 0.04 0.04 0.04 0.04 0.04 0.04 0.03 0.03 0.03 0.03 0.04 0.08 0.17 0.27 0.37 0.35 0.40 0.51 0.58 0.57 0.68 0.52 0.36
0.00 0.01 0.05 0.13 0.14 0.11 0.10 0.11 0.12 0.11 0.10 0.10 0.08 0.07 0.05 0.04 0.04 0.03 0.03 0.03 0.03 0.04 0.04 0.05 0.04 0.04 0.03 0.03 0.03 0.03 0.05 0.11 0.21 0.38 0.68 0.62 0.41 0.53 0.53 0.52 0.54 0.33 0.25
0.01 0.01 0.01 0.08 0.13 0.13 0.11 0.12 0.12 0.10 0.09 0.08 0.08 0.06 0.05 0.04 0.03 0.03 0.03 0.03 0.04 0.05 0.05 0.05 0.04 0.03 0.03 0.03 0.03 0.03 0.07 0.14 0.26 0.51 0.92 0.66 0.29 0.33 0.39 0.34 0.33 0.22 0.18
0.01 0.01 0.02 0.06 0.10 0.13 0.13 0.13 0.12 0.10 0.09 0.07 0.06 0.05 0.04 0.03 0.03 0.04 0.04 0.04 0.05 0.06 0.07 0.06 0.04 0.04 0.02 0.02 0.02 0.04 0.08 0.14 0.28 0.47 0.60 0.65 0.65 0.34 0.27 0.23 0.22 0.20 0.16
0.01 0.01 0.04 0.08 0.10 0.12 0.13 0.13 0.11 0.09 0.07 0.07 0.06 0.05 0.04 0.04 0.05 0.05 0.06 0.06 0.06 0.08 0.10 0.09 0.06 0.05 0.04 0.03 0.03 0.04 0.08 0.16 0.25 0.29 0.30 0.40 0.56 0.33 0.27 0.28 0.23 0.20 0.15
0.02 0.03 0.05 0.10 0.12 0.12 0.13 0.13 0.12 0.10 0.08 0.07 0.06 0.06 0.06 0.06 0.08 0.09 0.10 0.10 0.10 0.11 0.13 0.13 0.11 0.08 0.06 0.05 0.04 0.05 0.09 0.19 0.28 0.30 0.29 0.38 0.49 0.30 0.43 0.59 0.47 0.34 0.22
0.03 0.03 0.05 0.10 0.14 0.15 0.15 0.15 0.15 0.13 0.11 0.10 0.09 0.09 0.09 0.10 0.11 0.14 0.15 0.16 0.17 0.18 0.18 0.17 0.15 0.12 0.09 0.07 0.08 0.08 0.13 0.18 0.23 0.33 0.36 0.39 0.32 0.27 0.53 0.77 0.71 0.61 0.47
0.05 0.05 0.06 0.07 0.10 0.14 0.18 0.18 0.17 0.16 0.15 0.14 0.13 0.12 0.12 0.12 0.13 0.15 0.18 0.19 0.20 0.22 0.22 0.21 0.21 0.20 0.18 0.13 0.12 0.13 0.16 0.19 0.26 0.35 0.38 0.42 0.30 0.34 0.54 0.67 0.68 0.68 0.60
0.08 0.08 0.09 0.10 0.14 0.13 0.14 0.15 0.17 0.16 0.15 0.14 0.15 0.16 0.17 0.16 0.18 0.22 0.25 0.26 0.28 0.28 0.28 0.29 0.32 0.33 0.29 0.23 0.19 0.19 0.20 0.16 0.14 0.27 0.45 0.48 0.37 0.53 0.71 0.70 0.75 0.80 0.71
0.17 0.17 0.15 0.17 0.17 0.20 0.19 0.20 0.26 0.27 0.27 0.28 0.31 0.30 0.34 0.45 0.52 0.58 0.49 0.49 0.50 0.55 0.57 0.56 0.56 0.59 0.56 0.40 0.35 0.42 0.34 0.16 0.22 0.36 0.54 0.45 0.44 0.66 0.87 0.91 0.89 0.84 0.80
0.28 0.30 0.29 0.25 0.24 0.28 0.33 0.39 0.60 0.64 0.72 0.76 0.84 0.84 0.89 0.82 0.70 0.59 0.62 0.76 0.83 0.99 1.10 1.20 1.29 1.12 0.91 0.76 0.88 1.12 0.54 0.32 0.36 0.43 0.61 0.54 0.65 0.94 1.11 1.11 0.98 0.83 0.79
0.48 0.42 0.43 0.39 0.38 0.45 0.58 0.63 0.76 0.87 1.02 1.10 1.07 1.15 1.25 1.09 0.91 0.81 0.93 1.11 1.21 1.37 1.48 1.78 1.94 1.42 1.37 1.50 1.52 1.44 1.00 0.82 0.70 0.83 0.95 1.05 1.13 1.36 1.39 1.36 1.25 1.05 0.91
0.66 0.61 0.71 0.67 0.62 0.67 0.76 0.86 0.82 0.80 0.89 1.03 1.12 1.16 1.33 1.24 1.13 1.16 1.19 1.25 1.47 1.63 1.87 1.89 2.04 2.03 2.04 1.92 1.86 1.79 1.60 1.29 1.17 1.40 1.74 1.73 1.68 1.65 1.75 1.63 1.43 1.31 1.19
0.94 0.95 0.95 0.96 0.99 1.08 1.09 1.05 0.84 0.81 0.81 0.84 0.96 1.02 1.29 1.50 1.47 1.58 1.41 1.36 1.24 1.54 1.92 2.13 2.18 2.34 2.42 2.37 2.06 1.80 1.70 1.48 1.28 1.40 1.66 1.89 1.95 1.82 1.83 1.84 1.62 1.51 1.47
1.24 1.36 1.38 1.44 1.46 1.47 1.34 1.20 1.07 0.93 0.88 0.84 0.94 1.12 1.58 1.75 1.66 1.72 1.67 1.58 1.35 1.51 1.85 2.20 2.28 2.49 2.44 2.47 1.96 1.71 1.63 1.61 1.39 1.28 1.38 1.73 1.71 1.61 1.57 1.71 1.76 1.72 1.68
1.63 1.77 1.90 1.98 1.87 1.83 1.70 1.42 1.18 0.97 0.83 0.93 1.12 1.33 1.63 1.79 1.88 2.06 1.95 1.64 1.49 1.67 1.87 1.90 2.02 2.47 2.31 2.25 2.03 2.00 1.93 1.72 1.51 1.37 1.33 1.42 1.42 1.50 1.46 1.47 1.65 1.76 1.83
2.02 2.39 2.59 2.60 2.59 2.52 2.15 1.80 1.54 1.34 1.23 1.31 1.41 1.38 1.36 1.53 1.71 1.89 1.62 1.31 1.48 1.76 1.90 1.81 1.81 2.17 2.21 2.19 2.15 2.04 1.94 1.73 1.51 1.40 1.34 1.24 1.21 1.08 1.20 1.36 1.55 1.69 1.91
2.43 2.91 3.29 3.43 3.22 2.87 2.31 1.88 1.53 1.53 1.51 1.49 1.41 1.23 1.10 1.03 1.08 1.19 1.03 0.98 1.21 1.48 1.48 1.32 1.44 1.71 1.79 1.86 1.82 1.59 1.41 1.22 1.10 1.09 1.04 0.96 1.05 1.04 1.07 1.13 1.36 1.52 1.81
2.53 3.02 3.36 3.52 3.18 2.60 2.20 2.01 1.70 1.53 1.42 1.38 1.24 1.02 0.83 0.77 0.75 0.83 0.82 0.79 0.88 0.92 0.94 1.10 1.25 1.39 1.29 1.35 1.28 1.07 1.03 0.90 0.84 0.80 0.68 0.67 0.75 0.75 0.78 0.97 1.18 1.10 1.38
2.85 3.37 3.52 3.26 2.56 2.08 1.77 1.62 1.41 1.22 1.05 0.95 0.87 0.78 0.69 0.69 0.64 0.64 0.61 0.63 0.69 0.69 0.68 0.83 0.95 0.96 0.79 0.95 1.02 0.80 0.65 0.58 0.57 0.56 0.51 0.50 0.51 0.55 0.67 0.88 1.01 1.01 0.96
2.83 2.95 2.78 2.38 1.75 1.35 1.12 0.97 0.78 0.64 0.57 0.55 0.52 0.52 0.53 0.54 0.54 0.53 0.50 0.48 0.49 0.52 0.54 0.60 0.71 0.71 0.63 0.74 0.83 0.76 0.56 0.50 0.44 0.34 0.37 0.38 0.37 0.48 0.55 0.67 0.88 1.06 1.04
2.52 2.12 1.64 1.26 0.94 0.81 0.66 0.54 0.40 0.33 0.29 0.28 0.29 0.31 0.33 0.33 0.33 0.33 0.32 0.32 0.34 0.39 0.42 0.49 0.57 0.59 0.54 0.52 0.63 0.73 0.56 0.43 0.38 0.34 0.34 0.36 0.43 0.47 0.51 0.65 0.76 0.97 1.12
1.81 1.32 0.99 0.80 0.60 0.50 0.42 0.40 0.34 0.27 0.25 0.25 0.23 0.24 0.24 0.22 0.23 0.23 0.21 0.21 0.22 0.25 0.33 0.35 0.44 0.55 0.54 0.43 0.46 0.55 0.55 0.51 0.44 0.38 0.37 0.35 0.40 0.42 0.49 0.56 0.70 0.88 1.00
0.84 0.82 0.78 0.69 0.62 0.52 0.44 0.41 0.35 0.26 0.24 0.23 0.23 0.24 0.26 0.26 0.24 0.23 0.22 0.21 0.21 0.21 0.24 0.28 0.36 0.46 0.52 0.47 0.44 0.49 0.58 0.57 0.49 0.44 0.38 0.38 0.43 0.37 0.45 0.59 0.70 0.79 0.88
0.40 0.46 0.48 0.46 0.52 0.53 0.48 0.41 0.36 0.31 0.26 0.23 0.22 0.21 0.21 0.23 0.25 0.25 0.25 0.26 0.26 0.26 0.26 0.26 0.28 0.33 0.45 0.53 0.53 0.51 0.55 0.56 0.46 0.43 0.35 0.32 0.40 0.39 0.51 0.70 0.76 0.83 0.89

GEFSSE_prec_meanprecacc_096.txt.gz
Total_Precipitation_Accumulation
0.04 0.04 0.11 0.12 0.10 0.08 0.09 0.12 0.14 0.13 0.12 0.10 0.09 0.07 0.05 0.04 0.03 0.03 0.03 0.03 0.04 0.04 0.04 0.04 0.04 0.05 0.05 0.05 0.06 0.07 0.07 0.09 0.15 0.21 0.29 0.30 0.35 0.48 0.65 0.76 0.78 0.60 0.43
0.01 0.02 0.09 0.13 0.12 0.10 0.10 0.11 0.13 0.13 0.12 0.11 0.09 0.08 0.06 0.05 0.04 0.04 0.03 0.04 0.04 0.05 0.04 0.04 0.04 0.04 0.04 0.04 0.05 0.05 0.07 0.13 0.24 0.36 0.47 0.42 0.47 0.57 0.63 0.62 0.70 0.54 0.39
0.01 0.01 0.06 0.14 0.15 0.11 0.10 0.11 0.12 0.12 0.11 0.11 0.09 0.08 0.06 0.05 0.04 0.04 0.04 0.04 0.04 0.04 0.05 0.05 0.05 0.04 0.04 0.04 0.04 0.05 0.09 0.17 0.30 0.51 0.80 0.66 0.46 0.59 0.59 0.56 0.56 0.35 0.26
0.01 0.01 0.02 0.08 0.14 0.13 0.12 0.13 0.12 0.11 0.10 0.09 0.08 0.07 0.06 0.05 0.04 0.03 0.04 0.04 0.05 0.05 0.05 0.05 0.04 0.04 0.03 0.04 0.04 0.05 0.11 0.22 0.37 0.62 1.00 0.70 0.31 0.37 0.42 0.36 0.34 0.23 0.20
0.02 0.01 0.02 0.06 0.10 0.13 0.13 0.13 0.12 0.11 0.09 0.08 0.06 0.05 0.04 0.04 0.04 0.04 0.04 0.05 0.06 0.07 0.07 0.06 0.04 0.04 0.03 0.03 0.03 0.06 0.12 0.22 0.39 0.58 0.68 0.70 0.67 0.37 0.29 0.25 0.24 0.22 0.17
0.02 0.02 0.04 0.08 0.10 0.12 0.13 0.13 0.12 0.10 0.08 0.07 0.06 0.06 0.05 0.05 0.05 0.06 0.06 0.07 0.07 0.08 0.11 0.09 0.06 0.05 0.04 0.03 0.04 0.06 0.12 0.24 0.36 0.38 0.35 0.44 0.58 0.36 0.29 0.30 0.24 0.22 0.16
0.04 0.04 0.06 0.10 0.12 0.12 0.13 0.13 0.12 0.11 0.09 0.07 0.06 0.06 0.06 0.07 0.08 0.09 0.10 0.11 0.10 0.11 0.13 0.13 0.12 0.08 0.06 0.05 0.05 0.06 0.13 0.27 0.38 0.40 0.38 0.44 0.51 0.33 0.45 0.61 0.48 0.36 0.24
0.10 0.05 0.07 0.11 0.14 0.15 0.15 0.15 0.15 0.14 0.11 0.10 0.10 0.09 0.09 0.10 0.12 0.14 0.15 0.16 0.17 0.18 0.18 0.18 0.15 0.13 0.10 0.08 0.09 0.10 0.17 0.24 0.32 0.48 0.48 0.46 0.37 0.31 0.56 0.79 0.72 0.62 0.48
0.19 0.08 0.07 0.07 0.10 0.14 0.18 0.19 0.18 0.17 0.15 0.14 0.13 0.13 0.12 0.12 0.14 0.15 0.18 0.19 0.21 0.22 0.22 0.21 0.21 0.20 0.18 0.14 0.13 0.15 0.21 0.26 0.36 0.59 0.59 0.50 0.36 0.38 0.56 0.68 0.69 0.69 0.62
0.19 0.13 0.10 0.10 0.14 0.13 0.14 0.15 0.17 0.17 0.16 0.15 0.15 0.17 0.17 0.17 0.19 0.23 0.25 0.26 0.28 0.28 0.28 0.29 0.32 0.33 0.30 0.24 0.20 0.22 0.24 0.22 0.28 0.51 0.74 0.60 0.46 0.59 0.74 0.72 0.76 0.81 0.72
0.38 0.31 0.20 0.19 0.18 0.20 0.20 0.21 0.28 0.28 0.28 0.28 0.32 0.31 0.36 0.46 0.53 0.60 0.50 0.50 0.51 0.56 0.57 0.57 0.58 0.60 0.56 0.41 0.37 0.46 0.39 0.25 0.46 0.68 0.96 0.66 0.56 0.74 0.92 0.94 0.90 0.84 0.81
0.51 0.50 0.41 0.31 0.29 0.31 0.34 0.40 0.61 0.65 0.73 0.78 0.86 0.85 0.90 0.84 0.72 0.61 0.65 0.79 0.85 1.00 1.11 1.22 1.31 1.14 0.93 0.78 0.91 1.17 0.62 0.44 0.59 0.78 0.96 0.78 0.79 1.03 1.16 1.14 1.00 0.84 0.79
0.69 0.55 0.60 0.52 0.48 0.53 0.63 0.66 0.79 0.90 1.05 1.12 1.10 1.18 1.27 1.11 0.92 0.83 0.94 1.13 1.23 1.40 1.50 1.80 1.96 1.44 1.40 1.54 1.57 1.50 1.09 0.95 0.90 1.19 1.25 1.24 1.28 1.46 1.45 1.40 1.28 1.06 0.92
0.84 0.79 0.94 0.90 0.83 0.82 0.84 0.92 0.87 0.86 0.93 1.06 1.14 1.18 1.35 1.25 1.14 1.17 1.20 1.26 1.48 1.64 1.88 1.91 2.05 2.05 2.06 1.96 1.90 1.85 1.70 1.43 1.31 1.60 1.94 1.91 1.80 1.76 1.83 1.69 1.46 1.33 1.22
1.11 1.12 1.16 1.18 1.32 1.30 1.21 1.13 0.90 0.88 0.84 0.87 0.98 1.03 1.30 1.51 1.47 1.59 1.41 1.37 1.24 1.55 1.92 2.13 2.19 2.35 2.44 2.39 2.07 1.83 1.75 1.57 1.36 1.51 1.81 2.01 2.05 1.92 1.93 1.93 1.68 1.56 1.50
1.49 1.54 1.54 1.58 1.63 1.64 1.47 1.29 1.12 0.99 0.91 0.85 0.94 1.13 1.58 1.75 1.66 1.72 1.67 1.58 1.36 1.51 1.85 2.20 2.28 2.50 2.46 2.48 1.97 1.73 1.66 1.65 1.44 1.33 1.45 1.79 1.77 1.67 1.65 1.80 1.85 1.81 1.74
1.89 1.98 2.04 2.12 1.98 1.92 1.78 1.47 1.23 1.02 0.86 0.94 1.13 1.33 1.63 1.79 1.88 2.06 1.95 1.64 1.49 1.68 1.87 1.90 2.02 2.48 2.31 2.25 2.04 2.00 1.95 1.74 1.53 1.40 1.36 1.45 1.44 1.55 1.53 1.56 1.73 1.84 1.91
2.30 2.61 2.75 2.72 2.70 2.63 2.24 1.87 1.58 1.38 1.26 1.33 1.42 1.38 1.36 1.53 1.71 1.89 1.62 1.31 1.48 1.76 1.90 1.81 1.81 2.17 2.21 2.19 2.15 2.04 1.94 1.74 1.52 1.42 1.37 1.27 1.23 1.10 1.24 1.42 1.61 1.76 1.97
2.76 3.19 3.49 3.63 3.36 2.98 2.40 1.94 1.57 1.56 1.53 1.50 1.42 1.23 1.10 1.03 1.08 1.19 1.03 0.98 1.21 1.48 1.49 1.32 1.44 1.71 1.79 1.86 1.82 1.60 1.41 1.23 1.11 1.09 1.06 0.99 1.07 1.06 1.10 1.16 1.41 1.57 1.86
2.87 3.32 3.60 3.72 3.30 2.69 2.30 2.09 1.75 1.56 1.45 1.40 1.24 1.02 0.83 0.77 0.75 0.83 0.82 0.79 0.88 0.92 0.94 1.10 1.25 1.40 1.29 1.36 1.29 1.08 1.03 0.90 0.84 0.81 0.69 0.69 0.77 0.77 0.80 0.99 1.21 1.12 1.42
3.14 3.64 3.76 3.47 2.72 2.20 1.85 1.66 1.45 1.26 1.10 0.97 0.88 0.78 0.69 0.69 0.64 0.64 0.61 0.63 0.69 0.69 0.68 0.83 0.95 0.96 0.79 0.95 1.02 0.81 0.66 0.58 0.57 0.57 0.52 0.51 0.52 0.56 0.69 0.88 1.03 1.02 0.98
3.01 3.12 2.97 2.55 1.92 1.49 1.20 1.02 0.82 0.68 0.61 0.57 0.52 0.52 0.53 0.54 0.54 0.53 0.50 0.48 0.49 0.52 0.54 0.60 0.71 0.71 0.63 0.74 0.84 0.76 0.57 0.50 0.45 0.34 0.37 0.38 0.37 0.48 0.55 0.67 0.88 1.07 1.06
2.70 2.26 1.77 1.38 1.05 0.93 0.77 0.62 0.47 0.38 0.32 0.30 0.29 0.31 0.33 0.33 0.33 0.33 0.32 0.32 0.34 0.39 0.42 0.49 0.57 0.59 0.54 0.52 0.63 0.73 0.57 0.43 0.39 0.34 0.34 0.36 0.43 0.47 0.51 0.66 0.77 0.97 1.13
2.03 1.53 1.18 0.95 0.74 0.61 0.52 0.48 0.40 0.31 0.29 0.27 0.24 0.25 0.24 0.23 0.23 0.23 0.21 0.21 0.22 0.25 0.33 0.35 0.44 0.55 0.54 0.43 0.46 0.55 0.55 0.51 0.44 0.39 0.37 0.35 0.40 0.42 0.49 0.56 0.70 0.88 1.00
1.00 1.00 0.95 0.85 0.77 0.64 0.54 0.50 0.43 0.31 0.27 0.27 0.26 0.25 0.26 0.26 0.24 0.23 0.22 0.21 0.21 0.21 0.24 0.28 0.36 0.46 0.52 0.47 0.44 0.49 0.58 0.57 0.49 0.44 0.38 0.38 0.43 0.37 0.45 0.59 0.70 0.79 0.88
0.50 0.58 0.62 0.58 0.65 0.65 0.58 0.49 0.45 0.38 0.31 0.26 0.24 0.23 0.22 0.23 0.25 0.25 0.25 0.26 0.26 0.26 0.26 0.26 0.28 0.33 0.45 0.53 0.53 0.51 0.55 0.56 0.46 0.43 0.35 0.32 0.40 0.39 0.51 0.70 0.76 0.83 0.89

GEFSSE_prec_meanprecacc_102.txt.gz
Total_Precipitation_Accumulation
0.07 0.07 0.14 0.15 0.11 0.08 0.09 0.12 0.14 0.13 0.12 0.10 0.09 0.07 0.05 0.04 0.03 0.03 0.03 0.03 0.04 0.05 0.05 0.05 0.06 0.06 0.06 0.07 0.08 0.10 0.09 0.11 0.18 0.25 0.34 0.37 0.44 0.55 0.70 0.80 0.80 0.62 0.47
0.02 0.04 0.12 0.15 0.12 0.10 0.10 0.12 0.13 0.13 0.12 0.11 0.09 0.08 0.06 0.05 0.04 0.04 0.03 0.04 0.05 0.05 0.05 0.06 0.06 0.05 0.05 0.05 0.06 0.07 0.10 0.16 0.29 0.43 0.56 0.54 0.62 0.66 0.67 0.63 0.71 0.55 0.42
0.02 0.02 0.07 0.16 0.15 0.12 0.10 0.11 0.12 0.12 0.11 0.11 0.09 0.08 0.06 0.05 0.05 0.04 0.04 0.05 0.04 0.05 0.06 0.06 0.06 0.05 0.05 0.05 0.06 0.08 0.12 0.23 0.38 0.62 0.89 0.73 0.54 0.68 0.63 0.59 0.58 0.38 0.29
0.02 0.01 0.02 0.09 0.15 0.14 0.12 0.13 0.12 0.11 0.10 0.09 0.08 0.07 0.06 0.05 0.04 0.04 0.04 0.05 0.05 0.06 0.05 0.06 0.05 0.04 0.04 0.05 0.06 0.09 0.16 0.28 0.43 0.67 1.03 0.72 0.34 0.43 0.47 0.38 0.37 0.26 0.23
0.03 0.02 0.04 0.08 0.11 0.14 0.14 0.13 0.12 0.11 0.10 0.08 0.07 0.06 0.05 0.04 0.04 0.05 0.05 0.06 0.07 0.07 0.08 0.06 0.05 0.04 0.04 0.04 0.05 0.09 0.17 0.29 0.47 0.60 0.69 0.71 0.69 0.42 0.33 0.27 0.27 0.25 0.20
0.05 0.03 0.05 0.09 0.11 0.13 0.14 0.13 0.12 0.10 0.08 0.07 0.06 0.06 0.05 0.05 0.06 0.06 0.07 0.08 0.07 0.09 0.11 0.10 0.07 0.05 0.05 0.05 0.07 0.10 0.17 0.31 0.41 0.38 0.36 0.45 0.59 0.39 0.32 0.34 0.28 0.26 0.20
0.08 0.07 0.07 0.12 0.13 0.13 0.13 0.13 0.13 0.11 0.09 0.08 0.07 0.07 0.07 0.07 0.09 0.10 0.10 0.11 0.11 0.12 0.14 0.14 0.12 0.09 0.07 0.07 0.08 0.10 0.18 0.34 0.40 0.41 0.38 0.45 0.53 0.36 0.48 0.64 0.51 0.39 0.27
0.19 0.10 0.10 0.15 0.16 0.16 0.15 0.16 0.16 0.14 0.12 0.11 0.10 0.10 0.10 0.11 0.13 0.15 0.16 0.17 0.18 0.19 0.19 0.19 0.16 0.14 0.12 0.10 0.11 0.13 0.21 0.28 0.33 0.48 0.48 0.47 0.38 0.33 0.57 0.81 0.75 0.64 0.50
0.34 0.17 0.11 0.10 0.12 0.15 0.19 0.20 0.19 0.18 0.16 0.15 0.14 0.14 0.14 0.14 0.15 0.17 0.20 0.21 0.22 0.24 0.25 0.23 0.23 0.21 0.20 0.16 0.15 0.18 0.24 0.31 0.37 0.59 0.59 0.51 0.38 0.40 0.57 0.70 0.71 0.71 0.64
0.38 0.26 0.17 0.14 0.17 0.16 0.15 0.17 0.19 0.18 0.17 0.17 0.17 0.19 0.20 0.19 0.21 0.24 0.26 0.28 0.30 0.30 0.30 0.31 0.33 0.34 0.32 0.26 0.23 0.25 0.28 0.25 0.29 0.52 0.74 0.61 0.49 0.62 0.76 0.74 0.78 0.83 0.75
0.53 0.40 0.27 0.24 0.21 0.23 0.22 0.23 0.30 0.29 0.30 0.30 0.34 0.34 0.40 0.48 0.55 0.61 0.52 0.52 0.52 0.57 0.59 0.59 0.60 0.62 0.58 0.42 0.39 0.48 0.41 0.27 0.47 0.69 0.96 0.67 0.59 0.77 0.95 0.96 0.92 0.86 0.83
0.62 0.56 0.48 0.37 0.32 0.33 0.36 0.42 0.63 0.67 0.75 0.79 0.87 0.86 0.91 0.85 0.73 0.62 0.66 0.82 0.88 1.03 1.14 1.25 1.34 1.18 0.95 0.79 0.92 1.18 0.63 0.45 0.61 0.79 0.96 0.80 0.82 1.06 1.19 1.17 1.02 0.86 0.81
0.79 0.63 0.65 0.57 0.52 0.56 0.65 0.68 0.80 0.91 1.05 1.13 1.10 1.19 1.28 1.12 0.93 0.83 0.95 1.16 1.26 1.42 1.52 1.83 1.98 1.46 1.41 1.55 1.58 1.51 1.10 0.96 0.91 1.21 1.26 1.27 1.31 1.50 1.50 1.44 1.32 1.11 0.96
0.94 0.87 1.00 0.95 0.87 0.85 0.87 0.94 0.88 0.86 0.93 1.06 1.15 1.20 1.36 1.26 1.15 1.18 1.21 1.27 1.50 1.66 1.89 1.92 2.05 2.06 2.08 1.98 1.92 1.86 1.70 1.44 1.33 1.63 1.96 1.95 1.84 1.82 1.90 1.75 1.51 1.39 1.28
1.21 1.22 1.24 1.23 1.36 1.34 1.25 1.16 0.92 0.89 0.85 0.88 0.98 1.04 1.32 1.52 1.49 1.60 1.42 1.38 1.25 1.56 1.93 2.15 2.21 2.36 2.45 2.41 2.10 1.85 1.76 1.59 1.38 1.53 1.84 2.05 2.11 1.98 2.01 2.01 1.74 1.61 1.58
1.60 1.66 1.63 1.63 1.68 1.68 1.52 1.34 1.16 1.01 0.93 0.87 0.96 1.14 1.59 1.76 1.66 1.73 1.68 1.58 1.36 1.51 1.85 2.21 2.30 2.52 2.48 2.50 2.00 1.75 1.68 1.67 1.45 1.34 1.47 1.82 1.83 1.74 1.74 1.90 1.95 1.91 1.84
2.02 2.10 2.15 2.19 2.06 1.99 1.85 1.54 1.28 1.05 0.90 0.97 1.15 1.35 1.64 1.80 1.89 2.07 1.96 1.65 1.49 1.68 1.87 1.91 2.03 2.49 2.33 2.26 2.06 2.03 1.97 1.76 1.55 1.42 1.38 1.47 1.47 1.60 1.61 1.65 1.83 1.96 2.04
2.45 2.73 2.86 2.81 2.79 2.71 2.33 1.95 1.66 1.45 1.31 1.37 1.44 1.39 1.37 1.53 1.72 1.89 1.63 1.32 1.48 1.76 1.90 1.81 1.82 2.19 2.22 2.20 2.16 2.07 1.96 1.76 1.53 1.44 1.40 1.30 1.26 1.12 1.29 1.50 1.70 1.85 2.08
2.90 3.31 3.61 3.77 3.47 3.09 2.52 2.05 1.65 1.63 1.58 1.53 1.43 1.24 1.10 1.03 1.08 1.20 1.03 0.98 1.21 1.48 1.49 1.32 1.45 1.71 1.80 1.87 1.83 1.62 1.43 1.25 1.13 1.11 1.07 1.01 1.10 1.09 1.12 1.21 1.49 1.66 1.95
3.17 3.56 3.81 3.93 3.47 2.84 2.43 2.18 1.84 1.63 1.50 1.43 1.26 1.03 0.84 0.78 0.75 0.83 0.82 0.79 0.88 0.92 0.94 1.10 1.25 1.40 1.29 1.36 1.30 1.09 1.05 0.91 0.84 0.81 0.70 0.70 0.78 0.79 0.83 1.02 1.24 1.16 1.49
3.57 3.99 4.03 3.72 2.94 2.36 1.96 1.74 1.51 1.32 1.15 1.00 0.89 0.78 0.69 0.69 0.64 0.64 0.61 0.63 0.69 0.69 0.68 0.83 0.95 0.96 0.79 0.95 1.03 0.81 0.66 0.59 0.57 0.57 0.52 0.51 0.53 0.58 0.71 0.91 1.04 1.03 1.01
3.39 3.49 3.31 2.82 2.14 1.65 1.32 1.12 0.91 0.77 0.67 0.60 0.53 0.52 0.53 0.54 0.54 0.53 0.50 0.48 0.49 0.52 0.54 0.60 0.71 0.72 0.63 0.74 0.84 0.77 0.57 0.50 0.45 0.34 0.37 0.38 0.38 0.49 0.56 0.69 0.89 1.08 1.07
2.99 2.57 2.10 1.73 1.32 1.12 0.93 0.75 0.59 0.48 0.39 0.34 0.31 0.32 0.34 0.33 0.33 0.33 0.32 0.32 0.34 0.39 0.42 0.49 0.57 0.60 0.54 0.52 0.63 0.73 0.57 0.43 0.39 0.34 0.34 0.36 0.43 0.47 0.51 0.66 0.77 0.98 1.14
2.24 1.74 1.40 1.20 0.98 0.80 0.69 0.63 0.51 0.39 0.36 0.32 0.29 0.27 0.26 0.23 0.23 0.23 0.21 0.21 0.22 0.25 0.33 0.35 0.44 0.55 0.54 0.44 0.47 0.55 0.55 0.51 0.44 0.39 0.37 0.35 0.40 0.43 0.49 0.56 0.70 0.88 1.01
1.14 1.14 1.12 1.03 0.97 0.82 0.68 0.62 0.53 0.37 0.31 0.31 0.31 0.29 0.28 0.27 0.24 0.23 0.22 0.21 0.21 0.21 0.24 0.28 0.36 0.46 0.52 0.47 0.44 0.50 0.59 0.57 0.49 0.45 0.38 0.39 0.43 0.37 0.46 0.59 0.70 0.79 0.88
0.60 0.68 0.75 0.70 0.78 0.80 0.70 0.58 0.50 0.42 0.35 0.32 0.29 0.26 0.24 0.24 0.26 0.25 0.25 0.26 0.26 0.26 0.26 0.26 0.28 0.33 0.45 0.53 0.53 0.51 0.56 0.56 0.46 0.43 0.35 0.32 0.40 0.39 0.52 0.70 0.76 0.83 0.89

GEFSSE_prec_meanprecacc_108.txt.gz
Total_Precipitation_Accumulation
0.08 0.09 0.16 0.17 0.12 0.09 0.09 0.12 0.15 0.14 0.12 0.10 0.09 0.07 0.05 0.04 0.04 0.04 0.04 0.03 0.04 0.05 0.06 0.06 0.07 0.07 0.09 0.10 0.10 0.10 0.10 0.12 0.20 0.29 0.38 0.42 0.50 0.60 0.74 0.83 0.84 0.65 0.50
0.02 0.05 0.13 0.16 0.13 0.11 0.10 0.12 0.13 0.14 0.12 0.11 0.09 0.08 0.06 0.05 0.05 0.04 0.04 0.04 0.05 0.06 0.06 0.06 0.07 0.07 0.08 0.06 0.07 0.08 0.11 0.17 0.31 0.47 0.61 0.60 0.69 0.72 0.70 0.66 0.74 0.58 0.44
0.02 0.02 0.08 0.17 0.17 0.12 0.11 0.12 0.13 0.12 0.12 0.11 0.09 0.08 0.06 0.06 0.05 0.05 0.05 0.05 0.05 0.06 0.07 0.07 0.07 0.06 0.06 0.06 0.07 0.08 0.14 0.26 0.42 0.66 0.96 0.79 0.59 0.72 0.65 0.61 0.61 0.39 0.31
0.02 0.02 0.03 0.11 0.17 0.15 0.12 0.13 0.13 0.12 0.11 0.10 0.08 0.07 0.06 0.06 0.05 0.05 0.05 0.06 0.06 0.07 0.07 0.07 0.06 0.05 0.05 0.06 0.07 0.10 0.19 0.32 0.48 0.72 1.08 0.75 0.37 0.46 0.50 0.40 0.39 0.28 0.25
0.04 0.03 0.05 0.09 0.12 0.15 0.14 0.14 0.13 0.11 0.10 0.08 0.07 0.06 0.05 0.05 0.05 0.06 0.06 0.07 0.08 0.08 0.09 0.08 0.06 0.06 0.04 0.05 0.07 0.11 0.21 0.34 0.50 0.63 0.71 0.75 0.75 0.47 0.36 0.30 0.30 0.27 0.23
0.06 0.05 0.07 0.10 0.12 0.15 0.14 0.14 0.12 0.10 0.09 0.08 0.07 0.07 0.06 0.06 0.07 0.07 0.08 0.09 0.08 0.09 0.12 0.11 0.07 0.07 0.07 0.07 0.09 0.12 0.20 0.34 0.43 0.40 0.38 0.49 0.65 0.45 0.36 0.37 0.31 0.29 0.24
0.12 0.10 0.10 0.14 0.15 0.15 0.14 0.14 0.13 0.12 0.10 0.09 0.07 0.08 0.08 0.08 0.10 0.11 0.11 0.12 0.12 0.13 0.14 0.15 0.13 0.10 0.09 0.10 0.12 0.14 0.23 0.38 0.41 0.42 0.40 0.49 0.58 0.42 0.55 0.69 0.55 0.42 0.30
0.27 0.18 0.16 0.21 0.20 0.18 0.17 0.17 0.17 0.15 0.13 0.12 0.11 0.11 0.11 0.12 0.13 0.16 0.17 0.18 0.19 0.20 0.20 0.19 0.17 0.16 0.14 0.14 0.16 0.18 0.28 0.32 0.34 0.49 0.49 0.49 0.42 0.39 0.64 0.87 0.79 0.68 0.54
0.48 0.29 0.20 0.18 0.19 0.19 0.22 0.22 0.20 0.19 0.17 0.16 0.16 0.15 0.15 0.15 0.16 0.18 0.21 0.22 0.23 0.25 0.25 0.24 0.23 0.23 0.22 0.19 0.19 0.24 0.32 0.35 0.38 0.60 0.60 0.53 0.40 0.46 0.65 0.76 0.76 0.75 0.68
0.58 0.39 0.28 0.25 0.25 0.21 0.20 0.20 0.21 0.19 0.18 0.18 0.19 0.20 0.21 0.20 0.22 0.26 0.27 0.29 0.31 0.31 0.30 0.32 0.34 0.35 0.33 0.28 0.26 0.30 0.35 0.31 0.31 0.53 0.76 0.63 0.51 0.67 0.83 0.80 0.83 0.87 0.79
0.79 0.54 0.36 0.35 0.31 0.30 0.27 0.27 0.34 0.32 0.32 0.32 0.36 0.36 0.42 0.51 0.57 0.63 0.53 0.53 0.54 0.59 0.60 0.60 0.61 0.63 0.59 0.44 0.42 0.52 0.46 0.33 0.51 0.72 1.00 0.69 0.62 0.82 1.00 1.02 0.97 0.90 0.87
0.75 0.67 0.57 0.46 0.41 0.41 0.41 0.47 0.69 0.72 0.79 0.83 0.91 0.90 0.95 0.88 0.75 0.63 0.68 0.84 0.89 1.04 1.16 1.26 1.36 1.18 0.96 0.79 0.93 1.20 0.66 0.49 0.63 0.82 0.99 0.83 0.86 1.13 1.26 1.23 1.09 0.90 0.84
0.88 0.72 0.76 0.66 0.60 0.63 0.72 0.73 0.86 0.97 1.11 1.18 1.14 1.22 1.32 1.16 0.96 0.86 0.98 1.20 1.30 1.45 1.55 1.85 1.98 1.46 1.42 1.57 1.60 1.53 1.13 0.99 0.93 1.22 1.29 1.29 1.36 1.58 1.59 1.50 1.38 1.16 1.00
1.04 0.97 1.08 1.04 0.95 0.94 0.95 1.00 0.92 0.90 0.97 1.11 1.19 1.23 1.40 1.31 1.21 1.23 1.25 1.31 1.53 1.70 1.93 1.94 2.08 2.07 2.10 2.00 1.94 1.89 1.74 1.48 1.36 1.65 2.02 1.99 1.90 1.89 1.99 1.83 1.58 1.48 1.36
1.31 1.33 1.31 1.31 1.44 1.42 1.33 1.22 0.96 0.94 0.90 0.92 1.03 1.09 1.36 1.58 1.54 1.64 1.45 1.40 1.27 1.58 1.95 2.17 2.23 2.39 2.49 2.44 2.11 1.88 1.80 1.63 1.42 1.57 1.88 2.10 2.17 2.05 2.11 2.11 1.84 1.71 1.66
1.70 1.75 1.72 1.70 1.75 1.75 1.58 1.40 1.22 1.06 0.99 0.93 1.01 1.18 1.63 1.81 1.71 1.76 1.71 1.62 1.39 1.54 1.87 2.23 2.31 2.54 2.51 2.53 2.03 1.78 1.71 1.72 1.51 1.40 1.52 1.88 1.90 1.82 1.83 2.01 2.06 2.00 1.92
2.15 2.21 2.25 2.26 2.12 2.05 1.93 1.61 1.35 1.13 0.97 1.04 1.21 1.39 1.68 1.84 1.93 2.10 1.99 1.68 1.52 1.70 1.89 1.92 2.04 2.50 2.34 2.28 2.09 2.06 2.00 1.80 1.60 1.48 1.44 1.54 1.54 1.67 1.70 1.75 1.94 2.06 2.13
2.60 2.85 2.97 2.87 2.85 2.78 2.41 2.04 1.76 1.55 1.39 1.44 1.49 1.44 1.40 1.57 1.76 1.92 1.66 1.35 1.51 1.78 1.92 1.83 1.84 2.20 2.24 2.23 2.21 2.11 2.00 1.81 1.57 1.49 1.45 1.36 1.33 1.18 1.36 1.57 1.78 1.94 2.17
3.04 3.42 3.69 3.86 3.54 3.16 2.58 2.14 1.77 1.74 1.67 1.59 1.48 1.28 1.13 1.05 1.10 1.22 1.06 1.01 1.23 1.49 1.50 1.33 1.46 1.72 1.81 1.90 1.86 1.65 1.46 1.27 1.14 1.12 1.10 1.04 1.14 1.16 1.21 1.27 1.53 1.71 2.02
3.31 3.69 3.93 4.03 3.57 2.91 2.48 2.26 1.94 1.72 1.58 1.48 1.30 1.06 0.86 0.79 0.76 0.84 0.84 0.80 0.89 0.93 0.96 1.11 1.27 1.41 1.30 1.38 1.31 1.10 1.06 0.92 0.85 0.82 0.71 0.71 0.81 0.82 0.87 1.07 1.30 1.20 1.53
3.75 4.15 4.19 3.85 3.05 2.44 2.02 1.81 1.60 1.40 1.22 1.06 0.93 0.81 0.71 0.70 0.65 0.65 0.61 0.63 0.70 0.69 0.69 0.84 0.96 0.97 0.80 0.96 1.03 0.82 0.67 0.60 0.59 0.58 0.54 0.52 0.54 0.59 0.74 0.95 1.10 1.08 1.05
3.50 3.64 3.48 2.96 2.25 1.76 1.42 1.22 1.02 0.87 0.74 0.66 0.58 0.55 0.54 0.55 0.54 0.54 0.51 0.49 0.49 0.52 0.55 0.60 0.72 0.73 0.64 0.75 0.84 0.77 0.58 0.52 0.46 0.35 0.38 0.39 0.40 0.50 0.57 0.71 0.92 1.13 1.12
3.07 2.69 2.24 1.84 1.42 1.23 1.06 0.87 0.69 0.59 0.48 0.39 0.34 0.34 0.35 0.34 0.33 0.33 0.32 0.32 0.34 0.39 0.42 0.49 0.57 0.60 0.54 0.52 0.63 0.73 0.57 0.44 0.40 0.35 0.34 0.37 0.44 0.49 0.52 0.67 0.79 1.01 1.18
2.31 1.85 1.54 1.35 1.13 0.94 0.83 0.78 0.63 0.50 0.44 0.37 0.31 0.29 0.27 0.24 0.24 0.24 0.22 0.22 0.22 0.25 0.33 0.35 0.45 0.55 0.54 0.44 0.47 0.55 0.55 0.51 0.45 0.40 0.38 0.36 0.41 0.44 0.50 0.57 0.72 0.90 1.03
1.21 1.23 1.23 1.18 1.11 0.96 0.82 0.77 0.67 0.49 0.41 0.36 0.34 0.31 0.29 0.27 0.25 0.24 0.22 0.21 0.21 0.21 0.24 0.29 0.37 0.46 0.53 0.47 0.44 0.50 0.59 0.57 0.49 0.46 0.40 0.40 0.45 0.38 0.46 0.60 0.72 0.81 0.90
0.63 0.74 0.83 0.81 0.88 0.90 0.81 0.72 0.62 0.51 0.41 0.36 0.32 0.28 0.25 0.25 0.26 0.26 0.26 0.27 0.27 0.26 0.26 0.26 0.28 0.34 0.45 0.54 0.53 0.51 0.56 0.56 0.46 0.43 0.36 0.34 0.41 0.40 0.53 0.71 0.77 0.83 0.90

GEFSSE_prec_meanprecacc_114.txt.gz
Total_Precipitation_Accumulation
0.08 0.09 0.16 0.19 0.14 0.11 0.12 0.15 0.17 0.16 0.14 0.11 0.10 0.08 0.06 0.05 0.04 0.04 0.04 0.03 0.05 0.07 0.08 0.08 0.08 0.08 0.10 0.12 0.12 0.13 0.13 0.15 0.24 0.34 0.42 0.47 0.54 0.64 0.80 0.94 0.98 0.71 0.52
0.02 0.05 0.13 0.18 0.15 0.13 0.12 0.14 0.16 0.16 0.14 0.12 0.10 0.09 0.07 0.06 0.05 0.05 0.04 0.05 0.06 0.07 0.08 0.07 0.08 0.08 0.09 0.09 0.09 0.11 0.13 0.21 0.37 0.55 0.70 0.68 0.73 0.77 0.79 0.79 0.91 0.63 0.48
0.02 0.02 0.08 0.18 0.18 0.13 0.11 0.13 0.14 0.14 0.13 0.12 0.10 0.09 0.07 0.07 0.06 0.06 0.06 0.06 0.06 0.07 0.08 0.08 0.09 0.07 0.07 0.08 0.09 0.11 0.17 0.30 0.48 0.79 1.15 0.92 0.61 0.76 0.74 0.73 0.71 0.44 0.35
0.03 0.02 0.04 0.12 0.18 0.16 0.13 0.14 0.14 0.13 0.11 0.10 0.09 0.08 0.07 0.07 0.06 0.06 0.06 0.07 0.08 0.08 0.08 0.09 0.08 0.06 0.07 0.09 0.11 0.13 0.24 0.39 0.59 0.97 1.35 0.84 0.40 0.49 0.56 0.46 0.45 0.34 0.30
0.04 0.03 0.05 0.10 0.13 0.15 0.14 0.14 0.14 0.12 0.11 0.09 0.08 0.07 0.06 0.06 0.07 0.08 0.08 0.08 0.09 0.10 0.10 0.10 0.08 0.07 0.06 0.07 0.10 0.15 0.25 0.40 0.63 0.91 0.89 0.88 0.83 0.51 0.40 0.35 0.36 0.35 0.30
0.07 0.06 0.08 0.11 0.13 0.15 0.15 0.14 0.13 0.11 0.10 0.09 0.08 0.08 0.07 0.08 0.09 0.09 0.09 0.10 0.09 0.11 0.14 0.13 0.10 0.09 0.08 0.08 0.12 0.15 0.23 0.38 0.58 0.56 0.49 0.65 0.74 0.49 0.42 0.44 0.37 0.35 0.28
0.16 0.13 0.11 0.15 0.16 0.15 0.15 0.15 0.14 0.13 0.11 0.09 0.08 0.09 0.09 0.10 0.12 0.13 0.13 0.13 0.13 0.14 0.16 0.16 0.15 0.11 0.10 0.11 0.13 0.16 0.25 0.42 0.56 0.51 0.50 0.63 0.65 0.45 0.62 0.76 0.63 0.48 0.34
0.37 0.30 0.20 0.24 0.23 0.20 0.18 0.18 0.18 0.16 0.14 0.13 0.12 0.12 0.12 0.13 0.15 0.17 0.18 0.18 0.20 0.21 0.21 0.20 0.18 0.17 0.15 0.15 0.17 0.20 0.29 0.36 0.40 0.53 0.58 0.60 0.45 0.42 0.70 0.91 0.83 0.73 0.57
0.64 0.54 0.31 0.23 0.23 0.23 0.26 0.25 0.22 0.21 0.19 0.18 0.17 0.16 0.16 0.16 0.17 0.19 0.22 0.23 0.24 0.26 0.26 0.25 0.24 0.24 0.23 0.20 0.20 0.25 0.32 0.38 0.43 0.62 0.66 0.62 0.42 0.49 0.69 0.81 0.81 0.79 0.71
0.87 0.66 0.41 0.31 0.30 0.25 0.24 0.24 0.24 0.21 0.20 0.20 0.21 0.22 0.22 0.21 0.23 0.26 0.28 0.30 0.32 0.31 0.31 0.32 0.35 0.35 0.34 0.29 0.26 0.31 0.35 0.33 0.35 0.56 0.81 0.67 0.52 0.69 0.86 0.84 0.88 0.93 0.84
1.13 0.76 0.46 0.43 0.37 0.35 0.32 0.31 0.39 0.35 0.35 0.35 0.38 0.37 0.45 0.58 0.61 0.66 0.56 0.53 0.54 0.59 0.60 0.61 0.62 0.63 0.59 0.44 0.42 0.52 0.47 0.35 0.56 0.81 1.05 0.72 0.63 0.83 1.03 1.05 1.02 0.96 0.93
1.01 0.92 0.68 0.55 0.48 0.47 0.48 0.53 0.79 0.81 0.85 0.92 0.99 0.94 1.04 1.02 0.87 0.70 0.70 0.84 0.89 1.05 1.16 1.27 1.36 1.19 0.96 0.81 0.95 1.21 0.68 0.52 0.70 0.88 1.02 0.84 0.87 1.14 1.28 1.26 1.12 0.94 0.90
1.03 0.91 0.91 0.77 0.67 0.70 0.83 0.84 0.96 1.10 1.23 1.33 1.27 1.30 1.43 1.25 1.03 0.91 1.02 1.24 1.32 1.46 1.59 1.86 1.99 1.47 1.44 1.61 1.63 1.55 1.15 1.01 0.96 1.25 1.32 1.31 1.37 1.60 1.62 1.54 1.41 1.21 1.05
1.15 1.11 1.28 1.19 1.07 1.07 1.08 1.15 1.03 1.00 1.09 1.24 1.32 1.33 1.47 1.40 1.29 1.30 1.32 1.37 1.59 1.75 2.00 1.99 2.11 2.10 2.13 2.02 1.95 1.90 1.74 1.50 1.39 1.70 2.06 2.01 1.92 1.92 2.02 1.86 1.62 1.52 1.40
1.45 1.45 1.51 1.50 1.65 1.62 1.50 1.40 1.12 1.06 1.02 1.03 1.13 1.18 1.42 1.64 1.61 1.69 1.49 1.44 1.31 1.61 1.99 2.20 2.25 2.41 2.50 2.45 2.12 1.89 1.81 1.66 1.47 1.62 1.94 2.13 2.19 2.07 2.12 2.13 1.87 1.74 1.70
1.90 1.90 1.88 1.86 1.94 1.94 1.73 1.56 1.39 1.17 1.12 1.07 1.11 1.25 1.67 1.86 1.77 1.81 1.75 1.65 1.42 1.56 1.90 2.25 2.33 2.56 2.52 2.54 2.04 1.80 1.72 1.74 1.55 1.46 1.59 1.92 1.92 1.84 1.85 2.03 2.08 2.02 1.94
2.34 2.41 2.47 2.41 2.28 2.21 2.06 1.72 1.45 1.21 1.05 1.12 1.30 1.45 1.72 1.88 1.98 2.13 2.03 1.71 1.55 1.71 1.91 1.93 2.05 2.52 2.36 2.30 2.11 2.08 2.02 1.82 1.62 1.52 1.49 1.58 1.57 1.70 1.72 1.77 1.97 2.09 2.16
2.79 3.09 3.20 3.03 3.00 2.91 2.54 2.17 1.87 1.63 1.48 1.52 1.55 1.50 1.44 1.61 1.79 1.96 1.70 1.37 1.53 1.80 1.93 1.85 1.85 2.21 2.25 2.25 2.24 2.14 2.03 1.83 1.59 1.51 1.48 1.38 1.37 1.24 1.40 1.59 1.80 1.96 2.21
3.23 3.65 3.91 4.07 3.73 3.34 2.73 2.28 1.89 1.85 1.75 1.65 1.54 1.33 1.18 1.10 1.13 1.25 1.10 1.04 1.25 1.50 1.50 1.33 1.47 1.73 1.84 1.93 1.88 1.67 1.48 1.29 1.16 1.14 1.11 1.05 1.17 1.21 1.25 1.29 1.54 1.72 2.04
3.50 3.90 4.13 4.24 3.79 3.12 2.67 2.43 2.10 1.84 1.67 1.55 1.36 1.12 0.89 0.83 0.80 0.87 0.87 0.83 0.90 0.94 0.96 1.11 1.28 1.43 1.33 1.40 1.32 1.12 1.09 0.96 0.87 0.84 0.72 0.72 0.82 0.84 0.89 1.09 1.31 1.21 1.54
3.93 4.36 4.41 4.05 3.24 2.65 2.20 1.94 1.72 1.49 1.30 1.12 0.98 0.84 0.73 0.72 0.67 0.67 0.64 0.65 0.71 0.70 0.70 0.84 0.97 0.98 0.81 0.98 1.06 0.86 0.71 0.63 0.61 0.60 0.55 0.53 0.55 0.61 0.75 0.98 1.12 1.11 1.07
3.62 3.77 3.64 3.14 2.42 1.93 1.59 1.37 1.16 0.99 0.81 0.70 0.61 0.59 0.57 0.57 0.55 0.55 0.53 0.50 0.50 0.54 0.56 0.61 0.73 0.74 0.64 0.76 0.87 0.82 0.63 0.57 0.49 0.36 0.39 0.40 0.41 0.52 0.59 0.72 0.94 1.15 1.14
3.18 2.80 2.36 1.99 1.58 1.41 1.26 1.04 0.87 0.77 0.63 0.48 0.40 0.38 0.38 0.36 0.35 0.35 0.34 0.33 0.35 0.40 0.44 0.50 0.58 0.61 0.56 0.53 0.64 0.76 0.62 0.50 0.43 0.37 0.35 0.38 0.45 0.50 0.54 0.69 0.80 1.02 1.19
2.39 1.93 1.65 1.49 1.29 1.11 1.02 0.94 0.77 0.60 0.55 0.45 0.36 0.33 0.31 0.26 0.25 0.25 0.23 0.23 0.23 0.26 0.34 0.36 0.45 0.56 0.55 0.45 0.48 0.56 0.56 0.54 0.48 0.43 0.39 0.37 0.42 0.45 0.51 0.58 0.73 0.92 1.04
1.28 1.31 1.33 1.30 1.26 1.11 0.97 0.92 0.85 0.65 0.53 0.45 0.42 0.37 0.34 0.30 0.26 0.24 0.24 0.22 0.22 0.22 0.25 0.29 0.37 0.47 0.53 0.48 0.44 0.50 0.59 0.58 0.50 0.47 0.42 0.42 0.46 0.39 0.47 0.61 0.73 0.81 0.91
0.69 0.80 0.92 0.92 1.01 1.03 0.95 0.85 0.79 0.67 0.55 0.49 0.43 0.35 0.29 0.27 0.27 0.27 0.27 0.28 0.28 0.27 0.27 0.27 0.28 0.34 0.46 0.54 0.53 0.52 0.56 0.57 0.47 0.44 0.37 0.35 0.42 0.41 0.53 0.72 0.78 0.84 0.90

GEFSSE_prec_meanprecacc_120.txt.gz
Total_Precipitation_Accumulation
0.09 0.09 0.17 0.20 0.14 0.11 0.12 0.16 0.18 0.16 0.14 0.11 0.10 0.08 0.06 0.05 0.04 0.05 0.04 0.04 0.05 0.07 0.09 0.09 0.10 0.10 0.12 0.14 0.14 0.15 0.16 0.20 0.30 0.39 0.46 0.50 0.57 0.67 0.84 0.98 1.00 0.72 0.55
0.02 0.05 0.14 0.18 0.16 0.13 0.12 0.15 0.16 0.16 0.14 0.12 0.11 0.09 0.07 0.06 0.06 0.05 0.05 0.05 0.06 0.08 0.08 0.09 0.09 0.09 0.11 0.12 0.12 0.13 0.16 0.26 0.44 0.63 0.75 0.71 0.78 0.82 0.84 0.84 0.94 0.65 0.51
0.02 0.02 0.09 0.18 0.19 0.14 0.12 0.13 0.15 0.15 0.13 0.12 0.10 0.09 0.07 0.07 0.07 0.07 0.06 0.06 0.07 0.08 0.09 0.09 0.10 0.08 0.09 0.10 0.11 0.13 0.20 0.35 0.55 0.88 1.19 0.93 0.64 0.81 0.78 0.78 0.75 0.45 0.37
0.03 0.02 0.04 0.12 0.18 0.17 0.14 0.14 0.14 0.13 0.12 0.11 0.09 0.08 0.08 0.07 0.07 0.07 0.08 0.08 0.09 0.09 0.09 0.10 0.09 0.08 0.08 0.11 0.13 0.17 0.28 0.46 0.74 1.06 1.38 0.85 0.40 0.51 0.57 0.49 0.48 0.36 0.32
0.07 0.03 0.06 0.10 0.14 0.16 0.15 0.15 0.14 0.13 0.11 0.10 0.08 0.08 0.07 0.07 0.09 0.10 0.10 0.10 0.10 0.11 0.12 0.11 0.09 0.08 0.07 0.09 0.12 0.18 0.30 0.47 0.74 0.99 0.92 0.89 0.84 0.52 0.41 0.37 0.38 0.37 0.32
0.09 0.07 0.08 0.12 0.14 0.16 0.16 0.15 0.14 0.12 0.10 0.09 0.08 0.08 0.08 0.09 0.11 0.11 0.11 0.11 0.11 0.12 0.15 0.15 0.11 0.09 0.08 0.09 0.14 0.18 0.27 0.46 0.66 0.61 0.51 0.65 0.74 0.50 0.43 0.45 0.39 0.36 0.30
0.23 0.18 0.14 0.18 0.18 0.16 0.16 0.16 0.16 0.14 0.12 0.10 0.09 0.10 0.10 0.12 0.13 0.14 0.14 0.15 0.14 0.15 0.17 0.18 0.16 0.12 0.12 0.13 0.16 0.19 0.30 0.51 0.62 0.55 0.51 0.64 0.65 0.47 0.63 0.77 0.65 0.49 0.35
0.53 0.43 0.30 0.29 0.25 0.22 0.20 0.20 0.20 0.18 0.15 0.14 0.13 0.13 0.13 0.15 0.16 0.18 0.19 0.19 0.21 0.22 0.22 0.21 0.18 0.18 0.17 0.18 0.19 0.23 0.35 0.45 0.48 0.57 0.60 0.61 0.46 0.43 0.71 0.92 0.85 0.74 0.58
0.80 0.72 0.48 0.32 0.28 0.26 0.29 0.28 0.24 0.22 0.20 0.19 0.19 0.18 0.17 0.17 0.18 0.20 0.22 0.23 0.24 0.26 0.26 0.25 0.24 0.25 0.25 0.22 0.22 0.28 0.38 0.46 0.52 0.68 0.67 0.63 0.43 0.49 0.69 0.82 0.82 0.80 0.72
1.07 0.88 0.59 0.42 0.36 0.30 0.27 0.27 0.26 0.23 0.22 0.22 0.23 0.23 0.23 0.22 0.24 0.27 0.29 0.30 0.32 0.32 0.31 0.33 0.35 0.36 0.35 0.30 0.29 0.34 0.41 0.42 0.45 0.65 0.83 0.68 0.53 0.70 0.87 0.85 0.88 0.93 0.85
1.39 0.91 0.54 0.49 0.41 0.39 0.35 0.34 0.41 0.37 0.37 0.37 0.41 0.40 0.47 0.60 0.62 0.67 0.56 0.54 0.55 0.59 0.61 0.62 0.62 0.63 0.60 0.46 0.44 0.56 0.53 0.46 0.71 0.94 1.09 0.74 0.64 0.84 1.03 1.06 1.03 0.96 0.94
1.32 1.21 0.76 0.60 0.53 0.51 0.52 0.55 0.80 0.82 0.87 0.93 1.01 0.96 1.06 1.05 0.90 0.72 0.72 0.86 0.90 1.05 1.17 1.28 1.38 1.20 0.97 0.82 0.97 1.26 0.78 0.67 0.88 1.01 1.06 0.88 0.89 1.15 1.29 1.26 1.13 0.95 0.91
1.25 1.19 1.10 0.86 0.75 0.75 0.87 0.86 0.98 1.11 1.24 1.34 1.29 1.33 1.46 1.27 1.06 0.93 1.04 1.26 1.33 1.47 1.59 1.87 2.01 1.49 1.46 1.65 1.68 1.62 1.26 1.17 1.10 1.36 1.37 1.35 1.39 1.61 1.62 1.54 1.42 1.22 1.05
1.36 1.29 1.48 1.31 1.18 1.18 1.17 1.23 1.08 1.03 1.12 1.26 1.34 1.35 1.50 1.43 1.31 1.32 1.34 1.39 1.61 1.77 2.01 2.00 2.12 2.12 2.17 2.08 2.03 1.98 1.85 1.66 1.52 1.79 2.11 2.06 1.95 1.94 2.03 1.87 1.62 1.53 1.41
1.70 1.66 1.78 1.75 1.84 1.81 1.65 1.51 1.21 1.13 1.08 1.10 1.19 1.21 1.45 1.67 1.64 1.71 1.50 1.46 1.32 1.63 2.00 2.21 2.27 2.44 2.54 2.51 2.19 1.96 1.91 1.76 1.59 1.67 1.97 2.19 2.23 2.10 2.15 2.14 1.88 1.75 1.70
2.19 2.22 2.18 2.16 2.23 2.17 1.88 1.66 1.48 1.26 1.20 1.15 1.17 1.30 1.71 1.89 1.79 1.84 1.77 1.67 1.43 1.58 1.91 2.26 2.34 2.58 2.55 2.58 2.10 1.86 1.79 1.81 1.61 1.50 1.62 1.96 1.98 1.89 1.89 2.05 2.10 2.05 1.96
2.65 2.76 2.87 2.81 2.57 2.50 2.23 1.84 1.56 1.31 1.15 1.20 1.35 1.50 1.76 1.91 2.00 2.15 2.06 1.73 1.56 1.73 1.92 1.94 2.06 2.53 2.37 2.32 2.15 2.13 2.06 1.87 1.67 1.56 1.51 1.60 1.59 1.73 1.77 1.81 2.01 2.13 2.20
3.12 3.41 3.55 3.35 3.21 3.09 2.69 2.31 2.03 1.82 1.62 1.62 1.61 1.55 1.48 1.64 1.81 1.97 1.71 1.39 1.55 1.81 1.94 1.85 1.86 2.22 2.26 2.27 2.26 2.18 2.08 1.87 1.64 1.54 1.51 1.40 1.38 1.25 1.43 1.63 1.84 2.00 2.25
3.49 3.97 4.24 4.34 3.91 3.46 2.85 2.40 2.05 2.00 1.87 1.75 1.59 1.37 1.21 1.12 1.15 1.26 1.11 1.05 1.27 1.51 1.51 1.34 1.47 1.74 1.84 1.94 1.89 1.69 1.51 1.32 1.19 1.18 1.15 1.08 1.19 1.22 1.26 1.31 1.58 1.76 2.08
3.67 4.15 4.41 4.48 3.99 3.28 2.78 2.56 2.27 1.99 1.82 1.65 1.41 1.15 0.91 0.85 0.81 0.88 0.88 0.84 0.92 0.95 0.98 1.12 1.29 1.43 1.34 1.40 1.34 1.15 1.11 0.98 0.90 0.87 0.76 0.76 0.85 0.86 0.91 1.10 1.33 1.23 1.57
4.09 4.57 4.63 4.23 3.40 2.79 2.32 2.09 1.87 1.63 1.44 1.24 1.03 0.87 0.75 0.74 0.68 0.69 0.66 0.66 0.72 0.71 0.71 0.85 0.98 0.99 0.83 1.00 1.09 0.90 0.75 0.67 0.64 0.63 0.57 0.56 0.58 0.63 0.79 1.00 1.14 1.12 1.08
3.79 3.99 3.89 3.36 2.58 2.06 1.73 1.55 1.34 1.16 0.96 0.86 0.72 0.65 0.60 0.58 0.57 0.56 0.54 0.51 0.50 0.54 0.56 0.62 0.74 0.75 0.66 0.78 0.88 0.85 0.66 0.59 0.52 0.38 0.40 0.41 0.42 0.54 0.62 0.77 0.98 1.16 1.15
3.30 2.93 2.53 2.18 1.74 1.54 1.43 1.25 1.09 1.01 0.84 0.68 0.50 0.44 0.42 0.38 0.36 0.37 0.34 0.34 0.36 0.40 0.44 0.50 0.59 0.62 0.57 0.55 0.65 0.77 0.62 0.51 0.44 0.39 0.36 0.38 0.46 0.51 0.55 0.71 0.83 1.03 1.20
2.46 2.01 1.76 1.62 1.42 1.23 1.14 1.11 0.94 0.77 0.69 0.56 0.46 0.40 0.35 0.30 0.28 0.26 0.24 0.23 0.24 0.26 0.34 0.36 0.45 0.56 0.56 0.45 0.48 0.56 0.56 0.54 0.48 0.43 0.40 0.37 0.42 0.45 0.51 0.59 0.74 0.93 1.06
1.33 1.36 1.40 1.42 1.40 1.25 1.11 1.05 0.98 0.77 0.66 0.59 0.56 0.49 0.42 0.35 0.30 0.27 0.26 0.24 0.24 0.23 0.26 0.30 0.38 0.47 0.53 0.48 0.44 0.50 0.59 0.58 0.50 0.47 0.42 0.42 0.46 0.39 0.48 0.62 0.73 0.82 0.91
0.75 0.85 0.98 1.00 1.11 1.15 1.10 0.98 0.92 0.78 0.69 0.63 0.58 0.47 0.39 0.32 0.30 0.29 0.28 0.29 0.29 0.28 0.28 0.28 0.29 0.34 0.46 0.54 0.54 0.52 0.57 0.58 0.48 0.44 0.37 0.35 0.42 0.41 0.54 0.72 0.78 0.84 0.90

GEFSSE_prec_meanprecacc_126.txt.gz
Total_Precipitation_Accumulation
0.11 0.11 0.20 0.23 0.17 0.14 0.14 0.17 0.18 0.16 0.14 0.11 0.10 0.08 0.06 0.05 0.04 0.05 0.05 0.04 0.06 0.08 0.10 0.12 0.13 0.14 0.16 0.18 0.19 0.20 0.20 0.23 0.33 0.42 0.48 0.53 0.61 0.71 0.87 1.01 1.02 0.73 0.57
0.02 0.06 0.16 0.21 0.19 0.16 0.14 0.15 0.17 0.16 0.14 0.12 0.11 0.09 0.07 0.06 0.06 0.06 0.05 0.06 0.07 0.09 0.10 0.11 0.12 0.12 0.15 0.15 0.16 0.16 0.19 0.29 0.48 0.69 0.81 0.76 0.86 0.89 0.87 0.86 0.95 0.66 0.55
0.02 0.03 0.10 0.21 0.21 0.16 0.14 0.14 0.15 0.15 0.13 0.12 0.10 0.09 0.08 0.07 0.07 0.07 0.07 0.07 0.08 0.09 0.10 0.11 0.12 0.11 0.12 0.14 0.14 0.16 0.22 0.39 0.61 0.96 1.25 0.95 0.68 0.88 0.83 0.83 0.78 0.47 0.40
0.04 0.02 0.04 0.13 0.20 0.19 0.16 0.16 0.15 0.14 0.12 0.11 0.10 0.09 0.08 0.08 0.07 0.08 0.09 0.09 0.10 0.11 0.10 0.12 0.11 0.10 0.12 0.13 0.16 0.21 0.32 0.50 0.78 1.10 1.40 0.86 0.42 0.55 0.61 0.55 0.53 0.38 0.34
0.07 0.04 0.07 0.12 0.16 0.18 0.17 0.17 0.15 0.14 0.12 0.10 0.09 0.08 0.08 0.08 0.11 0.11 0.11 0.11 0.12 0.12 0.13 0.13 0.11 0.11 0.09 0.11 0.15 0.22 0.37 0.51 0.77 1.00 0.93 0.90 0.85 0.54 0.43 0.41 0.43 0.40 0.33
0.10 0.08 0.10 0.14 0.16 0.17 0.17 0.17 0.16 0.13 0.12 0.10 0.09 0.09 0.09 0.11 0.13 0.12 0.12 0.13 0.12 0.14 0.17 0.17 0.13 0.11 0.11 0.12 0.17 0.24 0.33 0.50 0.68 0.62 0.52 0.66 0.75 0.53 0.45 0.47 0.42 0.38 0.31
0.26 0.19 0.18 0.21 0.20 0.18 0.17 0.17 0.18 0.16 0.14 0.12 0.10 0.11 0.12 0.13 0.15 0.16 0.16 0.17 0.15 0.16 0.19 0.20 0.17 0.14 0.15 0.17 0.21 0.24 0.36 0.57 0.64 0.55 0.52 0.64 0.66 0.49 0.64 0.79 0.66 0.50 0.36
0.59 0.49 0.37 0.36 0.30 0.25 0.22 0.21 0.21 0.20 0.17 0.16 0.15 0.15 0.16 0.17 0.18 0.21 0.21 0.22 0.23 0.23 0.24 0.23 0.20 0.21 0.22 0.25 0.27 0.31 0.44 0.50 0.48 0.58 0.61 0.62 0.47 0.45 0.73 0.94 0.86 0.75 0.59
0.87 0.79 0.56 0.41 0.37 0.32 0.32 0.30 0.26 0.24 0.23 0.22 0.21 0.19 0.19 0.19 0.19 0.21 0.25 0.25 0.26 0.28 0.28 0.27 0.26 0.28 0.29 0.29 0.30 0.36 0.49 0.55 0.53 0.68 0.67 0.63 0.44 0.51 0.71 0.84 0.83 0.82 0.72
1.13 0.94 0.66 0.49 0.45 0.37 0.33 0.32 0.30 0.26 0.25 0.24 0.24 0.25 0.25 0.24 0.25 0.28 0.31 0.33 0.34 0.33 0.32 0.34 0.37 0.38 0.39 0.35 0.34 0.41 0.51 0.50 0.47 0.65 0.84 0.68 0.54 0.71 0.88 0.87 0.91 0.95 0.86
1.47 0.98 0.60 0.55 0.47 0.45 0.40 0.40 0.47 0.42 0.41 0.41 0.44 0.43 0.50 0.61 0.63 0.68 0.57 0.56 0.56 0.60 0.61 0.63 0.64 0.66 0.63 0.48 0.49 0.63 0.61 0.50 0.73 0.95 1.09 0.76 0.67 0.87 1.05 1.07 1.05 0.99 0.96
1.44 1.29 0.81 0.65 0.57 0.56 0.55 0.58 0.84 0.87 0.90 0.96 1.03 0.98 1.06 1.05 0.90 0.73 0.74 0.89 0.92 1.07 1.18 1.30 1.40 1.22 0.99 0.83 1.00 1.31 0.82 0.70 0.91 1.03 1.07 0.90 0.93 1.19 1.32 1.29 1.15 0.97 0.93
1.39 1.28 1.17 0.92 0.79 0.80 0.91 0.89 1.02 1.15 1.27 1.36 1.30 1.33 1.46 1.27 1.06 0.94 1.05 1.28 1.35 1.48 1.60 1.89 2.02 1.50 1.47 1.66 1.70 1.65 1.29 1.23 1.15 1.38 1.38 1.38 1.43 1.65 1.66 1.58 1.45 1.23 1.07
1.51 1.41 1.55 1.39 1.23 1.22 1.21 1.27 1.12 1.08 1.16 1.29 1.35 1.36 1.51 1.43 1.32 1.32 1.34 1.39 1.61 1.77 2.01 2.00 2.13 2.13 2.18 2.09 2.04 2.00 1.88 1.71 1.56 1.81 2.13 2.10 1.99 1.98 2.07 1.90 1.65 1.56 1.43
1.87 1.81 1.89 1.83 1.89 1.85 1.69 1.56 1.25 1.17 1.11 1.13 1.21 1.23 1.46 1.68 1.65 1.72 1.51 1.46 1.33 1.63 2.00 2.22 2.27 2.45 2.57 2.53 2.20 1.97 1.93 1.80 1.61 1.68 1.99 2.24 2.28 2.15 2.20 2.19 1.92 1.79 1.74
2.43 2.41 2.35 2.26 2.30 2.23 1.94 1.71 1.51 1.29 1.23 1.17 1.20 1.33 1.74 1.91 1.81 1.85 1.78 1.67 1.44 1.59 1.92 2.27 2.35 2.59 2.57 2.59 2.11 1.88 1.81 1.83 1.64 1.53 1.64 2.01 2.06 1.95 1.96 2.13 2.18 2.11 2.01
3.01 3.01 3.08 2.99 2.72 2.64 2.34 1.93 1.62 1.36 1.19 1.23 1.37 1.54 1.80 1.95 2.02 2.17 2.07 1.73 1.58 1.75 1.93 1.95 2.08 2.55 2.38 2.34 2.16 2.14 2.08 1.89 1.69 1.58 1.53 1.62 1.64 1.80 1.85 1.89 2.09 2.21 2.27
3.53 3.73 3.84 3.55 3.38 3.24 2.79 2.38 2.07 1.87 1.67 1.66 1.64 1.58 1.51 1.69 1.84 1.99 1.72 1.40 1.55 1.82 1.95 1.87 1.88 2.24 2.28 2.29 2.28 2.19 2.10 1.89 1.65 1.55 1.52 1.41 1.40 1.29 1.49 1.71 1.92 2.08 2.34
3.77 4.24 4.51 4.54 4.09 3.63 2.98 2.51 2.13 2.07 1.95 1.81 1.63 1.41 1.24 1.15 1.18 1.28 1.12 1.06 1.28 1.53 1.53 1.35 1.49 1.76 1.86 1.95 1.91 1.71 1.53 1.34 1.21 1.19 1.16 1.09 1.20 1.24 1.29 1.37 1.66 1.83 2.15
3.88 4.36 4.63 4.70 4.16 3.43 2.94 2.71 2.39 2.09 1.92 1.73 1.46 1.19 0.95 0.88 0.83 0.90 0.89 0.84 0.93 0.98 1.00 1.14 1.30 1.45 1.35 1.42 1.36 1.17 1.14 1.00 0.91 0.89 0.78 0.77 0.87 0.87 0.93 1.12 1.37 1.28 1.64
4.29 4.75 4.80 4.40 3.55 2.97 2.49 2.24 2.01 1.76 1.59 1.37 1.13 0.95 0.81 0.78 0.71 0.71 0.68 0.68 0.74 0.72 0.73 0.88 1.00 1.01 0.85 1.02 1.12 0.95 0.78 0.68 0.65 0.63 0.58 0.57 0.59 0.65 0.80 1.01 1.16 1.14 1.10
3.95 4.16 4.08 3.55 2.77 2.25 1.93 1.77 1.56 1.37 1.12 1.01 0.85 0.76 0.69 0.65 0.61 0.59 0.57 0.54 0.53 0.57 0.59 0.65 0.75 0.76 0.68 0.80 0.91 0.87 0.68 0.60 0.52 0.38 0.41 0.42 0.43 0.56 0.64 0.78 0.99 1.17 1.16
3.41 3.07 2.70 2.39 1.98 1.79 1.68 1.48 1.28 1.20 1.02 0.84 0.62 0.51 0.48 0.44 0.41 0.40 0.37 0.37 0.39 0.42 0.45 0.52 0.60 0.63 0.59 0.56 0.67 0.77 0.63 0.51 0.45 0.39 0.37 0.39 0.46 0.51 0.56 0.71 0.83 1.03 1.20
2.57 2.14 1.89 1.76 1.62 1.47 1.36 1.26 1.04 0.85 0.76 0.62 0.53 0.45 0.40 0.34 0.32 0.30 0.26 0.26 0.26 0.28 0.36 0.37 0.46 0.56 0.57 0.46 0.48 0.56 0.56 0.54 0.48 0.44 0.40 0.37 0.42 0.45 0.52 0.59 0.74 0.93 1.06
1.45 1.51 1.55 1.55 1.52 1.40 1.28 1.17 1.06 0.83 0.72 0.66 0.64 0.57 0.49 0.40 0.33 0.30 0.29 0.26 0.26 0.24 0.27 0.30 0.38 0.47 0.54 0.48 0.45 0.50 0.59 0.58 0.50 0.47 0.42 0.42 0.46 0.39 0.48 0.62 0.73 0.82 0.91
0.85 0.97 1.09 1.11 1.20 1.27 1.23 1.07 0.98 0.84 0.74 0.68 0.63 0.51 0.44 0.37 0.33 0.31 0.31 0.33 0.31 0.30 0.29 0.28 0.30 0.35 0.47 0.55 0.54 0.52 0.57 0.58 0.48 0.44 0.37 0.35 0.42 0.41 0.54 0.72 0.78 0.84 0.90

GEFSSE_prec_meanprecacc_132.txt.gz
Total_Precipitation_Accumulation
0.12 0.12 0.22 0.24 0.19 0.16 0.16 0.19 0.21 0.19 0.17 0.13 0.12 0.09 0.06 0.05 0.05 0.06 0.06 0.05 0.06 0.09 0.12 0.14 0.17 0.19 0.21 0.23 0.25 0.25 0.23 0.26 0.38 0.49 0.55 0.60 0.68 0.77 0.91 1.05 1.06 0.77 0.61
0.03 0.06 0.18 0.23 0.20 0.17 0.15 0.17 0.18 0.18 0.16 0.14 0.12 0.10 0.08 0.07 0.07 0.07 0.06 0.07 0.08 0.10 0.13 0.16 0.18 0.19 0.19 0.20 0.21 0.20 0.22 0.34 0.55 0.79 0.92 0.84 0.93 0.95 0.91 0.90 1.00 0.70 0.60
0.03 0.03 0.11 0.22 0.22 0.18 0.16 0.15 0.17 0.16 0.15 0.14 0.11 0.10 0.08 0.08 0.07 0.08 0.08 0.08 0.09 0.11 0.14 0.16 0.18 0.15 0.17 0.19 0.18 0.19 0.26 0.46 0.71 1.06 1.35 1.02 0.72 0.93 0.87 0.86 0.83 0.52 0.45
0.04 0.02 0.05 0.14 0.21 0.20 0.18 0.17 0.17 0.16 0.14 0.12 0.11 0.09 0.08 0.08 0.08 0.09 0.10 0.10 0.12 0.13 0.15 0.17 0.15 0.15 0.18 0.19 0.21 0.27 0.38 0.58 0.87 1.16 1.46 0.91 0.46 0.61 0.68 0.59 0.57 0.42 0.39
0.08 0.05 0.08 0.13 0.16 0.19 0.19 0.19 0.17 0.15 0.13 0.11 0.10 0.09 0.09 0.09 0.12 0.12 0.12 0.13 0.14 0.15 0.16 0.17 0.15 0.17 0.14 0.15 0.19 0.28 0.44 0.59 0.82 1.04 0.96 0.96 0.91 0.61 0.50 0.46 0.48 0.44 0.37
0.11 0.10 0.12 0.16 0.17 0.18 0.18 0.18 0.17 0.15 0.13 0.12 0.11 0.11 0.11 0.13 0.15 0.14 0.14 0.16 0.15 0.16 0.19 0.21 0.17 0.16 0.15 0.15 0.21 0.28 0.39 0.55 0.72 0.64 0.54 0.72 0.81 0.58 0.51 0.51 0.44 0.41 0.34
0.28 0.23 0.23 0.25 0.23 0.21 0.19 0.19 0.19 0.17 0.15 0.13 0.12 0.13 0.14 0.16 0.19 0.19 0.19 0.21 0.18 0.18 0.22 0.25 0.22 0.18 0.19 0.22 0.25 0.28 0.41 0.60 0.66 0.58 0.55 0.69 0.71 0.54 0.70 0.82 0.69 0.53 0.39
0.63 0.56 0.45 0.44 0.36 0.29 0.25 0.24 0.23 0.22 0.19 0.18 0.17 0.17 0.18 0.19 0.21 0.23 0.25 0.25 0.25 0.26 0.27 0.27 0.24 0.25 0.29 0.33 0.33 0.35 0.49 0.53 0.49 0.59 0.63 0.65 0.50 0.49 0.77 0.98 0.89 0.78 0.62
0.90 0.85 0.63 0.49 0.44 0.38 0.38 0.34 0.30 0.27 0.26 0.24 0.24 0.22 0.21 0.21 0.21 0.23 0.28 0.28 0.28 0.30 0.32 0.32 0.31 0.33 0.36 0.37 0.38 0.43 0.53 0.57 0.54 0.69 0.69 0.67 0.47 0.55 0.75 0.88 0.88 0.85 0.75
1.19 1.01 0.74 0.58 0.55 0.47 0.42 0.39 0.35 0.30 0.28 0.27 0.29 0.30 0.30 0.28 0.27 0.31 0.33 0.35 0.36 0.35 0.35 0.38 0.40 0.42 0.44 0.42 0.42 0.49 0.58 0.54 0.49 0.65 0.85 0.70 0.57 0.74 0.91 0.90 0.96 0.99 0.88
1.53 1.07 0.70 0.70 0.70 0.61 0.53 0.49 0.54 0.48 0.45 0.46 0.51 0.50 0.56 0.69 0.68 0.71 0.59 0.58 0.58 0.62 0.64 0.65 0.68 0.70 0.67 0.54 0.56 0.71 0.66 0.54 0.75 0.96 1.12 0.78 0.71 0.90 1.08 1.10 1.08 1.03 0.99
1.49 1.38 0.93 0.80 0.80 0.73 0.67 0.68 0.95 0.97 0.98 1.03 1.11 1.05 1.14 1.12 0.96 0.76 0.76 0.93 0.94 1.08 1.20 1.33 1.43 1.25 1.01 0.86 1.03 1.35 0.88 0.73 0.93 1.05 1.09 0.93 0.96 1.23 1.36 1.32 1.17 0.99 0.95
1.46 1.36 1.27 1.04 0.95 0.93 1.01 0.96 1.09 1.22 1.34 1.43 1.37 1.40 1.52 1.32 1.09 0.97 1.09 1.34 1.40 1.51 1.63 1.90 2.04 1.51 1.48 1.70 1.74 1.67 1.34 1.27 1.19 1.42 1.41 1.41 1.47 1.69 1.70 1.62 1.48 1.26 1.08
1.60 1.51 1.65 1.49 1.35 1.34 1.31 1.33 1.17 1.13 1.20 1.34 1.40 1.40 1.55 1.47 1.34 1.36 1.40 1.45 1.65 1.82 2.05 2.02 2.15 2.14 2.19 2.11 2.06 2.04 1.92 1.76 1.60 1.86 2.20 2.13 2.03 2.04 2.13 1.95 1.70 1.59 1.46
1.98 1.95 2.01 1.95 2.02 1.96 1.77 1.61 1.29 1.21 1.15 1.18 1.25 1.26 1.49 1.71 1.68 1.75 1.55 1.50 1.36 1.66 2.02 2.23 2.28 2.46 2.59 2.55 2.22 2.00 1.96 1.82 1.65 1.72 2.05 2.29 2.33 2.20 2.26 2.25 1.98 1.84 1.79
2.55 2.59 2.49 2.39 2.42 2.34 2.01 1.76 1.56 1.33 1.28 1.22 1.23 1.37 1.78 1.95 1.84 1.88 1.81 1.71 1.47 1.61 1.95 2.29 2.36 2.61 2.60 2.64 2.15 1.93 1.87 1.88 1.68 1.56 1.68 2.06 2.11 1.99 2.01 2.19 2.24 2.16 2.07
3.18 3.23 3.26 3.12 2.84 2.75 2.44 2.00 1.69 1.42 1.25 1.28 1.41 1.59 1.85 1.98 2.06 2.21 2.11 1.77 1.62 1.79 1.96 1.98 2.10 2.57 2.42 2.38 2.23 2.21 2.17 1.96 1.74 1.62 1.56 1.67 1.68 1.84 1.90 1.94 2.14 2.27 2.33
3.71 3.99 4.02 3.72 3.52 3.33 2.88 2.47 2.14 1.94 1.74 1.72 1.71 1.65 1.57 1.74 1.89 2.04 1.77 1.43 1.59 1.85 1.98 1.91 1.90 2.26 2.32 2.34 2.35 2.28 2.16 1.97 1.70 1.60 1.56 1.46 1.45 1.34 1.55 1.75 1.96 2.12 2.39
3.94 4.46 4.66 4.67 4.22 3.73 3.08 2.59 2.21 2.14 2.01 1.86 1.69 1.49 1.31 1.22 1.23 1.33 1.17 1.10 1.30 1.54 1.56 1.38 1.51 1.78 1.89 2.02 1.98 1.78 1.59 1.39 1.26 1.23 1.21 1.13 1.24 1.27 1.35 1.41 1.70 1.86 2.18
4.03 4.51 4.75 4.81 4.27 3.53 3.03 2.80 2.49 2.18 1.99 1.79 1.52 1.27 1.02 0.94 0.88 0.95 0.95 0.89 0.95 1.00 1.03 1.17 1.35 1.49 1.40 1.49 1.41 1.22 1.17 1.03 0.95 0.93 0.81 0.80 0.90 0.89 0.95 1.14 1.40 1.30 1.66
4.40 4.86 4.89 4.49 3.65 3.05 2.55 2.30 2.07 1.84 1.67 1.44 1.19 1.00 0.86 0.82 0.75 0.77 0.73 0.74 0.79 0.75 0.76 0.91 1.03 1.05 0.89 1.07 1.19 1.02 0.83 0.71 0.68 0.68 0.62 0.61 0.62 0.67 0.82 1.05 1.19 1.18 1.13
4.03 4.24 4.16 3.64 2.84 2.31 2.00 1.86 1.66 1.51 1.24 1.09 0.91 0.81 0.73 0.69 0.65 0.63 0.63 0.61 0.59 0.62 0.64 0.68 0.79 0.80 0.72 0.85 0.97 0.94 0.74 0.65 0.56 0.40 0.44 0.45 0.46 0.59 0.66 0.80 1.02 1.21 1.19
3.46 3.13 2.77 2.47 2.05 1.86 1.76 1.58 1.37 1.29 1.10 0.90 0.67 0.56 0.53 0.49 0.46 0.44 0.41 0.42 0.44 0.47 0.50 0.56 0.63 0.67 0.63 0.59 0.70 0.81 0.66 0.54 0.48 0.42 0.38 0.40 0.48 0.54 0.58 0.73 0.84 1.05 1.22
2.62 2.20 1.96 1.85 1.71 1.58 1.48 1.37 1.12 0.92 0.83 0.69 0.59 0.51 0.45 0.38 0.37 0.34 0.31 0.31 0.31 0.32 0.40 0.40 0.48 0.59 0.61 0.50 0.51 0.58 0.58 0.56 0.51 0.46 0.41 0.38 0.43 0.47 0.53 0.60 0.75 0.94 1.07
1.53 1.58 1.63 1.63 1.62 1.52 1.42 1.30 1.15 0.91 0.80 0.74 0.72 0.64 0.57 0.46 0.39 0.35 0.34 0.31 0.30 0.28 0.29 0.32 0.40 0.51 0.57 0.52 0.48 0.52 0.61 0.61 0.52 0.50 0.45 0.44 0.47 0.40 0.48 0.62 0.74 0.83 0.92
0.96 1.05 1.16 1.19 1.29 1.37 1.33 1.15 1.03 0.89 0.81 0.76 0.69 0.57 0.50 0.43 0.38 0.36 0.36 0.38 0.35 0.32 0.31 0.30 0.32 0.38 0.50 0.59 0.57 0.54 0.58 0.60 0.50 0.46 0.39 0.37 0.44 0.42 0.54 0.73 0.78 0.84 0.91

GEFSSE_prec_meanprecacc_138.txt.gz
Total_Precipitation_Accumulation
0.12 0.12 0.22 0.25 0.21 0.18 0.18 0.21 0.23 0.21 0.19 0.14 0.13 0.10 0.07 0.06 0.05 0.06 0.06 0.06 0.08 0.11 0.16 0.18 0.21 0.23 0.27 0.29 0.32 0.28 0.26 0.28 0.40 0.53 0.59 0.64 0.72 0.83 0.99 1.16 1.19 0.82 0.66
0.03 0.06 0.18 0.23 0.21 0.19 0.18 0.20 0.21 0.20 0.18 0.16 0.13 0.11 0.09 0.08 0.07 0.08 0.07 0.08 0.09 0.12 0.16 0.20 0.21 0.23 0.24 0.24 0.25 0.23 0.26 0.37 0.58 0.83 0.96 0.88 0.98 0.99 0.98 1.00 1.14 0.76 0.65
0.03 0.03 0.11 0.22 0.23 0.19 0.18 0.17 0.19 0.19 0.17 0.16 0.13 0.11 0.09 0.09 0.09 0.09 0.09 0.10 0.11 0.13 0.16 0.19 0.21 0.19 0.20 0.24 0.22 0.23 0.31 0.51 0.79 1.16 1.48 1.10 0.75 0.97 0.92 0.93 0.89 0.59 0.51
0.04 0.03 0.05 0.14 0.21 0.21 0.19 0.19 0.19 0.19 0.17 0.16 0.13 0.11 0.10 0.10 0.09 0.11 0.11 0.12 0.14 0.16 0.18 0.20 0.18 0.19 0.21 0.23 0.26 0.32 0.43 0.64 0.97 1.37 1.65 0.99 0.49 0.64 0.73 0.64 0.63 0.51 0.45
0.08 0.05 0.08 0.13 0.17 0.20 0.20 0.20 0.19 0.18 0.17 0.15 0.13 0.12 0.12 0.12 0.14 0.14 0.13 0.15 0.17 0.19 0.21 0.21 0.18 0.19 0.17 0.17 0.22 0.33 0.49 0.65 0.94 1.24 1.07 1.03 0.95 0.65 0.55 0.50 0.53 0.50 0.40
0.11 0.10 0.12 0.17 0.17 0.19 0.19 0.20 0.20 0.17 0.15 0.14 0.13 0.14 0.14 0.17 0.19 0.16 0.16 0.18 0.18 0.20 0.24 0.26 0.20 0.18 0.17 0.18 0.22 0.31 0.41 0.61 0.87 0.73 0.59 0.78 0.84 0.62 0.55 0.56 0.50 0.45 0.37
0.30 0.27 0.25 0.26 0.24 0.21 0.20 0.20 0.22 0.19 0.17 0.16 0.14 0.15 0.17 0.19 0.22 0.22 0.22 0.24 0.21 0.21 0.26 0.29 0.25 0.20 0.23 0.26 0.27 0.29 0.42 0.66 0.74 0.61 0.60 0.75 0.73 0.58 0.73 0.87 0.75 0.55 0.42
0.66 0.60 0.50 0.46 0.37 0.29 0.25 0.25 0.26 0.24 0.21 0.21 0.19 0.20 0.20 0.22 0.23 0.25 0.27 0.28 0.28 0.29 0.30 0.30 0.25 0.26 0.31 0.35 0.34 0.36 0.50 0.58 0.53 0.60 0.65 0.67 0.51 0.52 0.80 1.01 0.92 0.81 0.65
0.94 0.88 0.67 0.53 0.47 0.41 0.41 0.37 0.32 0.30 0.28 0.27 0.27 0.24 0.24 0.24 0.24 0.25 0.30 0.32 0.32 0.33 0.35 0.35 0.33 0.36 0.39 0.39 0.39 0.43 0.54 0.61 0.58 0.70 0.70 0.67 0.47 0.57 0.77 0.91 0.91 0.88 0.78
1.24 1.07 0.79 0.62 0.63 0.53 0.47 0.43 0.40 0.35 0.32 0.31 0.31 0.32 0.33 0.31 0.30 0.34 0.36 0.39 0.40 0.38 0.38 0.40 0.42 0.44 0.45 0.43 0.43 0.50 0.59 0.58 0.52 0.66 0.86 0.70 0.58 0.75 0.92 0.93 0.99 1.02 0.91
1.61 1.20 0.83 0.78 0.88 0.77 0.59 0.52 0.58 0.53 0.50 0.50 0.54 0.52 0.62 0.78 0.75 0.78 0.63 0.62 0.61 0.64 0.65 0.67 0.69 0.71 0.68 0.54 0.56 0.71 0.68 0.59 0.82 0.99 1.13 0.78 0.71 0.91 1.09 1.12 1.10 1.06 1.02
1.56 1.49 1.10 0.93 0.92 0.86 0.74 0.72 0.99 1.01 1.01 1.08 1.17 1.11 1.25 1.26 1.11 0.85 0.82 0.97 0.97 1.11 1.22 1.35 1.44 1.26 1.04 0.88 1.03 1.38 0.91 0.76 0.97 1.07 1.10 0.93 0.97 1.23 1.37 1.34 1.19 1.01 0.97
1.51 1.43 1.40 1.16 1.04 1.01 1.09 1.02 1.15 1.29 1.40 1.51 1.45 1.48 1.63 1.41 1.17 1.04 1.16 1.39 1.44 1.55 1.68 1.93 2.05 1.54 1.53 1.76 1.79 1.70 1.36 1.31 1.25 1.44 1.43 1.41 1.47 1.70 1.71 1.63 1.49 1.27 1.11
1.67 1.60 1.79 1.64 1.45 1.44 1.39 1.40 1.24 1.19 1.27 1.40 1.48 1.48 1.62 1.56 1.44 1.45 1.51 1.55 1.73 1.91 2.14 2.08 2.20 2.19 2.28 2.16 2.12 2.09 1.95 1.80 1.68 1.89 2.22 2.14 2.03 2.04 2.13 1.96 1.70 1.61 1.47
2.06 2.09 2.20 2.11 2.14 2.08 1.88 1.67 1.34 1.26 1.23 1.25 1.32 1.34 1.56 1.78 1.77 1.85 1.65 1.62 1.44 1.71 2.07 2.27 2.31 2.52 2.65 2.59 2.26 2.03 1.98 1.88 1.70 1.77 2.07 2.30 2.34 2.21 2.27 2.26 1.99 1.85 1.80
2.64 2.75 2.70 2.58 2.57 2.49 2.11 1.85 1.62 1.38 1.35 1.28 1.29 1.41 1.85 2.03 1.93 1.97 1.88 1.78 1.55 1.66 1.98 2.32 2.39 2.64 2.63 2.68 2.20 1.96 1.90 1.92 1.72 1.61 1.71 2.07 2.11 2.00 2.02 2.20 2.25 2.17 2.07
3.26 3.37 3.45 3.32 3.01 2.91 2.57 2.08 1.75 1.47 1.29 1.33 1.47 1.64 1.93 2.07 2.14 2.28 2.18 1.84 1.68 1.83 2.00 2.01 2.14 2.60 2.44 2.42 2.26 2.24 2.21 2.00 1.77 1.66 1.63 1.71 1.70 1.85 1.90 1.96 2.15 2.28 2.35
3.81 4.16 4.21 3.88 3.71 3.53 3.04 2.58 2.20 1.99 1.78 1.77 1.75 1.70 1.63 1.81 1.94 2.10 1.83 1.48 1.62 1.88 2.01 1.93 1.93 2.29 2.35 2.37 2.39 2.33 2.22 2.01 1.73 1.63 1.60 1.51 1.49 1.36 1.56 1.76 1.97 2.13 2.41
4.05 4.65 4.84 4.85 4.39 3.89 3.22 2.73 2.30 2.21 2.07 1.90 1.74 1.55 1.36 1.26 1.26 1.37 1.23 1.16 1.32 1.56 1.58 1.39 1.53 1.80 1.94 2.07 2.00 1.82 1.61 1.41 1.29 1.25 1.24 1.15 1.28 1.31 1.37 1.43 1.71 1.86 2.20
4.16 4.71 4.94 4.98 4.41 3.67 3.18 2.95 2.62 2.27 2.05 1.83 1.57 1.33 1.08 0.99 0.91 1.00 0.99 0.92 0.97 1.02 1.07 1.21 1.40 1.53 1.46 1.54 1.44 1.26 1.20 1.06 0.97 0.95 0.83 0.83 0.94 0.92 0.97 1.17 1.41 1.31 1.67
4.54 5.03 5.06 4.67 3.78 3.18 2.68 2.42 2.19 1.94 1.74 1.50 1.24 1.05 0.93 0.88 0.79 0.81 0.78 0.79 0.81 0.79 0.81 0.95 1.07 1.10 0.94 1.11 1.25 1.09 0.89 0.74 0.71 0.70 0.64 0.64 0.65 0.70 0.86 1.09 1.23 1.22 1.16
4.19 4.40 4.29 3.76 2.95 2.41 2.09 1.99 1.82 1.64 1.33 1.17 0.99 0.91 0.81 0.75 0.69 0.66 0.69 0.65 0.61 0.67 0.68 0.72 0.84 0.86 0.77 0.88 1.01 1.02 0.84 0.74 0.62 0.42 0.46 0.47 0.49 0.62 0.69 0.83 1.05 1.25 1.23
3.57 3.23 2.86 2.57 2.15 1.97 1.89 1.71 1.53 1.45 1.19 0.98 0.76 0.67 0.62 0.55 0.50 0.48 0.45 0.45 0.48 0.50 0.55 0.60 0.68 0.73 0.70 0.65 0.73 0.86 0.75 0.65 0.56 0.46 0.39 0.41 0.49 0.56 0.60 0.75 0.86 1.06 1.24
2.68 2.27 2.04 1.94 1.80 1.68 1.60 1.49 1.23 1.03 0.93 0.79 0.68 0.60 0.54 0.45 0.42 0.39 0.35 0.34 0.34 0.35 0.45 0.43 0.51 0.63 0.67 0.57 0.55 0.60 0.60 0.60 0.58 0.55 0.47 0.39 0.45 0.48 0.54 0.61 0.76 0.95 1.08
1.59 1.65 1.70 1.74 1.74 1.64 1.55 1.43 1.26 1.01 0.92 0.86 0.81 0.73 0.65 0.55 0.45 0.40 0.38 0.35 0.34 0.31 0.34 0.35 0.46 0.55 0.62 0.56 0.51 0.54 0.63 0.64 0.55 0.55 0.53 0.50 0.52 0.41 0.49 0.63 0.74 0.83 0.92
1.02 1.12 1.24 1.29 1.42 1.48 1.42 1.24 1.13 1.01 0.95 0.91 0.80 0.66 0.57 0.51 0.47 0.42 0.42 0.43 0.39 0.36 0.36 0.36 0.39 0.42 0.55 0.63 0.60 0.57 0.61 0.64 0.53 0.50 0.44 0.43 0.49 0.43 0.55 0.73 0.79 0.85 0.91